     2              OBSERVATION DATA    G (GPS)             RINEX VERSION / TYPE
ASRINEXO V2.9.9 LH AIUB 29-JAN- 1 16:10                     PGM / RUN BY / DATE
BERN ASHTECH Z-12                                           COMMENT
BIT 2 OF LLI (+4) FLAGS DATA COLLECTED UNDER "AS" CONDITION COMMENT
PTBA                                                        MARKER NAME
                                                            OBSERVER / AGENCY
ASHTECH Z-XII3 1D15                                         REC # / TYPE / VERS
CHOKE RING                                                  ANT # / TYPE
  3844071.5900   709658.2100  5023135.4600                  APPROX POSITION XYZ
        0.0000        0.0000        0.0000                  ANTENNA: DELTA H/E/N
     1     1                                                WAVELENGTH FACT L1/2
     5    C1    L1    L2    P1    P2                        # / TYPES OF OBSERV
  2000     6    30     0     0   30.000000                  TIME OF FIRST OBS
                                                            END OF HEADER
 00  6 30  0  0 30.0000000  0  6 29 05 26 30 09 07
  22917683.258     -426246.917 8   -314376.33146  22917681.426    22917686.3174
  21007435.965   -18314019.615 9 -14254905.48347  21007438.776    21007444.1564
  23958924.441     2959224.365 8   2324319.67045  23958929.663    23958935.4194
  23874561.021    -3553228.725 8  -2747409.23745  23874568.793    23874576.6614
  20218841.242   -22854877.351 9 -17537759.86548  20218844.993    20218850.0054
  22420934.880   -10696019.738 8  -8315415.79247  22420939.127    22420944.0464
 00  6 30  0  1  0.0000000  0  6 29 05 26 30 09 07
  22903907.415     -498599.088 8   -370754.55646  22903911.499    22903917.1044
  20995867.352   -18374827.508 9 -14302288.23847  20995866.895    20995872.4564
  23980013.755     3070005.248 8   2410642.34045  23980010.342    23980017.1734
  23854816.107    -3657023.512 8  -2828288.14745  23854818.149    23854825.0384
  20223185.357   -22832056.593 9 -17519977.45148  20223187.997    20223192.7814
  22430585.626   -10645329.583 8  -8275917.02046  22430584.756    22430590.2134
 00  6 30  0  1 30.0000000  0  6 29 05 26 30 09 07
  22890218.601     -570538.900 8   -426811.50146  22890221.709    22890227.7774
  20984361.459   -18435269.164 9 -14349385.60347  20984365.328    20984370.7984
  24001104.228     3180885.485 8   2497042.41945  24001110.339    24001117.2754
  23835091.832    -3760677.454 8  -2909057.37945  23835093.348    23835099.9074
  20227616.352   -22808778.655 9 -17501838.79548  20227617.745    20227622.3064
  22440319.276   -10594173.556 8  -8236055.19446  22440319.599    22440324.4354
 00  6 30  0  2  0.0000000  0  6 29 05 26 30 09 07
  22876606.453     -642063.900 8   -482545.18546  22876611.033    22876617.2204
  20972929.852   -18495343.686 9 -14396196.87547  20972933.834    20972938.4984
  24022229.955     3291862.439 8   2583517.86345  24022229.355    24022235.8524
  23815391.902    -3864189.362 8  -2989715.85446  23815396.658    23815402.2554
  20232132.263   -22785043.772 9 -17483344.07748  20232134.283    20232138.9164
  22450140.011   -10542553.372 8  -8195831.69246  22450141.633    22450147.8124
 00  6 30  0  2 30.0000000  0  6 29 05 26 30 09 07
  22863079.102     -713171.944 8   -537953.97846  22863079.457    22863084.9604
  20961572.972   -18555050.419 9 -14442721.58847  20961572.598    20961577.0424
  24043363.730     3402934.016 8   2670067.03945  24043365.871    24043370.9674
  23795722.530    -3967558.093 8  -3070262.80645  23795725.003    23795731.6214
  20236736.262   -22760852.407 9 -17464493.66348  20236738.211    20236742.8794
  22460050.775   -10490470.666 8  -8155247.81146  22460053.092    22460058.1244
 00  6 30  0  3  0.0000000  0  6 29 05 26 30 09 07
  22849622.904     -783860.532 8   -593035.91746  22849628.008    22849634.1674
  20950278.296   -18614388.657 9 -14488959.14047  20950280.541    20950285.7504
  24064519.762     3514097.915 8   2756688.15345  24064519.002    24064525.8624
  23776081.518    -4070782.074 8  -3150696.98845  23776081.224    23776089.5194
  20241424.700   -22736204.411 9 -17445287.42748  20241428.166    20241432.9094
  22470046.679   -10437927.370 8  -8114305.01046  22470051.693    22470057.0904
 00  6 30  0  3 30.0000000  0  6 29 05 26 30 09 07
  22836256.974     -854127.501 8   -647789.34246  22836256.909    22836262.4464
  20939056.782   -18673357.630 9 -14534908.96147  20939058.577    20939064.3004
  24085680.061     3625351.716 8   2843379.32445  24085689.471    24085697.4784
  23756463.379    -4173860.476 8  -3231017.69045  23756467.557    23756473.3314
  20246203.567   -22711100.073 9 -17425725.60648  20246205.655    20246209.4704
  22480133.414   -10384925.189 8  -8073004.66846  22480137.281    22480142.6324
 00  6 30  0  4  0.0000000  0  6 29 05 26 30 09 07
  22822960.168     -923970.473 8   -702212.37546  22822965.951    22822973.4664
  20927904.911   -18731956.375 9 -14580570.30747  20927907.395    20927913.3794
  24106874.549     3736693.109 8   2930138.75345  24106878.137    24106885.0664
  23736878.435    -4276791.917 8  -3311223.89045  23736880.227    23736885.1194
  20251067.958   -22685539.580 9 -17405808.33548  20251069.604    20251074.3964
  22490307.719   -10331465.886 8  -8031348.08646  22490310.587    22490317.2954
 00  6 30  0  4 30.0000000  0  6 29 05 26 30 09 07
  22809754.315     -993387.510 8   -756303.46546  22809755.571    22809762.3284
  20916823.908   -18790184.236 9 -14625942.63647  20916826.401    20916832.8154
  24128079.863     3848119.884 8   3016964.71045  24128081.891    24128088.3754
  23717321.188    -4379575.344 8  -3391314.75645  23717321.171    23717326.8194
  20256017.184   -22659523.245 9 -17385535.85448  20256020.020    20256024.9374
  22500567.547   -10277551.085 8  -7989336.57746  22500570.727    22500576.3044
 00  6 30  0  5  0.0000000  0  6 29 05 26 30 09 07
  22796626.948    -1062375.806 8   -810060.51246  22796629.194    22796634.4894
  20905814.747   -18848040.400 9 -14671025.32347  20905816.952    20905822.7254
  24149302.778     3959629.726 8   3103855.37645  24149301.647    24149307.8304
  23697789.260    -4482209.459 8  -3471289.29746  23697790.542    23697796.3394
  20261055.531   -22633051.279 9 -17364908.35448  20261057.788    20261061.9994
  22510915.198   -10223182.796 8  -7946971.71046  22510916.433    22510921.0934
 00  6 30  0  5 30.0000000  0  6 29 05 26 30 09 07
  22783579.933    -1130933.422 8   -863481.98046  22783581.590    22783587.4514
  20894879.349   -18905524.164 9 -14715817.84447  20894878.831    20894883.7434
  24170531.055     4071220.252 8   3190808.92245  24170536.519    24170543.8374
  23678288.097    -4584692.729 8  -3551146.26345  23678287.024    23678294.0314
  20266179.037   -22606123.897 9 -17343925.97048  20266182.046    20266186.4274
  22521343.837   -10168362.694 8  -7904254.77746  22521348.468    22521353.9034
 00  6 30  0  6  0.0000000  0  6 29 05 26 30 09 07
  22770618.747    -1199058.067 8   -916566.03746  22770617.483    22770624.0144
  20884009.405   -18962634.766 9 -14760319.57147  20884011.281    20884015.6684
  24191780.215     4182889.104 8   3277823.48945  24191786.056    24191793.2304
  23658809.302    -4687024.378 8  -3630885.11345  23658814.268    23658820.2984
  20271391.624   -22578741.423 9 -17322588.97748  20271392.646    20271397.1674
  22531863.122   -10113092.656 8  -7861187.24246  22531866.206    22531870.9224
 00  6 30  0  6 30.0000000  0  6 29 05 26 30 09 07
  22757736.978    -1266747.407 8   -969310.88046  22757736.987    22757743.1214
  20873211.921   -19019371.597 9 -14804530.04847  20873214.487    20873218.9394
  24213049.380     4294634.064 8   3364897.39945  24213050.855    24213057.3614
  23639373.321    -4789202.892 8  -3710504.62945  23639370.902    23639375.9774
  20276687.852   -22550904.192 9 -17300897.62448  20276689.896    20276694.2854
  22542467.877   -10057374.621 8  -7817770.64746  22542468.423    22542474.3374
 00  6 30  0  7  0.0000000  0  6 29 05 26 30 09 07
  22744932.791    -1333999.400 8  -1021714.97346  22744939.427    22744945.7164
  20862488.475   -19075733.736 9 -14848448.58047  20862489.159    20862494.0634
  24234323.059     4406452.838 8   3452028.78045  24234328.810    24234337.4794
  23619956.274    -4891227.217 8  -3790003.93945  23619956.075    23619962.5304
  20282070.756   -22522612.440 9 -17278852.10148  20282073.072    20282077.8004
  22553155.087   -10001210.261 8  -7774006.22946  22553156.790    22553162.0404
 00  6 30  0  7 30.0000000  0  6 29 05 26 30 09 07
  22732223.304    -1400811.821 8  -1073776.55646  22732225.199    22732230.7324
  20851830.954   -19131720.707 9 -14892074.76147  20851835.032    20851840.3884
  24255613.681     4518342.983 7   3539215.78645  24255620.901    24255628.6754
  23600559.326    -4993096.120 8  -3869382.18745  23600569.089    23600577.2824
  20287541.938   -22493866.452 9 -17256452.63048  20287543.585    20287548.1164
  22563926.157    -9944601.482 8  -7729895.53246  22563928.571    22563935.0904
 00  6 30  0  8  0.0000000  0  6 29 05 26 30 09 07
  22719594.229    -1467182.265 8  -1125493.72146  22719595.348    22719602.0684
  20841251.264   -19187331.777 9 -14935408.03947  20841252.835    20841258.2154
  24276919.651     4630302.395 7   3626456.78145  24276926.213    24276933.6084
  23581212.596    -5094808.429 8  -3948638.41446  23581214.262    23581222.9454
  20293097.873   -22464666.431 9 -17233699.36448  20293099.824    20293104.6404
  22574783.020    -9887550.162 9  -7685440.01847  22574786.009    22574792.0464
 00  6 30  0  8 30.0000000  0  6 29 05 26 30 09 07
  22707048.649    -1533108.630 8  -1176864.85046  22707050.872    22707056.4474
  20830737.915   -19242566.212 9 -14978447.83147  20830741.836    20830746.9104
  24298240.147     4742328.596 8   3713749.82445  24298244.907    24298252.1374
  23561887.408    -5196362.743 8  -4027771.52746  23561890.583    23561897.2564
  20298741.381   -22435012.846 9 -17210592.66648  20298742.806    20298747.1904
  22585721.301    -9830058.211 8  -7640641.12347  22585725.854    22585732.6314
 00  6 30  0  9  0.0000000  0  6 29 05 26 30 09 07
  22694587.670    -1598588.707 8  -1227888.24846  22694589.186    22694595.6834
  20820302.617   -19297423.138 9 -15021193.46647  20820303.245    20820307.9714
  24319574.904     4854419.464 8   3801093.25245  24319575.195    24319581.6774
  23542592.137    -5297758.021 8  -4106780.72246  23542595.344    23542602.9854
  20304468.762   -22404906.079 9 -17187132.85648  20304471.853    20304476.7794
  22596746.617    -9772127.432 8  -7595500.30547  22596749.328    22596756.6874
 00  6 30  0  9 30.0000000  0  6 29 05 26 30 09 07
  22682209.479    -1663620.315 8  -1278562.16546  22682214.192    22682221.1844
  20809933.991   -19351902.168 9 -15063644.64847  20809935.675    20809940.2824
  24340916.140     4966572.569 7   3888485.19045  24340916.749    24340925.4184
  23523332.036    -5398992.935 8  -4185664.97946  23523330.745    23523337.9484
  20310286.407   -22374346.523 9 -17163320.21648  20310287.596    20310291.9204
  22607853.352    -9713759.762 8  -7550019.04847  22607856.802    22607863.2114
 00  6 30  0 10  0.0000000  0  6 29 05 26 30 09 07
  22669922.154    -1728201.237 8  -1328884.90146  22669924.768    22669931.2234
  20799639.261   -19406002.582 9 -15105800.79047  20799640.672    20799645.8514
  24362269.536     5078785.560 7   3975923.74445  24362269.974    24362277.1294
  23504098.633    -5500066.374 8  -4264423.42346  23504097.184    23504103.4074
  20316186.594   -22343334.521 9 -17139155.01948  20316188.739    20316193.1474
  22619041.087    -9654957.025 8  -7504198.78946  22619045.787    22619053.1394
 00  6 30  0 10 30.0000000  0  6 29 05 26 30 09 07
  22657720.168    -1792329.359 8  -1378854.80746  22657722.882    22657727.1944
  20789417.450   -19459723.492 9 -15147661.22147  20789418.211    20789423.2634
  24383625.221     5191056.273 7   4063407.33145  24383633.934    24383641.5694
  23484888.321    -5600977.187 8  -4343055.12246  23484894.524    23484899.8784
  20322173.281   -22311870.308 9 -17114637.44948  20322176.167    20322180.6874
  22630316.588    -9595721.269 8  -7458041.09646  22630319.341    22630324.0604
 00  6 30  0 11  0.0000000  0  6 29 05 26 30 09 07
  22645602.287    -1856002.468 8  -1428470.16446  22645605.370    22645610.5604
  20779265.731   -19513064.420 9 -15189225.54747  20779267.875    20779272.8174
  24405005.490     5303382.362 7   4150934.01445  24405010.912    24405016.5004
  23465733.091    -5701723.794 8  -4421558.86146  23465722.398    23465728.3274
  20328245.217   -22279954.080 9 -17089767.65948  20328249.752    20328253.8984
  22641670.136    -9536054.307 8  -7411547.38646  22641673.086    22641678.5454
 00  6 30  0 11 30.0000000  0  6 29 05 26 30 09 07
  22633576.081    -1919218.610 8  -1477729.43546  22633575.823    22633582.2494
  20769187.071   -19566024.683 9 -15230493.26547  20769189.497    20769194.6204
  24426391.705     5415761.539 7   4238502.08645  24426396.686    24426400.0234
  23446578.209    -5802305.307 8  -4499933.95946  23446582.282    23446588.4474
  20334406.380   -22247586.577 9 -17064546.23148  20334408.873    20334413.4134
  22653110.894    -9475958.133 8  -7364719.24546  22653109.392    22653115.4764
 00  6 30  0 12  0.0000000  0  6 29 05 26 30 09 07
  22621628.004    -1981975.465 8  -1526630.82146  22621633.115    22621639.6774
  20759182.564   -19618603.437 9 -15271463.69447  20759184.553    20759189.4054
  24447780.306     5528191.353 7   4326109.64944  24447790.560    24447796.4764
  23427469.605    -5902720.390 8  -4578179.36646  23427473.084    23427480.1824
  20340651.405   -22214768.079 9 -17038973.37648  20340654.116    20340658.5534
  22664623.960    -9415434.669 8  -7317558.16346  22664625.575    22664632.3244
 00  6 30  0 12 30.0000000  0  6 29 05 26 30 09 07
  22609774.172    -2044270.881 8  -1575172.65246  22609778.457    22609784.6994
  20749248.374   -19670800.291 9 -15312136.55747  20749251.538    20749256.8924
  24469197.600     5640669.792 7   4413755.12944  24469193.002    24469201.9704
  23408394.430    -6002967.827 8  -4656294.14646  23408397.957    23408404.6334
  20346981.513   -22181498.887 9 -17013049.33448  20346984.925    20346989.3414
  22676222.240    -9354485.877 8  -7270065.62746  22676224.052    22676230.7294
 00  6 30  0 13  0.0000000  0  6 29 05 26 30 09 07
  22598011.774    -2106102.841 8  -1623353.35946  22598013.022    22598018.1574
  20739390.733   -19722614.510 9 -15352511.25747  20739391.359    20739396.4974
  24490617.195     5753194.423 7   4501436.49744  24490603.111    24490615.5664
  23389346.108    -6103046.647 8  -4734277.54146  23389352.853    23389359.0484
  20353400.595   -22147779.524 9 -16986774.50048  20353402.076    20353405.8464
  22687899.409    -9293113.700 8  -7222243.20246  22687903.248    22687909.4964
 00  6 30  0 13 30.0000000  0  5 29 05 30 09 07
  22586330.977    -2167469.292 8  -1671171.31646  22586334.533    22586341.4134
  20729602.071   -19774045.613 9 -15392587.40547  20729604.508    20729609.4284
  23370344.059    -6202955.380 8  -4812128.40646  23370342.255    23370347.3114
  20359900.548   -22113610.293 9 -16960149.12448  20359903.784    20359908.5434
  22699659.769    -9231319.933 8  -7174092.27646  22699661.838    22699667.9504
 00  6 30  0 14  0.0000000  0  5 29 05 30 09 07
  22574740.131    -2228367.996 8  -1718624.78846  22574746.183    22574752.8464
  20719888.957   -19825093.047 9 -15432364.61047  20719891.097    20719895.4484
  23351362.787    -6302692.819 8  -4889845.79746  23351361.983    23351367.4224
  20366489.741   -22078991.564 9 -16933173.48848  20366491.557    20366495.9804
  22711499.434    -9169106.789 8  -7125614.53546  22711501.361    22711507.7034
 00  6 30  0 14 30.0000000  0  5 29 05 30 09 07
  22563244.537    -2288796.931 8  -1765712.25046  22563246.393    22563253.2594
  20710248.149   -19875755.896 9 -15471842.14147  20710249.507    20710255.5034
  23332414.969    -6402257.821 8  -4967428.79446  23332415.690    23332420.9514
  20373161.950   -22043923.852 9 -16905847.99948  20373164.880    20373169.1504
  22723418.485    -9106476.139 8  -7076811.49146  22723419.038    22723425.2554
 00  6 30  0 15  0.0000000  0  5 29 05 30 09 07
  22551833.146    -2348754.061 8  -1812432.02945  22551836.872    22551842.1794
  20700680.459   -19926033.572 9 -15511019.53547  20700682.252    20700687.7434
  23313500.039    -6501649.247 8  -5044876.59246  23313501.022    23313507.4074
  20379920.023   -22008407.637 9 -16878173.03248  20379923.347    20379927.9464
  22735412.467    -9043429.935 8  -7027684.63546  22735416.367    22735422.6184
 00  6 30  0 15 30.0000000  0  5 29 05 30 09 07
  22540519.584    -2408237.269 8  -1858782.53346  22540519.598    22540523.5764
  20691184.281   -19975925.516 9 -15549896.35247  20691187.702    20691193.2634
  23294616.717    -6600865.930 8  -5122188.21946  23294621.165    23294627.9594
  20386765.266   -21972443.556 9 -16850149.06548  20386767.235    20386771.5134
  22747488.720    -8979970.370 8  -6978235.66646  22747492.149    22747499.3854
 00  6 30  0 16  0.0000000  0  5 29 05 30 09 07
  22529276.439    -2467244.607 8  -1904762.22745  22529288.383    22529294.6084
  20681763.807   -20025430.962 9 -15588472.00747  20681767.361    20681772.7024
  23275779.082    -6699906.710 8  -5199362.75546  23275774.607    23275779.4834
  20393694.144   -21936031.916 9 -16821776.36548  20393695.889    20393700.7444
  22759645.924    -8916099.191 8  -6928465.94846  22759646.701    22759653.1384
 00  6 30  0 16 30.0000000  0  5 29 05 30 09 07
  22518154.418    -2525773.804 8  -1950369.33246  22518152.385    22518157.7304
  20672416.264   -20074549.541 9 -15626746.21447  20672420.077    20672425.7474
  23256961.673    -6798770.217 8  -5276399.14646  23256961.361    23256966.7914
  20400707.913   -21899173.054 9 -16793055.17948  20400710.085    20400714.9464
  22771877.667    -8851818.615 8  -6878377.23646  22771879.433    22771885.1894
 00  6 30  0 17  0.0000000  0  5 29 05 30 09 07
  22507102.035    -2583823.101 8  -1995602.51346  22507105.420    22507111.4174
  20663143.839   -20123280.660 9 -15664718.48947  20663147.109    20663152.3744
  23238179.652    -6897455.317 8  -5353296.55046  23238181.686    23238188.2954
  20407806.260   -21861867.545 9 -16763985.94248  20407808.458    20407813.6824
  22784190.518    -8787130.590 8  -6827971.05346  22784189.760    22784195.6584
 00  6 30  0 17 30.0000000  0  5 29 05 30 09 07
  22496143.145    -2641390.556 8  -2040460.24846  22496150.365    22496156.1224
  20653946.572   -20171623.710 9 -15702388.38147  20653948.015    20653952.2754
  23219439.248    -6995961.043 8  -5430054.14346  23219437.154    23219442.8104
  20414991.719   -21824115.912 9 -16734569.09148  20414993.323    20414997.4564
  22796572.673    -8722037.170 8  -6777248.95746  22796575.176    22796581.6674
 00  6 30  0 18  0.0000000  0  5 29 05 30 09 07
  22485284.273    -2698473.892 8  -2084940.71546  22485287.842    22485294.7064
  20644821.941   -20219578.155 9 -15739755.46547  20644822.698    20644826.8704
  23200726.285    -7094285.755 8  -5506670.74046  23200727.086    23200732.5644
  20422257.182   -21785918.782 9 -16704805.09148  20422261.370    20422266.3464
  22809026.453    -8656540.188 8  -6726212.39346  22809037.976    22809045.2804
 00  6 30  0 18 30.0000000  0  5 29 05 30 09 07
  22474512.339    -2755071.334 8  -2129042.57546  22474516.632    22474523.8104
  20635768.490   -20267143.532 9 -15776819.37647  20635770.701    20635775.7014
  23182046.653    -7192428.481 8  -5583145.52546  23182049.611    23182055.2524
  20429612.555   -21747276.595 9 -16674694.29248  20429614.527    20429619.1934
  22821577.584    -8590642.002 8  -6674863.21946  22821579.029    22821585.9964
 00  6 30  0 19  0.0000000  0  5 29 05 30 09 07
  22463833.640    -2811180.840 8  -2172764.23546  22463840.233    22463846.1794
  20626792.151   -20314319.336 9 -15813579.72148  20626793.755    20626798.8584
  23163405.456    -7290387.991 8  -5659477.53846  23163408.818    23163414.2574
  20437049.646   -21708189.813 9 -16644237.06348  20437052.480    20437056.9934
  22834191.282    -8524344.440 8  -6623202.81146  22834195.150    22834202.0704
 00  6 30  0 19 30.0000000  0  5 29 05 30 09 07
  22453253.497    -2866800.479 8  -2216104.16446  22453256.213    22453262.6264
  20617888.361   -20361104.804 9 -15850035.90648  20617890.977    20617895.9884
  23144800.821    -7388163.191 8  -5735665.90246  23144802.293    23144808.0704
  20444572.567   -21668659.105 9 -16613433.91448  20444574.676    20444579.8884
  22846887.023    -8457649.661 8  -6571232.91846  22846887.181    22846893.6934
 00  6 30  0 20  0.0000000  0  5 29 05 30 09 07
  22442761.434    -2921928.250 8  -2259060.83146  22442766.078    22442770.6474
  20609062.585   -20407499.328 9 -15886187.46848  20609062.779    20609067.0394
  23126228.991    -7485752.749 8  -5811709.64746  23126231.772    23126237.8274
  20452178.014   -21628685.090 9 -16582285.33948  20452181.371    20452186.3264
  22859649.139    -8390559.656 8  -6518955.04646  22859653.388    22859660.9304
 00  6 30  0 20 30.0000000  0  5 29 05 30 09 07
  22432367.399    -2976562.273 8  -2301632.76646  22432368.805    22432375.3534
  20600307.403   -20453502.321 9 -15922033.93948  20600308.567    20600312.6784
  23107698.098    -7583155.596 8  -5887607.86446  23107696.071    23107702.8094
  20459870.189   -21588268.297 9 -16550791.73348  20459872.516    20459877.5864
  22872492.244    -8323076.469 8  -6466370.80446  22872494.837    22872502.9844
 00  6 30  0 21  0.0000000  0  5 29 05 30 09 07
  22422060.347    -3030700.635 8  -2343818.42446  22422066.331    22422072.8264
  20591628.405   -20499113.378 9 -15957575.00048  20591628.986    20591633.3044
  23089195.712    -7680370.518 8  -5963359.65546  23089197.217    23089203.1614
  20467645.991   -21547409.010 9 -16518953.33048  20467648.123    20467652.8404
  22885409.542    -8255202.420 8  -6413481.96946  22885411.323    22885418.5814
 00  6 30  0 21 30.0000000  0  5 29 05 30 09 07
  22411856.912    -3084341.270 8  -2385616.28546  22411858.223    22411865.2534
  20583022.776   -20544332.166 9 -15992810.38848  20583024.032    20583028.3894
  23070736.031    -7777396.425 8  -6038964.19346  23070733.440    23070739.4014
  20475504.246   -21506107.929 9 -16486770.67148  20475507.099    20475512.0304
  22898393.993    -8186939.305 8  -6360289.99146  22898400.625    22898407.9604
 00  6 30  0 22  0.0000000  0  5 29 05 30 09 07
  22401744.795    -3137482.428 8  -2427024.93846  22401746.844    22401752.6024
  20574491.530   -20589157.969 9 -16027739.56548  20574493.637    20574499.1774
  23052302.313    -7874231.806 8  -6114420.26746  23052306.031    23052312.6814
  20483448.904   -21464365.594 9 -16454244.18548  20483450.664    20483454.9354
  22911459.816    -8118289.413 8  -6306796.62046  22911465.831    22911472.5274
 00  6 30  0 22 30.0000000  0  5 29 05 30 09 07
  22391728.803    -3190122.249 8  -2468042.92246  22391729.494    22391735.3174
  20566035.226   -20633590.264 9 -16062362.10748  20566038.429    20566043.6844
  23033914.299    -7970875.719 8  -6189727.11646  23033915.442    23033921.6204
  20491474.481   -21422182.622 9 -16421374.33448  20491477.825    20491482.4364
  22924601.177    -8049254.660 8  -6253003.35946  22924602.141    22924609.5884
 00  6 30  0 23  0.0000000  0  5 29 05 30 09 07
  22381802.318    -3242258.801 8  -2508668.80846  22381809.089    22381813.5144
  20557657.185   -20677628.752 9 -16096677.79548  20557658.103    20557663.0194
  23015556.760    -8067327.337 8  -6264884.15146  23015560.981    23015566.8424
  20499587.355   -21379559.747 9 -16388161.70648  20499589.194    20499593.4804
  22937805.721    -7979837.382 8  -6198912.02846  22937812.067    22937819.5164
 00  6 30  0 23 30.0000000  0  5 29 05 30 09 07
  22371981.767    -3293890.324 8  -2548901.12946  22371982.723    22371989.0474
  20549351.962   -20721272.872 9 -16130686.18348  20549352.679    20549357.9554
  22997243.915    -8163584.980 8  -6339890.04446  22997245.940    22997250.2874
  20507780.396   -21336497.683 9 -16354606.85248  20507783.019    20507787.4814
  22951093.229    -7910039.497 8  -6144524.12446  22951094.034    22951101.2024
 00  6 30  0 24  0.0000000  0  5 29 05 30 09 07
  22362248.237    -3345014.697 8  -2588738.23846  22362253.718    22362260.6624
  20541120.191   -20764521.940 9 -16164386.74148  20541122.739    20541128.0784
  22978964.754    -8259647.731 8  -6414744.06046  22978964.905    22978969.6654
  20516059.913   -21292996.918 9 -16320710.15048  20516061.583    20516065.9894
  22964449.487    -7839863.162 8  -6089841.33646  22964448.102    22964455.4604
 00  6 30  0 24 30.0000000  0  5 29 05 30 09 07
  22352617.197    -3395630.608 8  -2628179.17546  22352622.967    22352628.6694
  20532966.202   -20807375.579 9 -16197779.16148  20532968.025    20532973.3334
  22960719.497    -8355513.997 8  -6489444.96346  22960721.170    22960726.6094
  20524421.468   -21249058.098 9 -16286472.11748  20524422.541    20524427.3684
  22977872.778    -7769310.591 8  -6034865.34546  22977873.998    22977880.7064
 00  6 30  0 25  0.0000000  0  5 29 05 30 09 07
  22343089.695    -3445735.854 8  -2667222.19846  22343088.605    22343093.7004
  20524883.057   -20849833.479 9 -16230863.22648  20524888.094    20524893.6884
  22942512.994    -8451182.716 8  -6563991.94646  22942516.696    22942522.2004
  20532863.679   -21204681.777 9 -16251893.15248  20532866.714    20532871.5714
  22991367.145    -7698383.706 8  -5979597.70946  22991371.536    22991377.5844
 00  6 30  0 25 30.0000000  0  5 29 05 30 09 07
  22333649.506    -3495328.831 8  -2705866.04246  22333651.211    22333655.9214
  20516883.346   -20891895.141 9 -16263638.53748  20516884.428    20516889.8114
  22924345.113    -8546652.883 8  -6638384.21446  22924348.866    22924354.0154
  20541393.456   -21159868.619 9 -16216973.82048  20541394.694    20541399.5574
  23004936.489    -7627084.832 8  -5924040.19646  23004939.865    23004946.1334
 00  6 30  0 26  0.0000000  0  5 29 05 30 09 07
  22324306.759    -3544407.647 8  -2744109.23746  22324311.410    22324317.4524
  20508953.370   -20933560.030 9 -16296104.66648  20508955.720    20508960.9434
  22906215.047    -8641923.484 8  -6712620.95846  22906219.495    22906224.8854
  20550001.816   -21114619.184 9 -16181714.52248  20550005.156    20550010.1264
  23018577.500    -7555416.002 8  -5868194.40146  23018577.686    23018584.1034
 00  6 30  0 26 30.0000000  0  5 29 05 30 09 07
  22315068.331    -3592970.617 8  -2781950.47046  22315070.494    22315075.4964
  20501100.427   -20974827.653 9 -16328261.23748  20501103.067    20501108.0854
  22888125.456    -8736993.170 8  -6786701.17446  22888127.863    22888133.6724
  20558697.184   -21068934.372 9 -16146115.96948  20558698.908    20558703.6114
  23032282.900    -7483379.358 8  -5812061.99646  23032285.807    23032291.0604
 00  6 30  0 27  0.0000000  0  5 29 05 30 09 07
  22305925.969    -3641016.089 8  -2819388.44846  22305926.687    22305932.9174
  20493323.475   -21015697.581 9 -16360107.93048  20493325.610    20493330.9214
  22870074.528    -8831860.738 8  -6860623.85446  22870075.803    22870080.6784
  20567471.835   -21022815.003 9 -16110178.78948  20567475.205    20567480.0944
  23046062.058    -7410977.012 8  -5755644.65246  23046062.468    23046069.7554
 00  6 30  0 27 30.0000000  0  5 29 05 30 09 07
  22296882.949    -3688542.115 8  -2856421.69546  22296884.186    22296889.3434
  20485619.108   -21056169.426 9 -16391644.42148  20485623.681    20485628.9534
  22852059.863    -8926524.968 8  -6934388.16546  22852061.863    22852066.9444
  20576330.365   -20976261.854 9 -16073903.61448  20576333.892    20576338.5874
  23059906.151    -7338211.258 8  -5698944.12146  23059910.419    23059916.5374
 00  6 30  0 28  0.0000000  0  5 29 05 30 09 07
  22287935.459    -3735547.033 8  -2893048.89446  22287939.235    22287944.3074
  20477996.832   -21096242.720 9 -16422870.34648  20477998.409    20478002.8764
  22834087.706    -9020984.817 8  -7007993.17646  22834087.016    22834091.4554
  20585272.005   -20929275.297 9 -16037290.71548  20585275.015    20585279.3994
  23073826.484    -7265084.126 8  -5641961.99346  23073825.733    23073831.8874
 00  6 30  0 28 30.0000000  0  5 29 05 30 09 07
  22279090.901    -3782029.339 8  -2929268.83646  22279093.182    22279098.6714
  20470444.706   -21135916.999 9 -16453785.37048  20470448.295    20470453.2794
  22816147.376    -9115239.009 8  -7081437.94646  22816150.077    22816155.0464
  20594295.391   -20881856.086 9 -16000340.68648  20594298.864    20594303.4314
  23087809.767    -7191597.779 8  -5584699.97046  23087808.529    23087816.7024
 00  6 30  0 29  0.0000000  0  5 29 05 30 09 07
  22270344.117    -3827987.164 8  -2965080.08646  22270348.308    22270353.1464
  20462973.071   -21175191.670 9 -16484389.00348  20462974.835    20462979.6684
  22798252.087    -9209286.556 8  -7154721.66246  22798253.791    22798258.9684
  20603401.890   -20834005.055 9 -15963054.17048  20603404.460    20603408.9804
  23101861.761    -7117754.406 8  -5527159.75346  23101861.322    23101868.1564
 00  6 30  0 29 30.0000000  0  5 29 05 30 09 07
  22261700.655    -3873418.917 8  -3000481.37946  22261702.151    22261707.5914
  20455574.404   -21214066.482 9 -16514681.05048  20455576.777    20455582.3064
  22780397.688    -9303126.124 8  -7227843.32546  22780396.815    22780401.8404
  20612589.197   -20785722.683 9 -15925431.54248  20612592.091    20612596.5054
  23115974.422    -7043556.200 8  -5469343.03346  23115980.470    23115987.3584
 00  6 30  0 30  0.0000000  0  5 29 05 30 09 07
  22253155.496    -3918322.930 8  -3035471.49546  22253157.619    22253162.5944
  20448254.178   -21252541.082 9 -16544661.23948  20448255.631    20448260.4564
  22762576.423    -9396756.647 8  -7300802.13346  22762579.533    22762584.5774
  20621859.649   -20737009.954 9 -15887473.57148  20621862.153    20621866.8134
  23130165.433    -6969005.162 8  -5411251.36646  23130167.562    23130173.6664
 00  6 30  0 30 30.0000000  0  5 29 05 30 09 07
  22244711.695    -3962697.538 8  -3070049.04646  22244713.300    22244718.5244
  20441008.732   -21290615.275 9 -16574329.42548  20441010.338    20441015.3574
  22744796.739    -9490176.833 8  -7373597.02346  22744801.694    22744807.0984
  20631212.009   -20687867.504 9 -15849180.76148  20631213.890    20631218.2264
  23144419.299    -6894103.779 8  -5352886.70946  23144421.314    23144427.8884
 00  6 30  0 31  0.0000000  0  5 29 05 30 09 07
  22236370.724    -4006541.172 8  -3104212.88446  22236369.583    22236374.9044
  20433839.527   -21328288.592 9 -16603685.24848  20433841.234    20433846.3344
  22727063.481    -9583385.537 8  -7446227.11146  22727065.010    22727070.8254
  20640644.492   -20638295.937 9 -15810553.56648  20640647.325    20640651.2644
  23158742.499    -6818853.971 8  -5294250.55446  23158740.493    23158747.2844
 00  6 30  0 31 30.0000000  0  5 29 05 30 09 07
  22228122.981    -4049852.248 8  -3137961.71246  22228128.546    22228134.1074
  20426745.895   -21365560.634 9 -16632728.38848  20426748.604    20426754.0624
  22709366.403    -9676381.734 8  -7518691.62946  22709368.834    22709374.5854
  20650159.795   -20588296.224 9 -15771592.75248  20650161.734    20650166.1834
  23173127.021    -6743258.031 8  -5235344.67046  23173125.658    23173132.4614
 00  6 30  0 32  0.0000000  0  5 29 05 30 09 07
  22219985.709    -4092629.090 8  -3171294.26246  22219988.312    22219994.0494
  20419732.226   -21402430.812 9 -16661458.37848  20419732.822    20419737.9554
  22691712.827    -9769164.394 8  -7590989.71146  22691712.413    22691717.8904
  20659753.710   -20537869.340 9 -15732299.07548  20659757.328    20659761.7004
  23187570.603    -6667318.143 8  -5176170.78246  23187576.840    23187584.1944
 00  6 30  0 32 30.0000000  0  5 29 05 30 09 07
  22211946.297    -4134870.141 8  -3204209.32146  22211949.670    22211955.0004
  20412790.493   -21438898.613 9 -16689874.83048  20412793.656    20412798.0584
  22674097.468    -9861732.036 8  -7663120.26446  22674097.590    22674102.0024
  20669432.886   -20487016.014 9 -15692673.11048  20669434.985    20669439.1404
  23202095.296    -6591036.542 8  -5116730.63746  23202093.246    23202100.1604
 00  6 30  0 33  0.0000000  0  5 29 05 30 09 07
  22204010.424    -4176573.934 8  -3236705.74146  22204013.719    22204019.1194
  20405926.147   -21474963.738 9 -16717977.51948  20405930.321    20405934.7604
  22656525.167    -9954083.584 8  -7735082.44246  22656523.048    22656527.7354
  20679190.158   -20435736.853 9 -15652715.33148  20679192.255    20679197.1564
  23216667.490    -6514415.295 8  -5057025.82446  23216673.513    23216680.2954
 00  6 30  0 33 30.0000000  0  5 29 05 30 09 07
  22196178.893    -4217738.999 8  -3268782.38546  22196179.722    22196185.2464
  20399142.235   -21510626.084 9 -16745766.34448  20399143.667    20399148.3064
  22638985.020   -10046217.933 8  -7806875.37846  22638990.305    22638995.4924
  20689028.080   -20384032.832 9 -15612426.47548  20689031.211    20689035.8454
  23231319.502    -6437456.694 8  -4997058.13546  23231318.720    23231325.5704
 00  6 30  0 34  0.0000000  0  5 29 05 30 09 07
  22188445.684    -4258363.602 8  -3300437.89146  22188449.658    22188454.4894
  20392431.041   -21545885.360 9 -16773241.09148  20392434.130    20392438.7474
  22621498.208   -10138133.810 8  -7878498.09246  22621500.211    22621504.3664
  20698947.700   -20331904.598 9 -15571807.08848  20698951.089    20698955.8194
  23246021.039    -6360162.899 8  -4936829.26046  23246027.190    23246033.6764
 00  6 30  0 34 30.0000000  0  5 29 05 30 09 07
  22180817.348    -4298446.485 8  -3331671.26846  22180822.019    22180827.7994
  20385800.960   -21580741.234 9 -16800401.49948  20385801.857    20385805.9664
  22604049.950   -10229830.367 8  -7949949.84946  22604049.764    22604055.4764
  20708948.820   -20279352.916 9 -15530857.73048  20708950.893    20708955.3874
  23260794.009    -6282536.123 8  -4876340.91946  23260797.705    23260805.9054
 00  6 30  0 35  0.0000000  0  5 29 05 30 09 07
  22173295.043    -4337985.993 8  -3362481.23946  22173297.467    22173303.5454
  20379242.897   -21615193.128 9 -16827247.11548  20379245.375    20379250.2394
  22586638.451   -10321306.077 8  -8021229.54646  22586641.721    22586647.5664
  20719027.120   -20226378.766 9 -15489579.17848  20719031.505    20719036.4224
  23275631.524    -6204578.431 8  -4815594.73846  23275632.100    23275640.9254
 00  6 30  0 35 30.0000000  0  5 29 05 30 09 07
  22165876.922    -4376980.866 8  -3392866.84446  22165877.266    22165882.7034
  20372764.431   -21649240.830 9 -16853777.77348  20372766.097    20372771.1424
  22569275.505   -10412559.908 8  -8092336.33346  22569277.090    22569282.4764
  20729190.926   -20172982.924 9 -15447972.03848  20729192.430    20729197.4634
  23290527.096    -6126292.281 8  -4754592.61546  23290530.237    23290537.8174
 00  6 30  0 36  0.0000000  0  5 29 05 30 09 07
  22158553.096    -4415429.385 8  -3422826.68646  22158560.943    22158565.9844
  20366361.340   -21682883.941 9 -16879993.16148  20366364.008    20366368.8744
  22551954.670   -10503590.695 8  -8163269.36046  22551954.963    22551960.1644
  20739429.766   -20119166.463 9 -15406037.13848  20739433.382    20739438.2894
  23305488.216    -6047679.749 8  -4693336.16846  23305489.718    23305497.3774
 00  6 30  0 36 30.0000000  0  5 29 05 30 09 07
  22151345.582    -4453330.378 8  -3452359.88946  22151348.536    22151353.9904
  20360036.937   -21716122.183 9 -16905893.08448  20360039.414    20360043.6854
  22534672.486   -10594397.550 8  -8234027.88046  22534674.733    22534680.3954
  20749751.309   -20064930.132 9 -15363775.06648  20749754.326    20749759.1134
  23320514.180    -5968743.049 8  -4631827.11346  23320512.304    23320518.5354
 00  6 30  0 37  0.0000000  0  5 29 05 30 09 07
  22144238.300    -4490682.289 8  -3481465.23146  22144240.196    22144245.7104
  20353789.686   -21748955.121 9 -16931477.18348  20353791.514    20353796.0694
  22517437.374   -10684979.129 8  -8304610.85146  22517438.001    22517441.4044
  20760152.726   -20010274.727 9 -15321186.44548  20760155.364    20760159.7134
  23335589.731    -5889484.401 8  -4570067.17946  23335594.392    23335600.1664
 00  6 30  0 37 30.0000000  0  5 29 05 30 09 07
  22137233.909    -4527483.815 8  -3510141.70146  22137238.450    22137242.8774
  20347617.737   -21781382.795 9 -16956745.48448  20347620.560    20347625.4194
  22500243.142   -10775334.250 8  -8375017.39046  22500244.265    22500248.4224
  20770633.427   -19955201.070 9 -15278271.91848  20770635.831    20770639.8014
  23350738.876    -5809906.043 8  -4508058.12046  23350737.225    23350744.3414
 00  6 30  0 38  0.0000000  0  5 29 05 30 09 07
  22130338.745    -4563733.550 8  -3538388.20646  22130339.918    22130345.5954
  20341523.733   -21813404.738 9 -16981697.63748  20341526.837    20341531.9714
  22483090.356   -10865461.764 8  -8445246.54546  22483093.719    22483098.0454
  20781191.991   -19899710.342 9 -15235032.38748  20781194.658    20781199.5774
  23365928.745    -5730010.212 8  -4445801.70846  23365940.160    23365948.1704
 00  6 30  0 38 30.0000000  0  5 29 05 30 09 07
  22123545.405    -4599430.186 8  -3566203.73446  22123546.279    22123551.9704
  20335509.546   -21845020.657 9 -17006333.41548  20335510.621    20335514.9034
  22465985.890   -10955360.498 8  -8515297.44046  22465986.278    22465991.1514
  20791832.479   -19843803.223 9 -15191468.40748  20791834.072    20791838.3194
  23381205.753    -5649799.104 8  -4383299.62046  23381205.027    23381212.0024
 00  6 30  0 39  0.0000000  0  5 29 05 30 09 07
  22116857.035    -4634572.406 8  -3593587.23246  22116859.322    22116864.6324
  20329569.579   -21876230.111 9 -17030652.45948  20329571.820    20329575.8104
  22448917.854   -11045029.372 8  -8585169.19346  22448920.990    22448927.3364
  20802549.935   -19787480.558 9 -15147580.61348  20802551.519    20802556.6574
  23396524.565    -5569274.965 8  -4320553.56546  23396528.771    23396536.1914
 00  6 30  0 39 30.0000000  0  5 29 05 30 09 07
  22110273.769    -4669158.766 8  -3620537.60946  22110277.787    22110283.0694
  20323705.633   -21907032.921 9 -17054654.63348  20323709.404    20323714.6294
  22431899.907   -11134466.974 8  -8654860.75746  22431902.128    22431907.9474
  20813344.169   -19730743.391 9 -15103369.84548  20813348.237    20813352.7084
  23411911.514    -5488440.007 8  -4257565.34546  23411910.502    23411919.0094
 00  6 30  0 40  0.0000000  0  6 29 05 30 09 04 07
  22103797.867    -4703188.146 8  -3647053.95946  22103801.886    22103807.2504
  20317922.387   -21937429.016 9 -17078339.89148  20317925.270    20317930.5494
  22414924.867   -11223672.667 8  -8724371.62646  22414926.688    22414931.8864
  20824220.283   -19673592.668 9 -15058836.82348  20824223.665    20824228.5214
  23809317.071      -77221.34318
  23427343.189    -5407296.454 8  -4194336.67946  23427351.272    23427360.0474
 00  6 30  0 40 30.0000000  0  6 29 05 30 09 04 07
  22097427.632    -4736659.302 8  -3673135.33346  22097432.518    22097438.0314
  20312216.673   -21967417.983 9 -17101707.89848  20312219.147    20312223.7034
  22397996.301   -11312645.022 8  -8793700.64746  22397995.405    22398001.3524
  20835177.037   -19616029.383 9 -15013982.32848  20835177.988    20835182.5494
  23796564.321     -144215.153 8    -87703.50555  23796572.581    23796576.2194
  23442850.614    -5325846.503 8  -4130869.26846  23442851.199    23442859.4454
 00  6 30  0 41  0.0000000  0  6 29 05 30 09 04 07
  22091168.252    -4769570.683 8  -3698780.53646  22091170.146    22091174.4934
  20306589.627   -21996999.538 9 -17124758.45448  20306590.173    20306594.6294
  22381107.585   -11401382.929 8  -8862847.01546  22381109.852    22381115.0524
  20846207.799   -19558054.397 9 -14968807.01347  20846209.694    20846214.1594
  23783900.822     -210806.199 8   -139592.59945  23783900.422    23783904.1844
  23458408.141    -5244092.519 8  -4067164.92646  23458408.749    23458415.8944
 00  6 30  0 41 30.0000000  0  6 29 05 30 09 04 07
  22085012.224    -4801921.355 8  -3723988.83446  22085014.072    22085019.0794
  20301035.443   -22026173.505 9 -17147491.40048  20301038.377    20301043.1844
  22364263.778   -11489885.277 8  -8931809.80846  22364267.933    22364273.0924
  20857316.995   -19499668.536 9 -14923311.55347  20857320.253    20857324.7474
  23771296.438     -276991.756 7   -191165.72045  23771304.955    23771311.2744
  23474011.576    -5162036.574 8  -4003225.31146  23474022.249    23474030.6864
 00  6 30  0 42  0.0000000  0  6 29 05 30 09 04 07
  22078962.897    -4833709.832 8  -3748759.05246  22078964.712    22078969.5494
  20295561.984   -22054939.626 9 -17169906.54748  20295564.034    20295568.8114
  22347468.125   -11578151.002 8  -9000588.23346  22347471.667    22347477.0694
  20868507.685   -19440872.747 9 -14877496.67447  20868509.126    20868513.2834
  23758789.120     -342768.865 8   -242420.58145  23758788.473    23758792.9174
  23489693.005    -5079680.950 8  -3939052.18846  23489694.253    23489703.3504
 00  6 30  0 42 30.0000000  0  6 29 05 30 09 04 07
  22073018.413    -4864935.257 8  -3773090.54146  22073022.205    22073028.3454
  20290166.111   -22083297.675 9 -17192003.71348  20290168.051    20290172.4034
  22330721.332   -11666178.941 8  -9069181.36046  22330721.265    22330726.5474
  20879771.823   -19381668.328 9 -14831363.36447  20879775.029    20879779.7464
  23746342.050     -408134.865 8   -293355.10845  23746349.275    23746356.4604
  23505425.040    -4997027.811 8  -3874647.18846  23505423.703    23505430.3064
 00  6 30  0 43  0.0000000  0  6 29 05 30 09 04 07
  22067185.349    -4895596.374 8  -3796982.29746  22067188.214    22067192.9194
  20284848.067   -22111247.468 9 -17213782.75848  20284849.678    20284854.0854
  22314014.515   -11753967.784 8  -9137588.18346  22314015.130    22314020.8424
  20891117.994   -19322056.036 9 -14784912.24847  20891119.484    20891123.1504
  23733978.957     -473087.051 7   -343967.19245  23733988.540    23733995.2614
  23521202.549    -4914079.529 8  -3810012.24046  23521207.306    23521214.1904
 00  6 30  0 43 30.0000000  0  6 29 05 30 09 04 07
  22061459.271    -4925691.832 8  -3820433.27146  22061460.836    22061466.3474
  20279606.022   -22138788.759 9 -17235243.48748  20279608.041    20279613.1424
  22297350.357   -11841516.545 8  -9205807.93546  22297355.378    22297360.2724
  20902540.570   -19262036.818 9 -14738144.02847  20902540.360    20902544.7494
  23721713.273     -537622.598 7   -394254.58945  23721707.941    23721713.1914
  23537045.336    -4830838.300 8  -3745148.98846  23537048.564    23537055.4444
 00  6 30  0 44  0.0000000  0  6 29 05 30 09 04 07
  22055838.232    -4955220.617 8  -3843442.67746  22055841.467    22055846.9784
  20274440.539   -22165921.392 9 -17256385.78448  20274444.683    20274449.7444
  22280738.297   -11928824.156 8  -9273839.77046  22280740.600    22280746.0574
  20914039.078   -19201611.791 9 -14691059.59448  20914039.422    20914043.1204
  23709501.993     -601738.777 7   -444215.18245  23709507.136    23709512.8824
  23552939.797    -4747306.297 8  -3680059.21146  23552943.595    23552951.2584
 00  6 30  0 44 30.0000000  0  6 29 05 30 09 04 07
  22050327.302    -4984181.709 8  -3866009.72946  22050330.877    22050334.8264
  20269358.743   -22192644.990 9 -17277209.35648  20269359.822    20269364.4104
  22264169.443   -12015889.583 8  -9341682.90046  22264172.055    22264178.1744
  20925612.081   -19140781.890 9 -14643659.68647  20925614.554    20925618.6924
  23697384.972     -665433.010 8   -493846.99845  23697387.156    23697391.8414
  23568891.718    -4663485.812 8  -3614744.64146  23568893.832    23568900.4854
 00  6 30  0 45  0.0000000  0  6 29 05 30 09 04 07
  22044926.261    -5012573.879 8  -3888133.46846  22044927.230    22044932.2114
  20264349.083   -22218959.368 9 -17297714.05648  20264352.271    20264356.9164
  22247648.311   -12102711.527 8  -9409336.28146  22247650.319    22247656.7104
  20937265.806   -19079548.153 9 -14595945.09447  20937266.872    20937271.4924
  23685346.703     -728702.485 7   -543147.84345  23685345.808    23685352.4344
  23584898.578    -4579379.097 8  -3549206.99246  23584899.233    23584906.7624
 00  6 30  0 45 30.0000000  0  6 29 05 30 09 04 07
  22039628.614    -5040396.115 8  -3909813.12946  22039632.853    22039638.3894
  20259419.028   -22244864.342 9 -17317899.73448  20259422.451    20259427.4844
  22231171.109   -12189288.695 8  -9476798.95646  22231175.461    22231180.9514
  20948991.626   -19017911.652 9 -14547916.66447  20948995.676    20949000.4244
  23673387.218     -791544.424 7   -592115.53545  23673389.313    23673394.6444
  23600957.613    -4494988.446 8  -3483448.07846  23600958.797    23600965.7874
 00  6 30  0 46  0.0000000  0  6 29 05 30 09 04 07
  22034444.618    -5067647.481 8  -3931047.91946  22034447.362    22034452.3624
  20254569.293   -22270359.918 9 -17337766.40048  20254570.875    20254575.9204
  22214746.779   -12275620.059 8  -9544070.08346  22214747.716    22214753.0314
  20960798.631   -18955873.402 9 -14499575.18347  20960801.093    20960806.0444
  23661509.999     -853956.350 7   -640748.14545  23661511.580    23661517.0514
  23617068.971    -4410315.970 8  -3417469.60946  23617071.675    23617079.3354
 00  6 30  0 46 30.0000000  0  6 29 05 30 09 04 07
  22029369.802    -5094326.690 8  -3951836.89747  22029371.252    22029375.7434
  20249794.476   -22295445.711 9 -17357313.75548  20249797.128    20249802.3464
  22198364.508   -12361704.902 8  -9611149.10746  22198365.631    22198370.3394
  20972680.159   -18893434.312 9 -14450921.36947  20972682.279    20972688.1074
  23649713.399     -915935.350 7   -689043.44845  23649716.798    23649722.0264
  23633239.341    -4325363.916 8  -3351273.27146  23633237.916    23633244.8494
 00  6 30  0 47  0.0000000  0  6 29 05 30 09 04 07
  22024400.717    -5120432.815 8  -3972179.32546  22024402.541    22024407.8004
  20245100.724   -22320121.401 9 -17376541.56048  20245101.597    20245106.4074
  22182029.844   -12447541.911 8  -9678035.03446  22182032.121    22182036.2724
  20984637.301   -18830595.537 9 -14401956.10047  20984640.811    20984645.7694
  23638001.546     -977479.046 8   -736999.50045  23638005.619    23638012.0144
  23649457.035    -4240134.571 8  -3284860.88046  23649456.192    23649463.9854
 00  6 30  0 47 30.0000000  0  6 29 05 30 09 04 07
  22019540.516    -5145965.046 8  -3992074.54546  22019543.691    22019548.9044
  20240482.631   -22344387.128 9 -17395449.89848  20240483.818    20240489.1874
  22165741.273   -12533129.684 8  -9744726.75546  22165744.493    22165749.7044
  20996671.127   -18767358.001 9 -14352680.12347  20996674.462    20996679.5204
  23626379.884    -1038584.661 8   -784614.25845  23626378.731    23626383.1664
  23665717.665    -4154630.186 8  -3218234.17846  23665726.725    23665734.5404
 00  6 30  0 48  0.0000000  0  6 29 05 30 09 04 07
  22014793.258    -5170922.290 8  -4011521.71547  22014795.203    22014800.1144
  20235941.974   -22368242.713 9 -17414038.65548  20235944.773    20235949.2064
  22149507.517   -12618467.122 8  -9811223.39746  22149505.995    22149510.3734
  21008781.095   -18703722.748 9 -14303094.22748  21008784.546    21008788.9444
  23614827.269    -1099249.657 8   -831885.63945  23614833.421    23614838.8564
  23682050.840    -4068852.948 8  -3151394.87846  23682050.022    23682057.6944
 00  6 30  0 48 30.0000000  0  6 29 05 30 09 04 07
  22010150.657    -5195303.571 8  -4030520.07447  22010155.597    22010161.0054
  20231478.617   -22391688.081 9 -17432307.75548  20231483.059    20231487.7444
  22133307.141   -12703553.370 8  -9877524.29946  22133313.407    22133319.8194
  21020967.859   -18639691.153 9 -14253199.48947  21020969.329    21020973.7754
  23603378.594    -1159471.302 8   -878811.56945  23603374.760    23603380.4444
  23698424.283    -3982805.129 8  -3084344.71746  23698425.527    23698431.6514
 00  6 30  0 49  0.0000000  0  6 29 05 30 09 04 07
  22005624.478    -5219107.939 8  -4049068.91946  22005625.282    22005630.0284
  20227097.779   -22414722.710 9 -17450256.80648  20227099.309    20227104.3484
  22117164.474   -12788387.262 8  -9943628.57646  22117170.405    22117176.4964
  21033226.710   -18575264.207 9 -14202996.68947  21033228.686    21033233.6514
  23591991.838    -1219246.848 7   -925389.85145  23591998.651    23592004.4724
  23714848.809    -3896489.035 8  -3017085.50846  23714850.737    23714857.5494
 00  6 30  0 49 30.0000000  0  6 29 05 30 09 04 07
  22001200.708    -5242334.617 8  -4067167.62246  22001204.661    22001210.7604
  20222790.952   -22437346.795 9 -17467885.94448  20222794.107    20222799.2224
  22101069.094   -12872967.700 8 -10009535.36546  22101074.508    22101081.7194
  21045561.633   -18510443.069 9 -14152486.72347  21045564.539    21045568.4734
  23580705.365    -1278574.082 8   -971618.86745  23580708.815    23580714.6674
  23731324.195    -3809906.718 8  -2949618.86346  23731326.246    23731333.6094
 00  6 30  0 50  0.0000000  0  6 29 05 30 09 04 07
  21996893.251    -5264982.690 8  -4084815.45046  21996894.991    21996900.8884
  20218564.859   -22459559.926 9 -17485194.86448  20218567.273    20218571.8314
  22085026.367   -12957293.586 8 -10075243.78846  22085027.869    22085034.0904
  21057970.699   -18445228.625 9 -14101670.29147  21057973.558    21057978.0024
  23569506.899    -1337450.186 8  -1017496.31045  23569505.983    23569511.5984
  23747857.879    -3723060.595 8  -2881946.62946  23747853.164    23747860.2524
 00  6 30  0 50 30.0000000  0  6 29 05 30 09 04 07
  21992697.677    -5287051.298 9  -4102011.73847  21992697.125    21992701.4754
  20214417.594   -22481362.305 9 -17502183.71248  20214418.842    20214422.9774
  22069026.148   -13041363.659 8 -10140752.87846  22069030.417    22069035.8474
  21070454.919   -18379622.054 9 -14050548.30347  21070458.493    21070462.9444
  23558383.551    -1395872.718 8  -1063020.36045  23558388.466    23558393.0364
  23764424.725    -3635952.924 8  -2814070.58446  23764430.017    23764436.1864
 00  6 30  0 51  0.0000000  0  6 29 05 30 09 04 07
  21988601.737    -5308539.501 9  -4118755.76547  21988607.101    21988611.5334
  20210346.570   -22502753.525 9 -17518852.18548  20210347.924    20210352.8774
  22053076.766   -13125176.990 8 -10206061.89947  22053081.559    22053086.7374
  21083016.362   -18313624.855 9 -13999121.91847  21083017.503    21083022.5564
  23547357.678    -1453839.052 8  -1108188.91345  23547356.830    23547362.5694
  23781054.698    -3548585.747 8  -2745992.33145  23781053.830    23781062.1514
 00  6 30  0 51 30.0000000  0  6 29 05 30 09 04 07
  21984627.882    -5329446.552 8  -4135046.93647  21984628.911    21984634.1734
  20206351.987   -22523733.593 9 -17535200.26948  20206355.428    20206360.3054
  22037180.009   -13208732.227 9 -10271169.79747  22037182.078    22037186.9514
  21095648.062   -18247237.813 9 -13947391.77547  21095650.485    21095654.5774
  23536408.950    -1511346.643 8  -1152999.98846  23536414.519    23536420.3244
  23797719.646    -3460961.453 8  -2677713.77245  23797728.119    23797735.4224
 00  6 30  0 52  0.0000000  0  6 29 05 30 09 04 07
  21980761.801    -5349771.781 8  -4150884.74947  21980761.224    21980765.6794
  20202439.053   -22544302.306 9 -17551227.82848  20202441.541    20202446.0174
  22021329.759   -13292028.261 8 -10336075.75147  22021330.477    22021336.1684
  21108352.657   -18180461.983 9 -13895358.66047  21108357.101    21108362.1144
  23525556.974    -1568393.138 8  -1197451.76546  23525558.499    23525564.0084
  23814452.713    -3373082.312 8  -2609236.59845  23814451.564    23814458.4654
 00  6 30  0 52 30.0000000  0  6 29 05 30 09 04 07
  21977002.763    -5369514.286 8  -4166268.49847  21977003.818    21977008.9154
  20198603.368   -22564459.538 9 -17566934.74948  20198605.432    20198610.2484
  22005526.717   -13375064.101 8 -10400778.94147  22005529.599    22005534.9094
  21121136.148   -18113298.308 9 -13843023.35247  21121137.950    21121143.4054
  23514787.290    -1624975.904 8  -1241542.25846  23514790.916    23514797.6164
  23831223.329    -3284950.445 8  -2540562.51045  23831221.949    23831229.7914
 00  6 30  0 53  0.0000000  0  6 29 05 30 09 04 07
  21973351.256    -5388673.225 8  -4181197.51647  21973358.410    21973363.5764
  20194847.206   -22584205.429 9 -17582321.14148  20194848.037    20194852.6934
  21989772.905   -13457838.791 8 -10465278.64547  21989778.105    21989783.3584
  21133989.767   -18045748.258 9 -13790386.95747  21133992.425    21133996.5884
  23504109.747    -1681092.629 8  -1285269.56345  23504112.394    23504117.5994
  23848037.192    -3196568.061 8  -2471693.20645  23848040.424    23848048.8584
 00  6 30  0 53 30.0000000  0  6 29 05 30 09 04 07
  21969821.082    -5407248.186 8  -4195671.47547  21969823.307    21969829.4434
  20191165.737   -22603539.883 9 -17597386.93748  20191168.879    20191173.4484
  21974073.957   -13540351.162 8 -10529573.96047  21974076.122    21974081.8164
  21146918.882   -17977812.755 9 -13737450.21547  21146919.944    21146924.7374
  23493520.606    -1736740.489 8  -1328631.50545  23493523.677    23493528.5944
  23864903.977    -3107937.512 8  -2402630.56245  23864906.628    23864914.5534
 00  6 30  0 54  0.0000000  0  6 29 05 30 09 04 07
  21966396.370    -5425238.202 8  -4209689.64647  21966399.610    21966404.6334
  20187566.399   -22622462.938 9 -17612132.16348  20187568.009    20187572.5954
  21958418.505   -13622599.954 8 -10593663.88247  21958424.789    21958430.4364
  21159919.050   -17909493.108 9 -13684214.14547  21159920.736    21159926.1144
  23483019.200    -1791917.407 8  -1371626.47945  23483022.645    23483029.1294
  23881825.202    -3019060.933 8  -2333376.19845  23881819.905    23881827.3394
 00  6 30  0 54 30.0000000  0  6 29 05 30 09 04 07
  21963084.446    -5442642.628 8  -4223251.52447  21963087.754    21963093.6194
  20184043.255   -22640974.348 9 -17626556.62848  20184045.242    20184049.7844
  21942824.302   -13704584.274 9 -10657547.73347  21942824.256    21942829.1154
  21172992.213   -17840790.484 9 -13630679.63447  21172994.226    21172999.2404
  23472611.258    -1846620.725 8  -1414252.42846  23472614.144    23472619.6404
  23898778.470    -2929940.633 8  -2263931.88745  23898780.061    23898785.7974
 00  6 30  0 55  0.0000000  0  6 29 05 30 09 04 07
  21959882.745    -5459460.904 8  -4236356.63747  21959887.053    21959892.6034
  20180598.979   -22659073.852 9 -17640660.13348  20180601.211    20180605.8154
  21927273.137   -13786302.955 8 -10721224.57347  21927273.013    21927278.0044
  21186137.764   -17771706.031 9 -13576847.61447  21186140.254    21186145.5384
  23462296.554    -1900847.985 8  -1456507.45946  23462293.955    23462300.0724
  23915779.263    -2840578.853 8  -2194299.44245  23915783.969    23915790.7134
 00  6 30  0 55 30.0000000  0  6 29 05 30 09 04 07
  21956794.858    -5475692.268 8  -4249004.41847  21956798.851    21956804.5234
  20177233.472   -22676761.420 9 -17654442.65048  20177235.330    20177239.8284
  21911768.987   -13867754.858 9 -10784693.53047  21911773.399    21911778.8464
  21199359.117   -17702241.080 9 -13522719.09147  21199359.988    21199364.8894
  23452060.449    -1954597.022 8  -1498389.82745  23452066.314    23452072.4704
  23932829.798    -2750977.610 8  -2124480.39945  23932835.110    23932840.8434
 00  6 30  0 56  0.0000000  0  6 29 05 30 09 04 07
  21953821.434    -5491336.167 8  -4261194.44347  21953821.730    21953827.0584
  20173946.102   -22694037.161 9 -17667904.24748  20173947.969    20173952.2284
  21896323.729   -13948939.152 9 -10847953.97047  21896325.169    21896330.3514
  21212649.482   -17632396.750 9 -13468294.94247  21212651.545    21212654.8544
  23441924.330    -2007865.272 8  -1539897.50545  23441929.963    23441935.1464
  23949935.155    -2661139.489 8  -2054476.76645  23949930.588    23949936.9464
 00  6 30  0 56 30.0000000  0  6 29 05 30 09 04 07
  21950952.309    -5506391.971 8  -4272926.20247  21950957.322    21950961.8914
  20170737.118   -22710901.066 9 -17681044.94248  20170738.587    20170743.1934
  21880926.111   -14029854.440 9 -10911004.80447  21880927.319    21880931.6584
  21226010.119   -17562174.273 9 -13413576.14947  21226013.325    21226018.3644
  23431886.965    -2060650.387 8  -1581028.77945  23431884.383    23431890.7044
  23967064.057    -2571066.332 8  -1984289.98445  23967069.799    23967078.3024
 00  6 30  0 57  0.0000000  0  6 29 05 30 09 04 07
  21948198.495    -5520859.255 8  -4284199.38847  21948203.726    21948208.9094
  20167605.859   -22727352.790 9 -17693864.45348  20167608.406    20167612.7094
  21865577.447   -14110499.452 9 -10973845.00747  21865580.917    21865585.4954
  21239446.219   -17491574.644 9 -13358563.45847  21239448.484    21239453.3084
  23421929.473    -2112950.025 8  -1621781.76345  23421932.999    23421939.6204
  23984254.300    -2480760.561 7  -1913921.95045  23984254.480    23984263.2714
 00  6 30  0 57 30.0000000  0  6 29 05 30 09 04 07
  21945559.553    -5534737.440 8  -4295013.52047  21945563.095    21945567.8704
  20164553.650   -22743392.280 9 -17706362.75348  20164555.886    20164560.3704
  21850282.839   -14190873.356 9 -11036473.99147  21850285.920    21850290.7284
  21252949.501   -17420599.380 9 -13303258.08147  21252954.678    21252959.3614
  23412063.957    -2164761.771 8  -1662154.55445  23412072.117    23412078.7614
  24001477.945    -2390224.405 8  -1843374.43445  24001484.157    24001491.7424
 00  6 30  0 58  0.0000000  0  6 29 05 30 09 04 07
  21943026.512    -5548025.923 8  -4305368.16847  21943033.417    21943038.7904
  20161581.040   -22759019.929 9 -17718540.12648  20161582.067    20161586.6004
  21835041.329   -14270975.240 9 -11098890.97947  21835044.034    21835047.9134
  21266529.108   -17349249.558 9 -13247660.83747  21266532.071    21266536.6074
  23402305.844    -2216083.454 8  -1702145.49345  23402307.734    23402312.5224
  24018755.352    -2299460.052 8  -1772649.05945  24018756.195    24018763.5134
 00  6 30  0 58 30.0000000  0  6 29 05 30 09 04 07
  21940616.303    -5560724.058 8  -4315262.77647  21940616.951    21940622.5104
  20158684.185   -22774235.424 9 -17730396.34148  20158686.643    20158691.4094
  21819850.065   -14350803.728 9 -11161094.97347  21819853.046    21819856.8434
  21280177.544   -17277526.374 9 -13191772.65547  21280180.686    21280185.3574
  23392633.156    -2266912.786 8  -1741752.76545  23392634.400    23392638.8404
  24036070.892    -2208469.678 8  -1701747.59845  24036071.668    24036079.7404
 00  6 30  0 59  0.0000000  0  6 29 05 30 09 04 07
  21938311.795    -5572831.567 8  -4324697.17947  21938313.859    21938318.9494
  20155867.679   -22789038.751 9 -17741931.39448  20155869.767    20155874.2984
  21804711.805   -14430357.916 9 -11223085.20647  21804713.329    21804718.1224
  21293898.234   -17205431.297 9 -13135594.69047  21293899.692    21293904.7604
  23383053.571    -2317247.399 8  -1780974.57946  23383056.421    23383061.8784
  24053424.884    -2117255.492 7  -1630671.73445  24053428.329    24053436.9864
 00  6 30  0 59 30.0000000  0  6 29 05 30 09 04 07
  21936118.901    -5584348.124 8  -4333671.10547  21936121.978    21936127.2194
  20153128.285   -22803429.915 9 -17753145.26948  20153130.911    20153135.9754
  21789621.619   -14509636.870 9 -11284860.97747  21789627.228    21789633.2534
  21307687.417   -17132965.583 9 -13079127.93547  21307689.845    21307693.5134
  23373569.481    -2367084.939 8  -1819808.99946  23373571.867    23373578.9454
  24070815.854    -2025819.904 7  -1559423.31045  24070827.938    24070836.2304
 00  6 30  1  0  0.0000000  0  6 29 05 30 09 04 07
  21934041.085    -5595273.166 8  -4342184.09447  21934043.665    21934048.3414
  20150470.726   -22817408.758 9 -17764037.86548  20150471.047    20150475.5314
  21774590.426   -14588639.133 9 -11346421.13047  21774593.448    21774599.5924
  21321545.241   -17060130.498 9 -13022373.33247  21321549.666    21321553.7294
  23364181.754    -2416423.371 8  -1858254.54346  23364184.181    23364188.9664
  24088262.010    -1934164.856 7  -1488003.91745  24088269.725    24088278.0014
 00  6 30  1  0 30.0000000  0  6 29 05 30 09 04 07
  21932074.927    -5605606.370 8  -4350235.91547  21932077.189    21932081.4434
  20147887.089   -22830975.494 9 -17774609.33948  20147889.432    20147894.1504
  21759611.968   -14667363.709 9 -11407764.92047  21759612.641    21759617.3384
  21335477.997   -16986927.053 9 -12965331.71147  21335479.995    21335484.2454
  23354886.940    -2465260.281 8  -1896309.28646  23354890.362    23354896.4114
  24105747.051    -1842292.610 7  -1416415.30345  24105753.221    24105761.2464
 00  6 30  1  1  0.0000000  0  6 29 05 30 09 04 07
  21930219.100    -5615347.321 8  -4357826.24547  21930222.824    21930228.1914
  20145383.834   -22844129.997 9 -17784859.58648  20145386.247    20145391.1364
  21744685.848   -14745809.770 9 -11468891.69547  21744685.175    21744689.0604
  21349478.221   -16913356.482 9 -12908004.00847  21349480.267    21349484.5914
  23345691.752    -2513593.395 8  -1933971.44646  23345692.400    23345699.4804
  24123280.407    -1750205.385 7  -1344659.15445  24123276.640    24123284.9014
 00  6 30  1  1 30.0000000  0  6 29 05 30 09 04 07
  21928478.539    -5624495.532 8  -4364954.69447  21928482.568    21928487.2054
  20142958.669   -22856872.378 9 -17794788.71048  20142961.050    20142966.0954
  21729805.954   -14823976.111 9 -11529800.49647  21729809.970    21729815.4854
  21363548.127   -16839419.981 9 -12850391.17747  21363549.783    21363553.3944
  23336590.961    -2561420.820 8  -1971239.56746  23336592.535    23336597.2124
  24140836.427    -1657905.450 7  -1272737.26645  24140840.470    24140848.0494
 00  6 30  1  2  0.0000000  0  6 29 05 30 09 04 07
  21926852.287    -5633050.653 8  -4371620.99947  21926854.723    21926860.0234
  20140612.467   -22869202.605 9 -17804396.66848  20140615.067    20140619.5184
  21714984.473   -14901861.552 9 -11590490.40847  21714988.941    21714993.8214
  21377684.968   -16765119.143 9 -12792494.44147  21377688.156    21377693.0174
  23327583.110    -2608740.094 8  -2008111.72246  23327586.927    23327591.8374
  24158454.386    -1565394.984 7  -1200651.31645  24158443.571    24158452.7994
 00  6 30  1  2 30.0000000  0  6 29 05 30 09 04 07
  21925334.733    -5641012.453 8  -4377824.97447  21925338.971    21925344.1944
  20138346.102   -22881120.740 9 -17813683.51948  20138347.142    20138351.4794
  21700217.437   -14979465.230 9 -11650960.76347  21700220.714    21700227.1134
  21391894.488   -16690455.075 9 -12734314.68147  21391895.954    21391901.6524
  23318679.581    -2655549.067 8  -2044586.24546  23318679.906    23318685.5404
  24176090.094    -1472676.254 7  -1128403.07845  24176086.659    24176095.9644
 00  6 30  1  3  0.0000000  0  6 29 05 30 09 04 07
  21923931.969    -5648380.865 8  -4383566.58747  21923936.472    21923942.7854
  20136155.171   -22892627.146 9 -17822649.54048  20136157.417    20136162.1174
  21685504.536   -15056785.794 9 -11711210.49947  21685507.858    21685513.4484
  21406167.596   -16615429.124 9 -12675852.93047  21406173.035    21406178.2944
  23309865.259    -2701845.794 8  -2080661.61046  23309869.689    23309875.2494
  24193770.978    -1379751.299 8  -1055994.15045  24193771.799    24193780.4984
 00  6 30  1  3 30.0000000  0  6 29 05 30 09 04 07
  21922645.883    -5655155.315 8  -4388845.36147  21922647.649    21922653.6854
  20134043.760   -22903721.492 9 -17831294.48148  20134046.157    20134050.6984
  21670846.102   -15133822.390 9 -11771239.00047  21670848.815    21670852.8934
  21420515.798   -16540042.679 9 -12617110.27447  21420518.172    21420523.9584
  23301157.809    -2747627.950 8  -2116336.02346  23301157.668    23301163.0524
  24211492.279    -1286622.450 8   -983426.35045  24211493.007    24211500.5544
 00  6 30  1  4  0.0000000  0  7 29 05 24 30 09 04 07
  21921467.484    -5661335.709 8  -4393661.24747  21921471.499    21921476.9484
  20132010.103   -22914403.894 9 -17839618.43648  20132013.046    20132017.9104
  23932511.428      -92094.21017
  21656242.221   -15210574.034 9 -11831045.42747  21656243.378    21656247.6774
  21434931.402   -16464297.135 9 -12558087.80147  21434933.265    21434937.2634
  23292538.566    -2792893.566 8  -2151607.93046  23292543.559    23292549.8934
  24229251.352    -1193291.749 7   -910701.24345  24229253.586    24229262.3084
 00  6 30  1  4 30.0000000  0  7 29 05 24 30 09 04 07
  21920407.630    -5666921.923 8  -4398014.12047  21920408.963    21920413.1054
  20130056.907   -22924674.514 9 -17847621.49948  20130058.893    20130063.3374
  23916051.413     -178502.644 7   -126452.11654                  23916068.9834
  21641688.409   -15287039.266 9 -11890628.67047  21641692.238    21641697.0164
  21449411.713   -16388193.717 9 -12498786.45447  21449415.212    21449420.0584
  23284027.880    -2837640.546 8  -2186475.72646  23284029.224    23284034.6414
  24247046.686    -1099761.450 7   -837820.63145  24247052.530    24247059.6694
 00  6 30  1  5  0.0000000  0  7 29 05 24 30 09 04 07
  21919456.700    -5671913.562 8  -4401903.68847  21919458.338    21919464.1334
  20128180.199   -22934533.326 9 -17855303.69048  20128182.377    20128187.3074
  23899657.526     -264673.740 7   -193598.34044  23899666.708    23899671.3814
  21627193.303   -15363217.237 9 -11949988.08347  21627195.902    21627201.4674
  21463963.625   -16311733.651 9 -12439207.21247  21463964.704    21463969.5254
  23275607.809    -2881866.774 8  -2220937.68646  23275612.761    23275617.6214
  24264885.882    -1006033.755 8   -764786.17945  24264889.427    24264896.0014
 00  6 30  1  5 30.0000000  0  7 29 05 24 30 09 04 07
  21918616.738    -5676310.473 8  -4405329.84846  21918620.825    21918626.9114
  20126381.884   -22943980.207 9 -17862664.89648  20126384.718    20126389.6194
  23883300.081     -350604.510 7   -260557.33945  23883310.404    23883320.3134
  21612754.249   -15439106.864 9 -12009122.84147  21612755.494    21612759.4104
  21478580.388   -16234918.435 9 -12379351.21347  21478582.881    21478587.2214
  23267292.345    -2925570.279 8  -2254992.34246  23267296.862    23267302.7194
  24282768.427     -912110.758 7   -691599.54645  24282762.048    24282768.4924
 00  6 30  1  6  0.0000000  0  7 29 05 24 30 09 04 07
  21917898.350    -5680112.624 8  -4408292.54846  21917898.083    21917903.0624
  20124662.458   -22953015.390 9 -17869705.29048  20124665.300    20124670.3914
  23867001.117     -436292.117 7   -327326.81345  23867005.408    23867014.5894
  21598367.569   -15514707.356 9 -12068032.27747  21598369.021    21598373.8144
  21493266.702   -16157749.448 9 -12319219.57647  21493267.117    21493271.4974
  23259080.652    -2968748.933 8  -2288638.08346  23259078.993    23259085.4484
  24300676.002     -817994.701 7   -618262.46945  24300671.512    24300678.9304
 00  6 30  1  6 30.0000000  0  7 29 05 24 30 09 04 07
  21917284.921    -5683319.774 8  -4410791.62747  21917288.482    21917293.4914
  20123023.532   -22961638.753 9 -17876424.79148  20123024.674    20123029.2094
  23850751.412     -521733.389 8   -393904.33145  23850747.387    23850754.5084
  21584036.201   -15590017.407 9 -12126715.41847  21584037.498    21584042.1994
  21508018.046   -16080227.909 9 -12258813.19547  21508019.151    21508023.3554
  23250959.941    -3011400.625 8  -2321873.16846  23250963.348    23250969.3784
  24318610.497     -723687.777 7   -544776.70045  24318618.402    24318624.5434
 00  6 30  1  7  0.0000000  0  7 29 05 24 30 09 04 07
  21916789.552    -5685932.036 8  -4412827.14247  21916790.878    21916795.9674
  20121458.647   -22969850.476 9 -17882823.54048  20121461.850    20121466.4564
  23834531.949     -606925.334 8   -460287.57545  23834535.968    23834542.3444
  21569762.085   -15665035.787 9 -12185171.26147  21569762.057    21569766.6274
  21522836.536   -16002354.998 9 -12198133.04647  21522837.561    21522842.4144
  23242944.982    -3053523.647 8  -2354696.27846  23242947.578    23242953.2754
  24336593.144     -629192.074 7   -471143.83445  24336598.205    24336607.5514
 00  6 30  1  7 30.0000000  0  8 29 05 06 24 30 09 04 07
  21916406.122    -5687949.082 8  -4414398.87447  21916406.657    21916412.1564
  20119975.794   -22977650.663 9 -17888901.60648  20119977.559    20119982.3414
  24798645.145     -950687.34617   -718779.57455  24798653.336    24798661.8534
  23818372.386     -691864.998 8   -526474.22845  23818372.425    23818379.7644
  21555538.233   -15739762.064 9 -12243399.50547  21555541.487    21555545.9314
  21537721.040   -15924132.362 9 -12137180.37547  21537722.567    21537728.2834
  23235033.504    -3095115.903 8  -2387105.83946  23235033.725    23235037.3834
  24354600.491     -534509.873 7   -397365.62645  24354615.672    24354627.2474
 00  6 30  1  8  0.0000000  0  8 29 05 06 24 30 09 04 07
  21916134.383    -5689371.128 8  -4415506.95647  21916136.793    21916141.5094
  20118569.459   -22985039.505 9 -17894659.14148  20118571.711    20118576.3444
  24777497.226    -1061877.033 7   -805420.80445  24777493.916    24777503.5674
  23802249.696     -776549.361 7   -592461.97645  23802256.491    23802262.8504
  21541375.425   -15814194.812 9 -12301399.02147  21541378.052    21541382.2204
  21552673.328   -15845561.164 9 -12075956.09847  21552674.668    21552679.9124
  23227219.818    -3136175.499 8  -2419100.35646  23227219.033    23227225.2124
  24372672.308     -439643.305 7   -323443.75645  24372668.000    24372676.1224
 00  6 30  1  8 30.0000000  0  8 29 05 06 24 30 09 04 07
  21915976.765    -5690198.031 8  -4416151.28947  21915980.294    21915984.8294
  20117242.915   -22992017.160 9 -17900096.26648  20117244.012    20117248.8294
  24756340.409    -1173003.022 7   -892012.44745  24756349.585    24756356.5184
  23786183.042     -860975.486 7   -658248.44845  23786191.498    23786198.1744
  21527267.986   -15888332.917 9 -12359168.94747  21527270.125    21527274.4204
  21567693.223   -15766642.934 9 -12014461.38947  21567692.602    21567697.1244
  23219504.203    -3176700.338 8  -2450678.16946  23219508.254    23219514.1114
  24390759.649     -344594.485 7   -249379.87645  24390755.252    24390764.5774
 00  6 30  1  9  0.0000000  0  8 29 05 06 24 30 09 04 07
  21915935.062    -5690429.884 8  -4416331.94747  21915936.034    21915940.4754
  20115992.599   -22998583.729 9 -17905213.07148  20115994.363    20115998.8114
  24735215.324    -1284063.454 7   -978553.00245  24735213.898    24735221.7254
  23770169.728     -945140.230 7   -723831.31745  23770175.349    23770182.2354
  21513214.351   -15962175.134 9 -12416708.31147  21513217.725    21513222.3544
  21582772.607   -15687379.010 9 -11952697.32047  21582775.371    21582780.2934
  23211894.614    -3216688.669 8  -2481837.92346  23211898.925    23211904.0404
  24408865.030     -249365.602 7   -175175.68345  24408878.521    24408886.9224
 00  6 30  1  9 30.0000000  0  8 29 05 06 24 30 09 04 07
  21915999.674    -5690066.425 8  -4416048.72847  21916004.093    21916009.3784
  20114820.737   -23004739.250 9 -17910009.57948  20114823.005    20114827.4044
  24714081.720    -1395056.196 7  -1065040.82345  24714091.130    24714098.4244
  23754211.192    -1029040.748 7   -789208.25245  23754208.035    23754215.9064
  21499218.345   -16035720.617 9 -12474016.43847  21499222.498    21499227.3744
  21597924.724   -15607770.626 9 -11890664.84247  21597924.155    21597929.3314
  23204387.290    -3256138.579 8  -2512578.10246  23204390.068    23204395.8684
  24427021.743     -153958.815 7   -100832.89544  24427033.690    24427041.6354
 00  6 30  1 10  0.0000000  0  8 29 05 06 24 30 09 04 07
  21916183.988    -5689108.001 8  -4415301.92447  21916186.560    21916191.5414
  20113729.533   -23010483.924 9 -17914485.95148  20113730.371    20113734.5604
  24692986.582    -1505979.213 8  -1151474.29945  24692984.471    24692992.5904
  23738296.072    -1112674.059 7   -854376.99245  23738295.272    23738301.6094
  21485280.919   -16108968.440 9 -12531092.63747  21485283.895    21485288.5104
  21613135.015   -15527819.417 9 -11828365.23447  21613138.402    21613144.0074
  23196990.976    -3295048.090 8  -2542897.22046  23196988.389    23196992.8944
  24445224.929      -58376.124 7    -26353.05644  24445222.948    24445232.5344
 00  6 30  1 10 30.0000000  0  8 29 05 06 24 30 09 04 07
  21916480.483    -5687554.578 8  -4414091.45747  21916483.119    21916487.3374
  20112712.183   -23015817.830 9 -17918642.23848  20112714.908    20112719.3144
  24671895.442    -1616830.539 8  -1237851.91645  24671890.521    24671897.0164
  23722428.583    -1196037.073 7   -919335.09045  23722429.795    23722436.9954
  21471400.041   -16181917.568 9 -12587936.07347  21471402.068    21471406.8644
  21628416.771   -15447526.810 9 -11765799.57747  21628418.198    21628423.0704
  23189677.110    -3333415.457 8  -2572793.88046  23189685.696    23189691.3044
  24463439.752       37380.037 7     48261.97444  24463442.214    24463452.3194
 00  6 30  1 11  0.0000000  0  8 29 05 06 24 30 09 04 07
  21916886.986    -5685406.295 8  -4412417.48147  21916891.169    21916895.8214
  20111775.591   -23020741.065 9 -17922478.51848  20111778.036    20111782.7014
  24650811.491    -1727608.360 8  -1324172.22745  24650810.395    24650818.4704
  23706613.484    -1279127.004 8   -984080.44945  23706619.868    23706625.4484
  21457574.164   -16254566.815 9 -12644545.84047  21457577.696    21457581.7074
  21643761.379   -15366893.938 9 -11702968.80847  21643761.828    21643766.1604
  23182485.537    -3371239.026 8  -2602266.77946  23182487.971    23182494.1604
  24481694.774      133307.753 7    123010.70544  24481699.854    24481707.9914
 00  6 30  1 11 30.0000000  0  7 29 05 06 24 30 09 04
  21917409.837    -5682663.212 8  -4410280.02947  21917413.023    21917418.6714
  20110915.730   -23025253.590 9 -17925994.77348  20110918.915    20110923.6844
  24629742.840    -1838310.781 8  -1410433.80645  24629742.366    24629752.2024
  23690856.530    -1361940.628 7  -1048610.47245  23690860.379    23690867.6454
  21443805.592   -16326915.326 9 -12700921.26347  21443810.001    21443815.3164
  21659167.493   -15285922.455 9 -11639874.15547  21659170.671    21659174.8674
  23175388.042    -3408516.878 8  -2631314.44446  23175393.672    23175401.0464
 00  6 30  1 12  0.0000000  0  7 29 05 06 24 30 09 04
  21918045.209    -5679325.469 8  -4407679.20047  21918048.583    21918053.4284
  20110137.049   -23029355.813 9 -17929191.30248  20110138.465    20110143.0374
  24608683.245    -1948935.696 7  -1496635.02245  24608691.181    24608700.3444
  23675148.450    -1444475.170 8  -1112922.99845  23675154.262    23675162.0104
  21430098.435   -16398961.974 9 -12757061.49047  21430099.711    21430104.5944
  21674638.127   -15204613.828 9 -11576516.79547  21674642.995    21674648.1934
  23168400.711    -3445246.928 8  -2659935.26446  23168405.669    23168410.5904
 00  6 30  1 12 30.0000000  0  7 29 05 06 24 30 09 04
  21918793.914    -5675393.332 8  -4404615.20647  21918797.235    21918801.2134
  20109434.593   -23033047.569 9 -17932067.99548  20109436.190    20109440.8274
  24587655.106    -2059481.367 7  -1582774.44745  24587656.427    24587664.4764
  23659492.473    -1526727.631 7  -1177015.76645  23659503.207    23659508.3754
  21416445.037   -16470705.844 9 -12812965.77447  21416447.134    21416452.9524
  21690178.143   -15122969.362 9 -11512897.75547  21690179.562    21690184.5424
  23161513.183    -3481427.840 8  -2688128.16646  23161519.588    23161525.7234
 00  6 30  1 13  0.0000000  0  7 29 05 06 24 30 09 04
  21919655.521    -5670866.970 8  -4401088.16847  21919657.750    21919662.9874
  20108809.383   -23036329.150 9 -17934625.07148  20108811.457    20108816.2064
  24566632.414    -2169945.851 8  -1668850.59345  24566635.290    24566643.8224
  23643906.064    -1608694.985 7  -1240886.35345  23643905.784    23643910.4404
  21402848.631   -16542145.484 9 -12868632.97847  21402852.562    21402857.6474
  21705777.843   -15040990.450 9 -11449018.10647  21705779.603    21705784.1084
  23154736.873    -3517057.646 8  -2715891.66746  23154740.297    23154746.0834
 00  6 30  1 13 30.0000000  0  7 29 05 06 24 30 09 04
  21920627.020    -5665746.608 8  -4397098.28547  21920631.705    21920637.1234
  20108263.938   -23039200.816 9 -17936862.72948  20108264.870    20108269.7134
  24545626.954    -2280327.145 7  -1754861.94745  24545630.695    24545639.3634
  23628364.008    -1690374.280 7  -1304532.48745  23628360.936    23628368.3514
  21389313.097   -16613280.079 9 -12924062.51547  21389316.136    21389321.2594
  21721443.648   -14958678.496 9 -11384878.93247  21721443.270    21721448.4294
  23148063.495    -3552134.804 8  -2743224.48746  23148065.309    23148071.0334
 00  6 30  1 14  0.0000000  0  7 29 05 06 24 30 09 04
  21921719.378    -5660032.349 8  -4392645.63047  21921720.340    21921724.4884
  20107792.935   -23041662.588 9 -17938780.99648  20107796.543    20107801.6164
  24524634.595    -2390623.204 8  -1840806.86945  24524642.104    24524649.9894
  23612868.498    -1771762.586 8  -1367951.90245  23612874.681    23612880.5394
  21375835.461   -16684108.851 9 -12979253.75347  21375837.983    21375842.7304
  21737164.255   -14876035.309 9 -11320481.67747  21737169.028    21737174.2464
  23141496.181    -3586657.436 8  -2770125.24146  23141495.675    23141501.6704
 00  6 30  1 14 30.0000000  0  7 29 05 06 24 30 09 04
  21922917.828    -5653724.615 8  -4387730.52147  21922920.789    21922925.6744
  20107401.816   -23043714.782 9 -17940380.09148  20107406.003    20107410.9434
  24503670.368    -2500832.180 8  -1926683.94245  24503669.268    24503677.6554
  23597437.827    -1852857.132 8  -1431142.41245  23597441.347    23597448.5794
  21362414.685   -16754630.734 9 -13034205.84147  21362418.108    21362423.2064
  21752957.999   -14793061.952 9 -11255827.14547  21752959.318    21752963.6004
  23135020.526    -3620623.828 8  -2796592.55446  23135031.881    23135038.0594
 00  6 30  1 15  0.0000000  0  7 29 05 06 24 30 09 04
  21924228.936    -5646823.711 8  -4382353.17747  21924232.995    21924238.1334
  20107092.436   -23045357.492 9 -17941660.12348  20107093.573    20107097.7544
  24482711.840    -2610952.030 8  -2012491.60245  24482715.060    24482721.8194
  23582061.737    -1933655.004 7  -1494101.75245  23582065.240    23582072.8544
  21349054.301   -16824844.628 9 -13088917.93347  21349057.188    21349062.0774
  21768810.478   -14709759.857 9 -11190916.43647  21768811.854    21768815.2584
  23128671.419    -3654032.454 8  -2822625.22346  23128674.815    23128680.3504
 00  6 30  1 15 30.0000000  0  7 29 05 06 24 30 09 04
  21925656.133    -5639329.904 8  -4376513.86546  21925658.533    21925663.9014
  20106856.626   -23046590.957 9 -17942621.26448  20106859.104    20106863.5244
  24461770.596    -2720980.843 8  -2098228.29545  24461776.195    24461784.5524
  23566747.624    -2014152.881 8  -1556827.33645  23566748.925    23566755.2444
  21335754.203   -16894749.450 9 -13143389.19347  21335754.853    21335759.8534
  21784722.499   -14626130.785 9 -11125750.96747  21784725.162    21784729.1154
  23122421.853    -3686881.778 8  -2848222.07046  23122423.660    23122430.1014
 00  6 30  1 16  0.0000000  0  7 29 05 06 24 30 09 04
  21927195.491    -5631243.410 8  -4370212.72447  21927198.333    21927203.2494
  20106700.236   -23047415.154 9 -17943263.48848  20106702.053    20106706.7194
  24440860.463    -2830916.584 8  -2183892.42145  24440856.244    24440864.9264
  23551487.500    -2094348.187 7  -1619317.13445  23551487.766    23551494.6204
  21322509.663   -16964344.137 9 -13197618.79047  21322511.836    21322516.1504
  21800700.067   -14542176.125 8 -11060331.75747  21800700.196    21800705.2734
  23116278.425    -3719170.162 8  -2873381.85946  23116279.108    23116285.1974
 00  6 30  1 16 30.0000000  0  7 29 05 06 24 30 09 04
  21928847.135    -5622564.721 8  -4363450.10047  21928849.423    21928854.8934
  20106621.080   -23047830.396 9 -17943587.05448  20106622.855    20106627.5654
  24419954.018    -2940757.448 8  -2269482.63745  24419956.011    24419962.7164
  23536282.540    -2174237.832 7  -1681568.74545  23536284.452    23536291.7174
  21309324.989   -17033627.604 9 -13251605.88947  21309327.786    21309331.6134
  21816739.127   -14457897.265 9 -10994659.95447  21816740.122    21816743.7884
  23110239.216    -3750895.959 8  -2898103.26846  23110241.608    23110247.7574
 00  6 30  1 17  0.0000000  0  7 29 05 06 24 30 09 04
  21930609.857    -5613294.289 8  -4356226.38847  21930613.827    21930619.2084
  20106619.400   -23047836.878 9 -17943592.09848  20106621.911    20106626.3744
  24399072.398    -3050501.536 8  -2354997.44745  24399072.524    24399078.4154
  23521142.222    -2253818.979 8  -1743579.97645  23521142.419    23521146.6124
  21296202.234   -17102598.821 9 -13305349.67147  21296202.930    21296206.3934
  21832838.911   -14373295.741 9 -10928736.70947  21832838.710    21832842.6984
  23104312.709    -3782057.519 8  -2922384.98046  23104312.913    23104318.4774
 00  6 30  1 17 30.0000000  0  7 29 05 06 24 30 09 04
  21932490.467    -5603432.361 8  -4348541.77847  21932490.244    21932495.3474
  20106693.802   -23047434.764 9 -17943278.75248  20106698.082    20106702.7564
  24378208.846    -3160146.781 8  -2440435.23245  24378206.746    24378212.4854
  23506055.038    -2333088.755 7  -1805348.53245  23506055.461    23506063.1734
  21283132.243   -17171256.839 9 -13358849.41147  21283137.381    21283141.4694
  21848995.405   -14288373.004 9 -10862563.17447  21848998.628    21849002.6954
  23098485.122    -3812653.220 8  -2946225.80346  23098489.908    23098495.7184
 00  6 30  1 18  0.0000000  0  7 29 05 06 24 30 09 04
  21934477.713    -5592979.476 8  -4340396.68147  21934479.811    21934484.5614
  20106850.528   -23046624.412 9 -17942647.30248  20106852.264    20106857.0474
  24357358.045    -3269691.206 7  -2525794.45545  24357359.498    24357367.6214
  23491024.683    -2412044.138 8  -1866872.13345  23491031.256    23491038.5084
  21270129.939   -17239600.858 9 -13412104.45947  21270131.711    21270136.3624
  21865213.454   -14203130.511 8 -10796140.49247  21865220.062    21865224.1814
  23092770.789    -3842681.999 8  -2969624.87446  23092775.847    23092781.9254
 00  6 30  1 18 30.0000000  0  7 29 05 06 24 30 09 04
  21936579.014    -5581936.202 8  -4331791.53347  21936579.822    21936586.1554
  20107082.616   -23045405.944 9 -17941697.85548  20107084.095    20107088.9924
  24336530.496    -3379132.871 7  -2611073.59445  24336533.274    24336541.2804
  23476061.323    -2490682.312 8  -1928148.56845  23476068.361    23476073.7554
  21257183.093   -17307629.709 9 -13465113.92747  21257185.539    21257190.1954
  21881498.412   -14117569.806 8 -10729469.83547  21881501.318    21881506.1194
  23087174.231    -3872141.956 8  -2992580.62546  23087170.568    23087176.0734
 00  6 30  1 19  0.0000000  0  7 29 05 06 24 30 09 04
  21938793.269    -5570302.855 8  -4322726.61047  21938795.079    21938800.1414
  20107390.057   -23043779.613 9 -17940430.58248  20107393.573    20107398.0574
  24315729.145    -3488469.993 8  -2696271.28945  24315728.892    24315736.4314
  23461162.040    -2569000.388 8  -1989175.58345  23461163.775    23461171.4114
  21244299.522   -17375342.262 9 -13517876.92747  21244300.577    21244304.6014
  21897841.271   -14031692.461 9 -10662552.44847  21897843.448    21897847.9804
  23081670.016    -3901031.689 8  -3015092.09346  23081671.745    23081678.0624
 00  6 30  1 19 30.0000000  0  7 29 05 06 24 30 09 04
  21941118.600    -5558080.071 8  -4313202.36447  21941120.968    21941125.8194
  20107778.520   -23041745.565 9 -17938845.60948  20107780.994    20107785.1664
  24294944.387    -3597700.666 8  -2781386.05545  24294943.282    24294949.0754
  23446323.239    -2646995.468 8  -2049950.96745  23446321.262    23446328.5744
  21231472.743   -17442737.777 9 -13570392.87947  21231475.958    21231480.1704
  21914240.624   -13945499.867 8 -10595389.43447  21914244.338    21914249.7134
  23076279.338    -3929349.910 8  -3037158.23846  23076283.549    23076289.9704
 00  6 30  1 20  0.0000000  0  7 29 05 06 24 30 09 04
  21943557.030    -5545268.302 8  -4303219.17247  21943558.122    21943563.8924
  20108243.886   -23039304.058 9 -17936943.12948  20108245.659    20108249.8654
  24274171.485    -3706822.691 8  -2866416.16945  24274177.996    24274184.8244
  23431537.257    -2724664.715 8  -2110472.43345  23431541.989    23431547.6234
  21218708.126   -17509814.968 9 -13622660.79647  21218711.607    21218715.6744
  21930699.868   -13858993.616 8 -10527982.01147  21930706.174    21930711.5264
  23070996.003    -3957095.135 8  -3058777.89346  23071003.152    23071009.2014
 00  6 30  1 20 30.0000000  0  7 29 05 06 24 30 09 04
  21946105.941    -5531868.120 8  -4292777.47446  21946107.936    21946113.5164
  20108783.281   -23036455.260 9 -17934723.28448  20108787.419    20108792.0694
  24253433.641    -3815834.363 8  -2951360.23345  24253432.352    24253440.6744
  23416821.256    -2802005.325 8  -2170737.78845  23416824.133    23416831.6404
  21206006.002   -17576573.056 9 -13674680.05947  21206007.402    21206012.0664
  21947221.420   -13772175.285 8 -10460331.37947  21947227.411    21947231.8264
  23065823.545    -3984265.928 8  -3079949.90646  23065832.827    23065839.1064
 00  6 30  1 21  0.0000000  0  7 29 05 06 24 30 09 04
  21948767.123    -5517880.058 8  -4281877.71746  21948770.322    21948774.9724
  20109406.894   -23033199.473 9 -17932186.30648  20109407.182    20109412.0784
  24232706.470    -3924733.696 8  -3036216.75445  24232710.190    24232717.4844
  23402165.352    -2879014.237 8  -2230744.64845  23402169.711    23402177.0584
  21193360.495   -17643011.082 9 -13726449.91947  21193364.564    21193369.8354
  21963806.462   -13685046.242 8 -10392438.64447  21963807.384    21963812.2744
  23060770.338    -4010860.896 8  -3100673.26246  23060772.060    23060778.5884
 00  6 30  1 21 30.0000000  0  7 29 05 06 24 30 09 04
  21951537.416    -5503304.791 8  -4270520.37146  21951543.805    21951548.8974
  20110101.156   -23029536.905 9 -17929332.35748  20110103.882    20110109.0234
  24212003.431    -4033518.800 8  -3120984.30345  24212008.198    24212014.6904
  23387578.175    -2955688.735 8  -2290490.98145  23387580.451    23387586.1554
  21180780.812   -17709127.951 9 -13777969.52047  21180783.196    21180787.8964
  21980442.309   -13597608.072 8 -10324305.02847  21980446.102    21980450.9334
  23055817.621    -4036878.703 8  -3120946.90246  23055820.973    23055826.6964
 00  6 30  1 22  0.0000000  0  7 29 05 06 24 30 09 04
  21954422.936    -5488143.059 8  -4258706.05046  21954428.572    21954433.7734
  20110876.498   -23025468.021 9 -17926161.79948  20110878.404    20110882.8574
  24191324.418    -4142187.490 8  -3205661.15245  24191329.584    24191336.2344
  23373051.031    -3032025.865 8  -2349974.41645  23373053.162    23373058.9584
  21168262.172   -17774922.935 9 -13829238.31047  21168263.255    21168267.4544
  21997134.594   -13509862.479 8 -10255931.87147  21997143.564    21997149.1914
  23050975.536    -4062318.007 8  -3140769.73446  23050980.207    23050986.0804
 00  6 30  1 22 30.0000000  0  7 29 05 06 24 30 09 04
  21957423.948    -5472395.343 8  -4246435.09846  21957425.930    21957430.4584
  20111726.294   -23020992.959 9 -17922674.73648  20111729.852    20111734.6114
  24170669.829    -4250737.908 8  -3290245.82845  24170673.953    24170679.2964
  23358591.087    -3108022.857 8  -2409192.80346  23358591.262    23358597.7404
  21155800.765   -17840394.681 9 -13880255.22047  21155803.971    21155808.7474
  22013898.634   -13421810.888 8 -10187320.29146  22013898.151    22013904.2624
  23046249.496    -4087177.575 8  -3160140.79946  23046250.295    23046255.3264
 00  6 30  1 23  0.0000000  0  7 29 05 06 24 30 09 04
  21960533.569    -5456062.191 8  -4233707.96847  21960534.464    21960539.1784
  20112656.565   -23016111.873 9 -17918871.28848  20112658.671    20112663.7394
  24150044.054    -4359168.313 8  -3374736.97945  24150039.821    24150046.1304
  23344190.146    -3183676.876 8  -2468143.96446  23344194.159    23344200.6384
  21143403.885   -17905542.109 9 -13931019.41247  21143406.887    21143411.6904
  22030711.395   -13333454.885 8 -10118471.51146  22030711.976    22030718.1274
  23041622.375    -4111455.861 8  -3179058.96546  23041628.894    23041636.3914
 00  6 30  1 23 30.0000000  0  7 29 05 06 24 30 09 04
  21963751.341    -5439144.752 8  -4220525.55246  21963752.753    21963757.8644
  20113663.163   -23010825.019 9 -17914751.66548  20113665.089    20113669.3714
  24129424.555    -4467476.645 8  -3459133.01345  24129429.146    24129436.5704
  23329860.170    -3258985.208 8  -2526825.72946  23329864.029    23329870.4154
  21131069.564   -17970364.359 9 -13981530.22847  21131072.042    21131076.3844
  22047580.174   -13244795.965 8 -10049386.69046  22047583.950    22047589.3644
  23037117.877    -4135152.039 8  -3197523.50846  23037119.791    23037125.6934
 00  6 30  1 24  0.0000000  0  7 29 05 06 24 30 09 04
  21967081.027    -5421643.392 8  -4206888.14147  21967084.476    21967088.6804
  20114746.227   -23005132.672 9 -17910316.06548  20114748.005    20114752.8574
  24108839.392    -4575661.012 8  -3543432.44445  24108841.411    24108848.6714
  23315600.073    -3333944.891 8  -2585235.83746  23315599.963    23315606.5274
  21118797.458   -18034860.567 9 -14031786.97447  21118798.574    21118802.6364
  22064507.585   -13155835.862 8  -9980067.18946  22064512.745    22064518.4054
  23032720.222    -4158264.644 8  -3215533.32346  23032722.570    23032727.5124
 00  6 30  1 24 30.0000000  0  7 29 05 06 24 30 09 04
  21970522.395    -5403558.990 8  -4192796.41246  21970524.627    21970529.6564
  20115904.928   -22999035.170 9 -17905564.77048  20115908.050    20115912.9934
  24088274.658    -4683719.498 8  -3627633.80045  24088278.747    24088285.8894
  23301400.244    -3408553.303 8  -2643372.18846  23301401.812    23301408.8864
  21106583.108   -18099029.811 9 -14081788.94447  21106587.187    21106591.7144
  22081498.134   -13066576.159 8  -9910514.20847  22081498.941    22081503.5714
  23028429.678    -4180792.411 8  -3233087.41846  23028434.313    23028441.5464
 00  6 30  1 25  0.0000000  0  7 29 05 06 24 30 09 04
  21974073.122    -5384892.249 8  -4178250.91246  21974078.114    21974081.0464
  20117144.043   -22992532.808 9 -17900497.99548  20117145.510    20117150.3934
  24067737.065    -4791650.181 8  -3711735.55845  24067740.248    24067747.9664
  23287267.482    -3482807.492 8  -2701232.56246  23287271.908    23287277.4174
  21094436.712   -18162870.972 9 -14131535.27147  21094439.383    21094443.4124
  22098540.684   -12977018.092 8  -9840728.73846  22098541.101    22098545.6974
  23024259.615    -4202734.282 8  -3250184.98646  23024259.029    23024265.3524
 00  6 30  1 25 30.0000000  0  7 29 05 06 24 30 09 04
  21977737.501    -5365644.209 8  -4163252.43446  21977740.738    21977745.7164
  20118457.464   -22985625.870 9 -17895115.96848  20118459.759    20118464.9634
  24047225.631    -4899451.202 8  -3795736.27045  24047227.274    24047233.2724
  23273204.645    -3556704.720 8  -2758814.74846  23273209.663    23273216.0594
  21082350.066   -18226383.091 9 -14181025.21247  21082352.584    21082357.4964
  22115636.675   -12887163.353 8  -9770712.10146  22115639.430    22115644.3494
  23020188.789    -4224088.936 8  -3266824.96646  23020195.600    23020202.2244
 00  6 30  1 26  0.0000000  0  7 29 05 06 24 30 09 04
  21981509.952    -5345815.346 8  -4147801.38246  21981513.345    21981518.6244
  20119846.982   -22978314.731 9 -17889418.97748  20119850.770    20119856.1014
  24026737.243    -5007120.720 8  -3879634.49945  24026737.918    24026745.0994
  23259212.609    -3630242.286 8  -2816116.70346  23259215.555    23259222.4544
  21070326.696   -18289565.407 9 -14230258.15647  21070329.343    21070334.0994
  22132789.560   -12797013.573 8  -9700465.57146  22132794.988    22132799.9334
  23016244.195    -4244855.362 8  -3283006.58146  23016244.687    23016249.9424
 00  6 30  1 26 30.0000000  0  7 29 05 06 24 30 09 04
  21985393.822    -5325406.673 8  -4131898.55046  21985396.378    21985402.1224
  20121316.585   -22970599.661 9 -17883407.24248  20121319.276    20121324.6924
  24006265.909    -5114656.726 8  -3963428.71745  24006273.978    24006280.8854
  23245287.637    -3703417.317 8  -2873136.13546  23245290.859    23245297.4624
  21058368.162   -18352416.611 9 -14279233.09347  21058369.704    21058373.9794
  22150004.372   -12706570.249 8  -9629990.30547  22150006.011    22150010.9864
  23012404.076    -4265032.464 8  -3298729.00246  23012405.263    23012410.9414
 00  6 30  1 27  0.0000000  0  7 29 05 06 24 30 09 04
  21989390.162    -5304419.058 8  -4115544.56046  21989390.915    21989396.0124
  20122861.563   -22962480.944 9 -17877080.96748  20122864.025    20122869.3874
  23985827.703    -5222057.412 8  -4047117.50445  23985834.891    23985842.3134
  23231433.063    -3776227.058 8  -2929870.94146  23231435.624    23231442.7064
  21046470.313   -18414935.942 9 -14327949.42947  21046472.642    21046476.9064
  22167271.117   -12615835.220 8  -9559287.73546  22167271.864    22167276.4514
  23008674.580    -4284619.245 8  -3313991.39646  23008678.230    23008682.9214
 00  6 30  1 27 30.0000000  0  7 29 05 06 24 30 09 04
  21993491.255    -5282853.434 8  -4098740.16746  21993494.066    21993499.9214
  20124484.134   -22953958.935 9 -17870440.43848  20124486.142    20124490.7934
  23965418.183    -5329320.844 8  -4130699.31245  23965423.747    23965432.2584
  23217647.095    -3848668.697 8  -2986318.90746  23217650.539    23217656.1674
  21034633.992   -18477122.534 9 -14376406.48147  21034638.633    21034643.6024
  22184588.110   -12524809.990 8  -9488359.01446  22184594.170    22184598.9554
  23005059.251    -4303614.367 8  -3328792.80046  23005062.472    23005069.1874
 00  6 30  1 28  0.0000000  0  7 29 05 06 24 30 09 04
  21997705.194    -5260710.655 8  -4081486.06146  21997707.733    21997712.8794
  20126180.523   -22945033.905 9 -17863485.87048  20126184.304    20126189.3244
  23945039.684    -5436445.083 8  -4214172.64645  23945039.270    23945046.6194
  23203930.990    -3920739.498 8  -3042477.90846  23203936.243    23203941.4854
  21022867.590   -18538975.194 9 -14424603.34147  21022868.683    21022873.1994
  22201969.214   -12433496.049 8  -9417205.33246  22201969.727    22201975.5444
  23001559.586    -4322017.025 8  -3343132.51446  23001561.416    23001566.7574
 00  6 30  1 28 30.0000000  0  7 29 05 06 24 30 09 04
  22002028.008    -5237991.745 8  -4063783.01446  22002031.517    22002037.2814
  20127958.107   -22935706.208 9 -17856217.53248  20127959.571    20127964.2974
  23924678.244    -5543428.044 8  -4297535.92345  23924680.863    23924688.3394
  23190288.962    -3992436.755 8  -3098345.87146  23190291.757    23190298.5414
  21011161.938   -18600492.894 9 -14472539.19647  21011162.333    21011166.3634
  22219402.623   -12341895.022 8  -9345827.96146  22219400.630    22219406.1364
  22998171.369    -4339826.225 8  -3357009.81646  22998172.549    22998177.3204
 00  6 30  1 29  0.0000000  0  7 29 05 06 24 30 09 04
  22006458.854    -5214697.394 8  -4045631.57946  22006463.022    22006469.9194
  20129806.137   -22925976.161 9 -17848635.67648  20129810.606    20129815.4754
  23904345.910    -5650268.099 8  -4380787.81945  23904349.850    23904357.9014
  23176713.008    -4063757.765 8  -3153920.63646  23176719.659    23176726.8804
  20999519.012   -18661674.845 9 -14520213.41147  20999519.629    20999523.9864
  22236884.436   -12250008.565 8  -9274228.17346  22236886.605    22236891.2444
  22994893.714    -4357040.774 8  -3370423.73846  22994896.411    22994902.3144
 00  6 30  1 29 30.0000000  0  7 29 05 06 24 30 09 04
  22011003.365    -5190828.839 8  -4027032.71746  22011006.760    22011012.0864
  20131736.184   -22915843.959 9 -17840740.45948  20131739.150    20131743.5444
  23884050.917    -5756963.158 8  -4463926.70445  23884046.102    23884054.1154
  23163220.571    -4134699.812 8  -3209200.10746  23163220.481    23163227.9514
  20987936.218   -18722520.220 9 -14567625.36847  20987940.450    20987945.4134
  22254419.963   -12157838.371 8  -9202407.27746  22254425.822    22254430.6624
  22991733.851    -4373659.935 8  -3383373.69246  22991733.887    22991739.1174
 00  6 30  1 30  0.0000000  0  7 29 05 06 24 30 09 04
  22015651.553    -5166387.101 8  -4007987.18946  22015656.861    22015662.9914
  20133740.941   -22905309.953 9 -17832532.13548  20133743.619    20133748.0284
  23863764.510    -5863511.332 8  -4546951.21345  23863771.647    23863777.7694
  23149789.769    -4205260.312 8  -3264182.24346  23149794.080    23149799.4244
  20976422.950   -18783027.835 9 -14614774.12947  20976426.471    20976431.4234
  22272019.817   -12065385.941 8  -9130366.47946  22272019.399    22272023.7934
  22988677.832    -4389682.461 8  -3395858.77746  22988684.441    22988690.4904
 00  6 30  1 30 30.0000000  0  7 29 05 06 24 30 09 04
  22020412.981    -5141373.277 8  -3988495.89646  22020417.400    22020423.4524
  20135822.374   -22894374.541 9 -17824011.04348  20135824.656    20135829.1794
  23843519.785    -5969910.561 8  -4629859.61145  23843523.576    23843531.2194
  23136438.644    -4275436.459 8  -3318864.91346  23136438.780    23136444.8794
  20964974.995   -18843196.727 9 -14661658.96847  20964976.828    20964981.2824
  22289662.324   -11972652.882 8  -9058106.99246  22289666.526    22289671.3494
  22985749.639    -4405107.826 8  -3407878.53046  22985749.724    22985755.2414
 00  6 30  1 31  0.0000000  0  7 29 05 06 24 30 09 04
  22025285.147    -5115788.107 8  -3968559.39446  22025286.699    22025290.4844
  20137979.247   -22883038.151 9 -17815177.49048  20137981.270    20137986.2674
  23823302.556    -6076159.048 8  -4712650.52345  23823305.474    23823313.2644
  23123151.244    -4345225.552 8  -3373246.02446  23123158.448    23123165.6784
  20953589.450   -18903025.876 9 -14708279.05847  20953591.758    20953595.5964
  22307363.294   -11879640.908 8  -8985630.18846  22307365.663    22307370.6174
  22982926.763    -4419934.969 8  -3419432.14546  22982928.308    22982933.8774
 00  6 30  1 31 30.0000000  0  7 29 05 06 24 30 09 04
  22030258.426    -5089632.877 8  -3948178.72646  22030262.203    22030267.9634
  20140212.951   -22871301.085 9 -17806031.72048  20140215.175    20140219.7764
  23803117.641    -6182255.010 8  -4795322.61045  23803116.518    23803122.9834
  23109949.377    -4414624.977 8  -3427323.44746  23109952.236    23109959.1454
  20942268.672   -18962514.772 9 -14754634.02947  20942271.074    20942275.2794
  22325114.833   -11786351.625 8  -8912937.27746  22325118.284    22325122.5904
  22980214.783    -4434163.011 8  -3430518.93346  22980220.320    22980226.1944
 00  6 30  1 32  0.0000000  0  7 29 05 06 24 30 09 04
  22035345.786    -5062908.759 8  -3927354.76946  22035349.577    22035354.1624
  20142523.235   -22859163.690 9 -17796574.00348  20142525.015    20142529.5044
  23782947.687    -6288196.623 8  -4877874.42145  23782956.274    23782963.6864
  23096817.004    -4483631.958 8  -3481095.10746  23096820.594    23096826.9064
  20931012.364   -19021662.353 9 -14800723.03047  20931015.941    20931021.0254
  22342921.993   -11692786.647 8  -8840029.53546  22342923.249    22342928.2784
  22977625.762    -4447791.374 8  -3441138.41146  22977627.721    22977633.7864
 00  6 30  1 32 30.0000000  0  7 29 05 06 24 30 09 04
  22040539.913    -5035616.743 8  -3906088.28246  22040542.123    22040547.5034
  20144909.481   -22846626.525 9 -17786804.78948  20144910.773    20144914.8764
  23762824.153    -6393981.901 8  -4960304.43545  23762825.754    23762833.0874
  23083763.985    -4552243.911 8  -3534558.91846  23083764.765    23083770.7774
  20919823.120   -19080467.411 9 -14846545.12547  20919825.781    20919830.4074
  22360777.408   -11598947.679 8  -8766908.30246  22360780.896    22360785.1864
  22975141.413    -4460818.744 8  -3451289.61946  22975147.258    22975154.1784
 00  6 30  1 33  0.0000000  0  7 29 05 06 24 30 09 04
  22045839.071    -5007758.157 8  -3884380.30946  22045843.160    22045848.4384
  20147371.494   -22833689.586 9 -17776724.05848  20147372.698    20147376.9694
  23742723.631    -6499609.001 8  -5042611.15045  23742725.217    23742733.0944
  23070782.212    -4620458.139 8  -3587712.81146  23070783.583    23070790.6184
  20908700.984   -19138928.861 9 -14892099.48947  20908701.051    20908705.1754
  22378687.317   -11504836.249 8  -8693574.78046  22378688.644    22378693.2684
  22972781.937    -4473244.678 8  -3460972.14246  22972784.112    22972789.7914
 00  6 30  1 33 30.0000000  0  7 29 05 06 24 30 09 04
  22051246.367    -4979334.157 8  -3862231.73646  22051251.906    22051257.6714
  20149908.676   -22820353.277 9 -17766332.13548  20149910.215    20149914.9564
  23722654.093    -6605075.907 8  -5124793.05445  23722656.708    23722662.4974
  23057876.755    -4688272.082 8  -3640554.80646  23057877.780    23057885.2714
  20897639.154   -19197046.002 9 -14937385.55447  20897641.283    20897646.2514
  22396645.252   -11410453.903 8  -8620030.13546  22396648.872    22396654.5134
  22970531.412    -4485068.258 8  -3470185.31946  22970534.189    22970539.1974
 00  6 30  1 34  0.0000000  0  7 29 05 06 24 30 09 04
  22056768.753    -4950345.667 8  -3839643.32246  22056768.184    22056774.5484
  20152522.077   -22806618.223 9 -17755629.48648  20152523.843    20152528.7354
  23702612.574    -6710380.860 8  -5206848.79745  23702616.170    23702622.9094
  23045048.896    -4755683.188 8  -3693082.89146  23045051.041    23045057.5714
  20886645.146   -19254817.953 9 -14982402.63947  20886648.372    20886652.3964
  22414656.860   -11315802.632 8  -8546275.94446  22414660.225    22414666.2604
  22968398.000    -4496288.820 8  -3478928.62446  22968398.255    22968404.4224
 00  6 30  1 34 30.0000000  0  7 29 05 06 24 30 09 04
  22062392.686    -4920794.082 8  -3816616.14746  22062392.323    22062398.1904
  20155209.513   -22792484.397 9 -17744616.11848  20155213.356    20155218.4784
  23682601.072    -6815521.958 8  -5288776.83745  23682608.362    23682616.5674
  23032299.400    -4822688.817 8  -3745295.05446  23032299.864    23032307.5894
  20875718.537   -19312243.664 9 -15027149.93947  20875720.323    20875724.6164
  22432722.713   -11220884.064 8  -8472313.48346  22432723.029    22432727.9484
  22966372.491    -4506905.753 8  -3487201.56146  22966377.042    22966384.1894
 00  6 30  1 35  0.0000000  0  7 29 05 06 24 30 09 04
  22068117.079    -4890680.541 8  -3793151.06946  22068121.869    22068128.5614
  20157979.061   -22777952.423 9 -17733292.50548  20157979.384    20157983.6904
  23662632.157    -6920497.310 8  -5370575.71246  23662634.082    23662639.9444
  23019623.818    -4889286.259 8  -3797189.10346  23019627.519    23019634.0684
  20864857.995   -19369322.413 9 -15071626.86747  20864858.803    20864862.9614
  22450832.258   -11125699.626 8  -8398143.83746  22450835.602    22450840.2574
  22964474.803    -4516918.296 8  -3495003.54346  22964473.482    22964478.8154
 00  6 30  1 35 30.0000000  0  7 29 05 06 24 30 09 04
  22073956.984    -4860006.464 8  -3769249.18746  22073959.956    22073964.9424
  20160817.652   -22763022.630 9 -17721658.91148  20160819.941    20160824.8994
  23642688.713    -7025304.963 8  -5452243.92346  23642688.937    23642695.4034
  23007024.743    -4955473.055 8  -3848763.21746  23007031.737    23007038.4864
  20854059.729   -19426053.166 9 -15115832.64047  20854063.045    20854067.5084
  22468996.434   -11030251.199 8  -8323768.49246  22468998.950    22469004.4244
  22962677.112    -4526325.772 8  -3502334.04146  22962682.028    22962688.1854
 00  6 30  1 36  0.0000000  0  7 29 05 06 24 30 09 04
  22079899.636    -4828773.055 8  -3744911.47846  22079902.621    22079908.3134
  20163733.455   -22747695.572 9 -17709715.74948  20163736.445    20163741.2784
  23622776.442    -7129943.009 8  -5533779.96946  23622776.824    23622782.5694
  22994514.184    -5021246.512 8  -3900015.24346  22994515.913    22994522.7934
  20843332.342   -19482434.942 9 -15159766.46447  20843333.688    20843338.3154
  22487202.826   -10934540.417 8  -8249188.73346  22487211.734    22487218.1044
  22961003.337    -4535127.622 8  -3509192.63646  22961007.513    22961013.0334
 00  6 30  1 36 30.0000000  0  7 29 05 06 24 30 09 04
  22085955.897    -4796981.556 8  -3720138.89446  22085954.090    22085958.5974
  20166726.377   -22731971.731 9 -17697463.40348  20166728.917    20166733.5314
  23602893.086    -7234409.870 8  -5615182.63946  23602897.258    23602903.6944
  22982076.684    -5086604.137 8  -3950943.24446  22982078.821    22982085.2774
  20832669.261   -19538466.984 9 -15203427.78147  20832671.710    20832675.4824
  22505474.972   -10838568.789 8  -8174405.70646  22505475.106    22505480.8454
  22959445.565    -4543323.151 8  -3515578.75746  22959448.340    22959454.5334
 00  6 30  1 37  0.0000000  0  7 29 05 06 24 30 09 04
  22092107.432    -4764633.325 8  -3694932.51946  22092108.779    22092114.2544
  20169793.811   -22715851.492 9 -17684902.18748  20169796.539    20169801.2444
  23583048.475    -7338703.434 8  -5696450.26346  23583051.523    23583056.6624
  22969714.950    -5151543.399 8  -4001545.26646  22969720.704    22969727.7044
  20822073.740   -19594148.506 9 -15246815.96747  20822075.609    20822079.6344
  22523782.667   -10742337.979 8  -8099420.70146  22523786.708    22523792.8764
  22957998.136    -4550911.855 8  -3521492.05046  22958004.048    22958008.4644
 00  6 30  1 37 30.0000000  0  7 29 05 06 24 30 09 04
  22098370.589    -4731729.729 8  -3669293.37046  22098370.477    22098375.4414
  20172937.574   -22699335.132 9 -17672032.30148  20172939.627    20172943.8674
  23563233.296    -7442821.913 8  -5777581.48246  23563237.203    23563244.0794
  22957439.290    -5216061.654 8  -4051819.20046  22957443.069    22957451.0814
  20811545.600   -19649478.323 9 -15289930.10048  20811547.472    20811550.7814
  22542147.350   -10645849.728 8  -8024235.08246  22542148.238    22542153.3574
  22956670.515    -4557893.158 8  -3526932.02246  22956675.407    22956682.2714
 00  6 30  1 38  0.0000000  0  7 29 05 06 24 30 09 04
  22104729.153    -4698272.173 8  -3643222.56646  22104736.103    22104741.9074
  20176156.059   -22682423.044 9 -17658854.05948  20176157.923    20176162.2914
  23543453.793    -7546763.371 8  -5858574.74146  23543458.484    23543464.5804
  22945241.123    -5280156.535 8  -4101763.24646  22945246.076    22945253.0544
  20801083.334   -19704455.554 9 -15332769.49348  20801084.718    20801089.1304
  22560557.257   -10549105.711 8  -7948850.18546  22560558.634    22560563.5504
  22955457.651    -4564266.618 8  -3531898.40246  22955462.646    22955469.7084
 00  6 30  1 38 30.0000000  0  7 29 05 06 24 30 09 04
  22111206.228    -4664261.990 8  -3616721.17546  22111209.421    22111213.7284
  20179449.675   -22665115.608 9 -17645367.74348  20179451.439    20179455.9414
  23523713.082    -7650525.832 8  -5939428.52646  23523712.355    23523718.3914
  22933125.761    -5343825.427 8  -4151375.39546  22933130.710    22933137.5664
  20790687.220   -19759079.342 9 -15375333.46647  20790689.773    20790694.5814
  22579014.891   -10452107.833 8  -7873267.44646  22579018.073    22579021.7054
  22954362.217    -4570031.392 8  -3536390.42146  22954366.321    22954371.2554
 00  6 30  1 39  0.0000000  0  7 29 05 06 24 30 09 04
  22117783.716    -4629700.537 8  -3589790.16046  22117785.724    22117791.1914
  20182818.339   -22647413.258 9 -17631573.70948  20182820.144    20182824.4684
  23503998.786    -7754107.616 8  -6020141.53346  23504002.733    23504008.1324
  22921093.204    -5407065.846 8  -4200653.64446  22921096.423    22921103.3654
  20780361.946   -19813348.610 9 -15417621.19247  20780362.857    20780367.3074
  22597523.434   -10354857.723 8  -7797488.16346  22597522.578    22597527.7334
  22953382.973    -4575187.349 8  -3540408.06946  22953384.105    22953390.1584
 00  6 30  1 39 30.0000000  0  7 29 05 06 24 30 09 04
  22124465.749    -4594589.359 8  -3562430.83246  22124466.843    22124473.1244
  20186262.509   -22629316.387 9 -17617472.26048  20186263.821    20186268.1294
  23484323.048    -7857506.887 8  -6100712.32246  23484324.956    23484332.0914
  22909141.715    -5469875.335 8  -4249596.07146  22909145.088    22909150.5264
  20770102.065   -19867262.591 9 -15459632.06747  20770103.345    20770107.5134
  22616075.666   -10257356.753 8  -7721513.43846  22616076.052    22616082.6714
  22952514.703    -4579734.045 8  -3543950.94446  22952518.776    22952525.0364
 00  6 30  1 40  0.0000000  0  7 29 05 06 24 30 09 04
  22131251.012    -4558929.933 8  -3534644.28546  22131252.198    22131257.8754
  20189778.960   -22610825.560 9 -17603063.83448  20189782.166    20189787.2734
  23464680.664    -7960721.806 8  -6181139.41846  23464683.994    23464690.9094
  22897275.346    -5532251.399 8  -4298200.80946  22897274.670    22897281.3144
  20759910.244   -19920820.459 9 -15501365.45547  20759911.481    20759915.9194
  22634676.053   -10159606.766 8  -7645344.70546  22634677.129    22634682.3004
  22951769.790    -4583670.888 8  -3547018.63246  22951770.049    22951775.6314
 00  6 30  1 40 30.0000000  0  7 29 05 06 24 30 09 04
  22138138.662    -4522723.698 8  -3506431.65446  22138142.027    22138147.0434
  20193375.936   -22591941.158 9 -17588348.72448  20193375.883    20193380.3854
  23445076.736    -8063750.387 8  -6261421.38246  23445077.108    23445084.1044
  22885486.118    -5594191.745 8  -4346466.00446  22885488.422    22885493.9184
  20749784.792   -19974021.267 9 -15542820.62147  20749787.817    20749792.4424
  22653324.233   -10061609.519 8  -7568983.24746  22653326.367    22653331.2744
  22951134.690    -4586997.729 8  -3549611.00446  22951137.105    22951141.8874
 00  6 30  1 41  0.0000000  0  7 29 05 06 24 30 09 04
  22145132.387    -4485972.083 8  -3477794.11446  22145135.694    22145141.6354
  20197041.214   -22572663.523 9 -17573327.19848  20197044.435    20197049.0164
  23425507.631    -8166591.048 8  -6341556.87346  23425508.682    23425515.4334
  22873778.405    -5655693.550 8  -4394389.48746  22873784.542    22873792.1934
  20739731.252   -20026864.191 9 -15583996.91047  20739732.207    20739736.5164
  22672020.362    -9963366.691 8  -7492430.42846  22672020.761    22672026.0324
  22950619.495    -4589713.997 8  -3551727.60346  22950620.592    22950626.0224
 00  6 30  1 41 30.0000000  0  7 29 05 06 24 30 09 04
  22152231.176    -4448676.671 8  -3448732.77246  22152232.113    22152238.9024
  20200785.589   -22552993.117 9 -17557999.60748  20200787.272    20200792.0874
  23405971.753    -8269241.757 8  -6421544.34946  23405975.243    23405982.0854
  22862165.719    -5716754.676 8  -4441969.57046  22862165.088    22862171.5844
  20729743.894   -20079348.213 9 -15624893.53147  20729744.966    20729748.8294
  22690758.688    -9864880.105 8  -7415687.66646  22690761.863    22690767.9684
  22950214.384    -4591819.188 8  -3553368.01646  22950219.866    22950225.9094
 00  6 30  1 42  0.0000000  0  7 29 05 06 24 30 09 04
  22159430.094    -4410838.935 8  -3419248.84046  22159433.664    22159439.4604
  20204602.743   -22532930.473 9 -17542366.38548  20204605.120    20204609.6684
  23386473.682    -8371700.954 8  -6501382.61046  23386478.130    23386485.1634
  22850625.693    -5777372.583 8  -4489204.29846  22850629.792    22850635.6934
  20719823.446   -20131472.722 9 -15665510.02347  20719825.512    20719830.1154
  22709545.689    -9766151.595 8  -7338756.40446  22709549.325    22709555.6974
  22949933.299    -4593313.300 8  -3554532.30346  22949936.059    22949941.6574
 00  6 30  1 42 30.0000000  0  7 29 05 06 24 30 09 04
  22166734.611    -4372460.521 8  -3389343.61146  22166736.860    22166742.5714
  20208495.840   -22512475.982 9 -17526427.82548  20208497.229    20208502.6104
  23367017.158    -8473966.637 8  -6581070.08946  23367017.468    23367023.7504
  22839180.595    -5837544.956 8  -4536091.85146  22839180.052    22839186.5584
  20709971.654   -20183236.549 9 -15705845.44648  20709975.091    20709980.2614
  22728377.548    -9667182.810 8  -7261637.91246  22728382.538    22728388.0444
  22949761.773    -4594195.826 8  -3555220.01946  22949767.756    22949773.0244
 00  6 30  1 43  0.0000000  0  7 29 05 06 24 30 09 04
  22174138.516    -4333543.032 8  -3359018.33746  22174142.546    22174148.2544
  20212461.588   -22491630.198 9 -17510184.36148  20212464.454    20212469.1694
  23347589.672    -8576036.986 8  -6660605.34546  23347593.212    23347599.1194
  22827808.323    -5897269.403 8  -4582630.36546  22827813.952    22827820.8394
  20700189.986   -20234638.753 9 -15745899.09448  20700193.800    20700198.2394
  22747259.905    -9567975.420 8  -7184333.49546  22747262.106    22747266.9964
  22949708.570    -4594466.690 8  -3555431.10946  22949715.279    22949721.2024
 00  6 30  1 43 30.0000000  0  7 29 05 06 24 30 09 04
  22181647.355    -4294087.952 8  -3328274.15846  22181650.225    22181656.1664
  20216503.695   -22470393.655 9 -17493636.41548  20216505.615    20216510.6294
  23328202.667    -8677910.089 8  -6739986.90546  23328206.821    23328212.1444
  22816528.819    -5956543.581 8  -4628818.02746  22816534.308    22816540.7204
  20690480.307   -20285678.593 9 -15785670.38948  20690481.654    20690485.6374
  22766182.212    -9468531.057 8  -7106844.40046  22766185.479    22766191.7914
  22949774.504    -4594125.546 8  -3555165.29646  22949781.034    22949786.4804
 00  6 30  1 44  0.0000000  0  8 29 05 06 24 25 30 09 04
  22189256.627    -4254096.958 8  -3297112.35246  22189259.940    22189265.9684
  20220618.777   -22448766.870 9 -17476784.38548  20220620.637    20220625.8754
  23308852.040    -8779584.167 8  -6819213.39046  23308859.421    23308865.2444
  22805335.709    -6015365.117 8  -4674652.97646  22805341.251    22805347.6534
  24846417.995     -292839.26017
  20680836.138   -20336355.317 9 -15825158.72448  20680838.048    20680842.3084
  22785149.554    -9368851.548 8  -7029172.11846  22785153.634    22785159.5904
  22949962.713    -4593172.122 8  -3554422.38846  22949962.288    22949967.5884
 00  6 30  1 44 30.0000000  0  8 29 05 06 24 25 30 09 04
  22196964.133    -4213571.669 8  -3265534.24546  22196972.046    22196978.0244
  20224807.448   -22426750.236 9 -17459628.56648  20224810.471    20224815.5204
  23289548.891    -8881057.398 8  -6898283.35846  23289551.113    23289555.6334
  22794234.041    -6073731.478 8  -4720133.22946  22794234.840    22794241.1994
  24826782.435     -395995.244 7
  20671262.917   -20386667.931 9 -15864363.34448  20671264.133    20671267.9264
  22804159.924    -9268938.579 8  -6951317.87246  22804166.170    22804172.4794
  22950255.582    -4591606.164 8  -3553202.16246  22950259.632    22950265.9924
 00  6 30  1 45  0.0000000  0  8 29 05 06 24 25 30 09 04
  22204784.966    -4172514.008 8  -3233541.32746  22204786.187    22204790.0374
  20229071.876   -22404344.062 9 -17442169.22448  20229074.034    20229079.0044
  23270275.646    -8982327.882 8  -6977195.37346  23270278.866    23270285.6384
  22783215.337    -6131640.464 8  -4765257.09346  22783215.156    22783221.6284
  24807172.009     -499066.893 7
  20661753.251   -20436615.620 9 -15903283.61348  20661758.625    20661763.1864
  22823216.175    -9168793.936 8  -6873283.15246  22823223.151    22823228.7974
  22950672.826    -4589427.866 8  -3551504.82646  22950674.365    22950678.7144
 00  6 30  1 45 30.0000000  0  8 29 05 06 24 25 30 09 04
  22212694.666    -4130925.178 8  -3201134.48046  22212698.544    22212705.3984
  20233409.471   -22381548.874 9 -17424406.74748  20233412.085    20233416.7494
  23251045.183    -9083393.881 8  -7055948.02346  23251046.683    23251053.0984
  22772278.605    -6189089.791 8  -4810022.78046  22772282.771    22772288.8654
  24787569.261     -602052.292 7   -209509.35254  24787577.322    24787586.0544
  20652322.148   -20486197.501 9 -15941918.82048  20652323.557    20652328.0884
  22842320.455    -9068419.274 8  -6795069.17846  22842323.650    22842329.8894
  22951202.095    -4586636.821 8  -3549330.03346  22951206.448    22951212.0194
 00  6 30  1 46  0.0000000  0  8 29 05 06 24 25 30 09 04
  22220712.357    -4088807.243 8  -3168315.34846  22220714.051    22220720.1024
  20237822.410   -22358365.061 9 -17406341.44648  20237823.248    20237828.3664
  23231848.274    -9184253.463 8  -7134539.83146  23231852.771    23231859.3664
  22761437.741    -6246077.058 8  -4854428.38946  22761438.237    22761444.3784
  24768003.154     -704949.257 7   -289688.70944  24767996.714    24768010.1714
  20642954.657   -20535412.826 9 -15980268.39748  20642958.211    20642963.1644
  22861466.684    -8967816.482 8  -6716677.43346  22861468.078    22861472.7344
  22951856.038    -4583232.963 8  -3546677.69746  22951854.675    22951859.3124
 00  6 30  1 46 30.0000000  0  8 29 05 06 24 25 30 09 04
  22228829.055    -4046161.868 8  -3135085.20346  22228829.965    22228834.9564
  20242307.603   -22334793.244 9 -17387973.80648  20242309.280    20242313.8184
  23212698.809    -9284904.912 8  -7212969.44346  23212699.646    23212705.2174
  22750678.868    -6302599.999 8  -4898472.22046  22750681.311    22750688.0634
  24748418.555     -807755.608 7   -369797.40144  24748437.236    24748445.9044
  20633661.080   -20584260.589 9 -16018331.56948  20633662.973    20633667.1204
  22880649.970    -8866987.148 8  -6638109.15546  22880656.033    22880661.2944
  22952612.792    -4579216.192 8  -3543547.78346  22952618.012    22952625.1204
 00  6 30  1 47  0.0000000  0  8 29 05 06 24 25 30 09 04
  22237043.250    -4002990.659 8  -3101445.33446  22237044.881    22237051.3204
  20246867.623   -22310833.826 9 -17369304.13048  20246868.496    20246873.4564
  23193584.366    -9385346.665 8  -7291235.68846  23193585.529    23193592.2664
  22740014.028    -6358656.456 8  -4942152.54946  22740015.242    22740021.4694
  24728881.243     -910470.019 7   -449834.50244  24728885.235    24728896.4914
  20624435.566   -20632739.937 9 -16056107.67548  20624437.888    20624442.1454
  22899885.000    -8765933.104 8  -6559365.77746  22899885.004    22899891.3834
  22953492.880    -4574586.480 8  -3539940.26146  22953498.546    22953504.1934
 00  6 30  1 47 30.0000000  0  8 29 05 06 24 25 30 09 04
  22245354.875    -3959295.512 8  -3067397.21946  22245360.313    22245366.0864
  20251497.151   -22286487.528 9 -17350333.00448  20251501.314    20251506.6384
  23174512.155    -9485576.667 8  -7369336.91446  23174513.532    23174520.3284
  22729433.168    -6414244.218 8  -4985467.65746  22729436.925    22729442.2734
  24709360.360    -1013090.294 7   -529798.24544  24709363.112    24709372.5004
  20615278.918   -20680850.036 9 -16093596.05048  20615282.453    20615287.2804
  22919152.126    -8664656.048 8  -6480448.63146  22919157.767    22919163.8524
  22954494.253    -4569343.743 8  -3535855.02746  22954496.948    22954503.3134
 00  6 30  1 48  0.0000000  0  8 29 05 06 24 25 30 09 04
  22253768.554    -3915078.149 8  -3032942.15846  22253773.507    22253779.8424
  20256206.780   -22261754.839 9 -17331060.78848  20256208.123    20256213.4924
  23155478.321    -9585593.153 8  -7447271.75346  23155480.379    23155488.4684
  22718940.335    -6469360.906 8  -5028415.69646  22718948.094    22718955.0954
  24689846.111    -1115614.446 7   -609687.07944  24689849.001    24689860.5104
  20606194.243   -20728590.056 9 -16130796.03248  20606197.406    20606202.5504
  22938469.310    -8563157.743 8  -6401359.07746  22938471.975    22938478.0974
  22955605.559    -4563488.069 8  -3531292.20346  22955611.040    22955616.7834
 00  6 30  1 48 30.0000000  0  8 29 05 06 24 25 30 09 04
  22262280.007    -3870340.553 8  -2998081.73746  22262286.896    22262292.3694
  20260986.289   -22236636.091 9 -17311487.74248  20260987.975    20260992.8274
  23136491.131    -9685394.322 8  -7525038.84246  23136489.633    23136495.4734
  22708545.299    -6524004.236 8  -5070994.88046  22708549.491    22708557.2554
  24670357.332    -1218040.506 7   -689499.44444  24670361.515    24670367.9724
  20597181.255   -20775959.226 9 -16167707.05248  20597183.682    20597188.4084
  22957820.375    -8461440.149 8  -6322098.64746  22957828.079    22957834.2264
  22956842.923    -4557019.452 8  -3526251.72346  22956842.192    22956847.6384
 00  6 30  1 49  0.0000000  0  7 29 05 06 24 30 09 04
  22270903.135    -3825084.172 8  -2962817.03346  22270900.761    22270904.6804
  20265836.482   -22211131.749 9 -17291614.23948  20265841.134    20265846.0944
  23117537.963    -9784978.450 8  -7602636.78046  23117539.727    23117545.7624
  22698241.465    -6578172.105 8  -5113203.57646  22698242.786    22698248.5234
  20588238.582   -20822956.528 9 -16204328.32048  20588241.245    20588244.7734
  22977222.830    -8359504.748 8  -6242668.50646  22977226.955    22977231.7424
  22958189.835    -4549937.874 8  -3520733.66646  22958189.869    22958196.0494
 00  6 30  1 49 30.0000000  0  7 29 05 06 24 30 09 04
  22279604.869    -3779311.129 8  -2927149.75546  22279610.926    22279615.3064
  20270765.327   -22185242.323 9 -17271440.67848  20270767.692    20270772.7104
  23098628.746    -9884343.702 8  -7680064.20246  23098630.802    23098636.9504
  22688022.847    -6631862.344 8  -5155040.08146  22688025.377    22688032.0484
  20579366.709   -20869581.358 9 -16240659.34548  20579368.399    20579372.2564
  22996665.505    -8257353.301 8  -6163070.01846  22996665.543    22996671.3124
  22959652.291    -4542243.504 8  -3514738.10146  22959653.695    22959659.7394
 00  6 30  1 50  0.0000000  0  7 29 05 06 24 30 09 04
  22288414.854    -3733023.232 8  -2891081.31146  22288418.757    22288424.5084
  20275764.446   -22158968.341 9 -17250967.45948  20275767.836    20275772.5914
  23079759.733    -9983488.336 8  -7757319.68546  23079764.360    23079770.0084
  22677898.255    -6685072.790 8  -5196502.71846  22677899.514    22677905.9734
  20570564.226   -20915832.832 9 -16276699.44348  20570566.746    20570570.9644
  23016143.572    -8154987.727 8  -6083304.67246  23016145.360    23016149.9314
  22961233.162    -4533936.491 8  -3508265.13846  22961234.585    22961239.5494
 00  6 30  1 50 30.0000000  0  7 29 05 06 24 30 09 04
  22297320.535    -3686222.304 8  -2854613.07646  22297324.333    22297329.2154
  20280839.773   -22132310.345 9 -17230195.00748  20280840.587    20280845.4404
  23060937.334   -10082410.447 8  -7834401.81746  23060939.794    23060945.8434
  22667859.826    -6737801.105 8  -5237589.67546  22667865.842    22667873.4784
  20561834.132   -20961710.223 9 -16312448.04348  20561836.807    20561841.3264
  23035668.537    -8052409.970 8  -6003373.97146  23035664.918    23035670.1504
  22962931.662    -4525016.776 8  -3501314.72446  22962932.716    22962937.8464
 00  6 30  1 51  0.0000000  0  7 29 05 06 24 30 09 04
  22306326.120    -3638910.286 8  -2817746.58146  22306327.365    22306333.4874
  20285985.908   -22105268.813 9 -17209123.69848  20285986.701    20285991.3354
  23042158.891   -10181108.524 8  -7911309.31846  23042158.306    23042164.5294
  22657923.591    -6790045.230 8  -5278299.35446  22657924.906    22657930.7184
  20553176.658   -21007212.547 9 -16347904.37848  20553178.087    20553182.1354
  23055220.771    -7949621.480 8  -5923279.06146  23055224.522    23055230.6014
  22964747.149    -4515484.460 8  -3493886.96846  22964746.251    22964752.5704
 00  6 30  1 51 30.0000000  0  7 29 05 06 24 30 09 04
  22315422.128    -3591089.112 8  -2780483.36046  22315426.764    22315433.2264
  20291205.112   -22077844.398 9 -17187754.04148  20291205.172    20291210.0594
  23023416.987   -10279580.763 8  -7988040.89646  23023419.884    23023425.8194
  22648069.489    -6841803.200 8  -5318630.20846  22648075.143    22648080.5074
  20544588.808   -21052338.857 9 -16383067.72848  20544590.545    20544595.3394
  23074816.482    -7846624.083 8  -5843021.40446  23074823.953    23074830.8254
  22966670.212    -4505339.998 8  -3485982.27146  22966676.167    22966683.2224
 00  6 30  1 52  0.0000000  0  7 29 05 06 24 30 09 04
  22324622.036    -3542760.658 8  -2742824.87746  22324623.809    22324629.1664
  20296493.130   -22050037.723 9 -17166086.51448  20296496.727    20296501.7284
  23004725.860   -10377825.332 8  -8064595.04446  23004724.040    23004729.6384
  22638315.447    -6893072.652 8  -5358580.41046  22638317.959    22638325.1584
  20536072.167   -21097088.565 9 -16417937.60648  20536074.524    20536079.0204
  23094460.089    -7743419.732 8  -5762602.44846  23094462.925    23094468.7434
  22968721.375    -4494583.342 8  -3477600.49546  22968723.054    22968730.4204
 00  6 30  1 52 30.0000000  0  7 29 05 06 24 30 09 04
  22333917.456    -3493927.057 8  -2704772.76746  22333917.126    22333921.9414
  20301860.705   -22021849.242 9 -17144121.47348  20301861.224    20301865.7214
  22986067.572   -10475840.479 8  -8140970.42346  22986071.915    22986077.5834
  22628655.231    -6943851.632 8  -5398148.42046  22628656.587    22628662.5864
  20527628.338   -21141460.847 9 -16452513.39148  20527631.111    20527635.1754
  23114142.922    -7640010.268 8  -5682023.67946  23114142.677    23114147.8404
  22970881.972    -4483214.845 8  -3468741.93046  22970886.785    22970892.7944
 00  6 30  1 53  0.0000000  0  7 29 05 06 24 30 09 04
  22343303.070    -3444590.173 8  -2666328.48746  22343304.187    22343310.5484
  20307294.646   -21993279.464 9 -17121859.32848  20307297.602    20307302.3454
  22967464.225   -10573624.433 8  -8217165.67046  22967463.774    22967469.8114
  22619082.829    -6994138.203 8  -5437332.72246  22619086.562    22619093.0154
  20519257.522   -21185454.808 9 -16486794.39548  20519259.604    20519263.5234
  23133857.539    -7536397.292 8  -5601286.34546  23133858.638    23133863.9384
  22973160.121    -4471234.864 8  -3459406.92446  22973166.608    22973173.2864
 00  6 30  1 53 30.0000000  0  7 29 05 06 24 30 09 04
  22352785.060    -3394751.788 8  -2627493.42146  22352789.154    22352793.9394
  20312804.726   -21964329.100 9 -17099300.61148  20312806.571    20312811.3604
  22948898.969   -10671175.478 8  -8293179.39746  22948901.100    22948906.2484
  22609606.341    -7043930.004 8  -5476131.49446  22609611.525    22609617.7454
  20510957.138   -21229069.644 9 -16520779.97348  20510960.074    20510964.0044
  23153607.120    -7432582.561 8  -5520391.77546  23153612.860    23153618.7144
  22975561.582    -4458643.533 8  -3449595.55646  22975562.187    22975569.1464
 00  6 30  1 54  0.0000000  0  7 29 05 06 24 30 09 04
  22362368.811    -3344414.050 8  -2588269.23146  22362367.942    22362374.3464
  20318385.832   -21934998.488 9 -17076445.60448  20318388.314    20318392.7134
  22930381.290   -10768491.933 8  -8369010.34046  22930382.424    22930388.5464
  22600226.377    -7093225.187 8  -5514543.29946  22600229.960    22600237.3764
  20502730.354   -21272304.637 9 -16554469.57048  20502732.625    20502736.4994
  23173404.326    -7328567.944 8  -5439341.47846  23173407.247    23173413.4624
  22978072.513    -4445441.143 8  -3439308.01446  22978075.102    22978080.9244
 00  6 30  1 54 30.0000000  0  7 29 05 06 24 30 09 04
  22372041.358    -3293579.041 8  -2548657.58146  22372041.744    22372047.3314
  20324040.125   -21905288.370 9 -17053294.87848  20324041.818    20324046.6624
  22911904.835   -10865571.901 8  -8444657.03046  22911908.429    22911913.8804
  22590940.998    -7142021.814 8  -5552566.64346  22590945.391    22590951.4384
  20494573.635   -21315158.970 9 -16587862.54348  20494577.363    20494581.5544
  23193238.250    -7224354.936 8  -5358136.57946  23193238.468    23193244.2374
  22980701.887    -4431628.177 8  -3428544.70046  22980703.378    22980709.5574
 00  6 30  1 55  0.0000000  0  7 29 05 06 24 30 09 04
  22381804.134    -3242248.754 8  -2508659.99346  22381809.502    22381815.4494
  20329764.931   -21875199.198 9 -17029848.77748  20329767.531    20329772.4904
  22893476.843   -10962413.617 8  -8520118.07646  22893480.086    22893484.9984
  22581749.384    -7190317.751 8  -5590199.79446  22581755.074    22581761.3314
  20486492.720   -21357631.543 9 -16620958.03248  20486495.165    20486499.3194
  23213101.435    -7119945.718 8  -5276778.81746  23213106.502    23213112.6794
  22983445.716    -4417204.775 8  -3417305.73846  22983448.591    22983454.5184
 00  6 30  1 55 30.0000000  0  8 29 05 06 24 25 30 09 04
  22391668.613    -3190425.249 8  -2468278.10446  22391671.673    22391676.9184
  20335563.374   -21844731.506 9 -17006107.73548  20335564.856    20335570.1494
  22875098.185   -11059015.317 8  -8595392.05546  22875097.123    22875102.8634
  22572657.979    -7238111.004 8  -5627441.27046  22572659.155    22572666.1954
  24399647.707      -92489.03717
  20478483.653   -21399721.696 9 -16653755.55548  20478485.546    20478490.0224
  23233007.435    -7015341.996 8  -5195269.48746  23233012.492    23233018.6204
  22986305.615    -4402171.479 8  -3405591.51646  22986309.693    22986314.6124
 00  6 30  1 56  0.0000000  0  8 29 05 06 24 25 30 09 04
  22401620.713    -3138110.666 8  -2427513.53446  22401627.493    22401632.1834
  20341432.611   -21813885.679 9 -16982072.03848  20341435.372    20341439.7494
  22856758.415   -11155375.479 8  -8670477.87746  22856760.850    22856766.7674
  22563653.318    -7285399.559 8  -5664289.49046  22563660.614    22563667.5664
  24380476.434     -193207.709 7   -131579.76855  24380486.511    24380492.7814
  20470546.061   -21441429.127 9 -16686254.84048  20470548.407    20470553.1234
  23252956.187    -6910545.679 8  -5113610.02046  23252955.038    23252959.4954
  22989285.395    -4386528.588 8  -3393402.28346  22989286.183    22989292.9124
 00  6 30  1 56 30.0000000  0  8 29 05 06 24 25 30 09 04
  22411675.191    -3085306.965 8  -2386367.81846  22411675.539    22411680.1214
  20347375.290   -21782662.334 9 -16957742.17248  20347377.107    20347381.2374
  22838464.629   -11251492.359 8  -8745374.08946  22838469.971    22838476.4994
  22554756.129    -7332181.678 8  -5700743.09446  22554758.954    22554763.7964
  24361341.386     -293796.567 7   -209960.54345  24361343.725    24361352.2674
  20462682.664   -21482752.725 9 -16718455.02948  20462685.398    20462689.5644
  23272929.804    -6805558.353 8  -5031801.75946  23272933.146    23272939.0604
  22992371.325    -4370276.662 8  -3380738.48446  22992378.734    22992385.2644
 00  6 30  1 57  0.0000000  0  8 29 05 06 24 25 30 09 04
  22421813.694    -3032016.405 8  -2344842.73246  22421815.428    22421821.2864
  20353389.368   -21751062.157 9 -16933118.67448  20353389.984    20353394.3874
  22820225.621   -11347364.279 8  -8820079.44846  22820226.410    22820231.4484
  22545952.216    -7378455.225 8  -5736800.40346  22545953.051    22545959.7694
  24342224.382     -394253.302 8   -288238.37045  24342227.668    24342236.8014
  20454893.380   -21523691.606 9 -16750355.44548  20454895.553    20454899.1204
  23292945.153    -6700381.776 8  -4949846.04446  23292947.099    23292953.6934
  22995587.236    -4353416.020 8  -3367600.39646  22995587.722    22995593.2294
 00  6 30  1 57 30.0000000  0  8 29 05 06 24 25 30 09 04
  22432051.824    -2978240.806 8  -2302939.70346  22432049.639    22432054.8574
  20359473.129   -21719085.793 9 -16908202.03148  20359474.844    20359479.3784
  22802031.047   -11442989.380 8  -8894592.46446  22802029.514    22802035.4014
  22537240.597    -7424218.344 8  -5772459.94746  22537244.891    22537250.8304
  24323130.287     -494575.991 7   -366411.79245  24323135.597    24323144.7774
  20447177.047   -21564245.242 9 -16781955.67648  20447178.529    20447181.9214
  23312994.184    -6595017.905 8  -4867744.35146  23312998.262    23313002.8204
  22998907.192    -4335947.237 8  -3353988.39146  22998911.194    22998916.7194
 00  6 30  1 58  0.0000000  0  8 29 05 06 24 25 30 09 04
  22442371.842    -2923982.860 8  -2260660.80846  22442374.382    22442379.0874
  20365629.125   -21686733.850 9 -16882992.74248  20365631.415    20365635.7104
  22783877.853   -11538366.127 8  -8968911.96146  22783878.117    22783884.9644
  22528631.028    -7469469.078 8  -5807720.24346  22528633.994    22528640.4254
  24304059.924     -594762.699 7   -444479.21545  24304071.257    24304080.5844
  20439531.641   -21604412.742 9 -16813255.01848  20439534.523    20439538.1914
  23333079.646    -6489468.338 8  -4785497.98046  23333082.238    23333088.8714
  23002348.683    -4317870.895 8  -3339902.94546  23002350.927    23002357.1854
 00  6 30  1 58 30.0000000  0  8 29 05 06 24 25 30 09 04
  22452788.240    -2869244.387 8  -2218007.47846  22452790.130    22452796.2084
  20371857.192   -21654006.889 9 -16857491.22648  20371858.776    20371863.5204
  22765774.791   -11633492.682 8  -9043036.48846  22765776.133    22765783.4914
  22520118.036    -7514205.684 8  -5842579.93346  22520121.286    22520127.0184
  24285026.700     -694811.120 7   -522438.92644  24285032.451    24285040.0944
  20431961.207   -21644193.263 9 -16844252.81348  20431964.494    20431968.5414
  23353201.802    -6383734.981 8  -4703108.35446  23353203.501    23353209.3554
  23005903.669    -4299187.270 8  -3325344.28646  23005905.762    23005913.3494
 00  6 30  1 59  0.0000000  0  8 29 05 06 24 25 30 09 04
  22463292.671    -2814027.394 8  -2174981.31046  22463297.873    22463304.0484
  20378157.196   -21620905.511 9 -16831697.95548  20378158.087    20378162.5964
  22747725.194   -11728367.314 8  -9116964.70946  22747723.260    22747730.2324
  22511702.536    -7558426.216 8  -5877037.48046  22511706.639    22511712.0284
  24266026.864     -794719.253 7   -600289.27744  24266020.372    24266028.9904
  20424465.494   -21683586.153 9 -16874948.56448  20424468.146    20424472.2764
  23373355.615    -6277819.700 8  -4620577.02046  23373357.910    23373364.2974
  23009571.972    -4279897.168 8  -3310313.09846  23009577.517    23009582.9374
 00  6 30  1 59 30.0000000  0  8 29 05 06 24 25 30 09 04
  22473896.362    -2758334.390 8  -2131584.18146  22473896.842    22473900.5174
  20384527.049   -21587430.240 9 -16805613.34148  20384528.180    20384533.1144
  22729714.219   -11822988.398 8  -9190695.38246  22729717.239    22729724.0064
  22503382.597    -7602128.813 8  -5911091.43946  22503388.506    22503396.3584
  24247032.181     -894484.879 7   -678028.59744  24247035.963    24247042.1384
  20417042.690   -21722590.708 9 -16905341.71448  20417045.564    20417050.3174
  23393552.623    -6171724.582 8  -4537905.57246  23393547.529    23393553.8724
  23013360.631    -4260001.250 8  -3294809.82546  23013363.145    23013369.4224
 00  6 30  2  0  0.0000000  0  8 29 05 06 24 25 30 09 04
  22484583.216    -2702167.353 8  -2087817.66746  22484583.948    22484590.1204
  20390967.772   -21553581.718 9 -16779237.88748  20390969.523    20390974.6144
  22711753.699   -11917354.233 8  -9264227.15246  22711761.037    22711765.9004
  22495165.727    -7645311.700 8  -5944740.43846  22495172.155    22495178.8434
  24228078.471     -994106.061 7   -755655.45844  24228078.217    24228084.6884
  20409696.349   -21761205.860 9 -16935431.43848  20409697.313    20409702.1544
  23413766.986    -6065451.021 8  -4455095.06446  23413770.874    23413776.9734
  23017258.373    -4239499.721 8  -3278834.65346  23017264.089    23017269.9614
 00  6 30  2  0 30.0000000  0  8 29 05 06 24 25 30 09 04
  22495358.831    -2645528.686 8  -2043683.67746  22495362.129    22495368.0314
  20397479.654   -21519360.473 9 -16752571.99148  20397481.521    20397486.4484
  22693852.284   -12011463.199 8  -9337558.79246  22693852.074    22693857.6644
  22487051.139    -7687973.250 8  -5977983.19047  22487054.375    22487060.5354
  24209143.293    -1093580.724 7   -833168.05144  24209149.665    24209154.7414
  20402420.655   -21799431.046 9 -16965217.28448  20402423.332    20402427.7254
  23434027.448    -5959001.066 8  -4372147.08246  23434026.363    23434033.1394
  23021283.787    -4218393.500 8  -3262388.28746  23021281.491    23021287.0374
 00  6 30  2  1  0.0000000  0  8 29 05 06 24 25 30 09 04
  22506227.743    -2588420.609 8  -1999183.88846  22506229.758    22506234.6464
  20404062.225   -21484767.161 9 -16725616.17448  20404064.323    20404069.0754
  22675988.125   -12105313.639 8  -9410688.91346  22675992.204    22675997.8294
  22479030.544    -7730111.292 8  -6010818.02046  22479035.055    22479041.3524
  24190250.971    -1192906.765 7   -910564.87244  24190249.720    24190253.7964
  20395220.559   -21837265.618 9 -16994698.76948  20395224.002    20395227.9514
  23454309.143    -5852376.551 8  -4289063.09446  23454316.908    23454323.6644
  23025409.076    -4196683.293 8  -3245471.26546  23025412.206    23025420.1314
 00  6 30  2  1 30.0000000  0  8 29 05 06 24 25 30 09 04
  22517184.734    -2530845.320 8  -1954320.08846  22517185.746    22517191.7894
  20410715.470   -21449802.117 9 -16698370.69848  20410718.160    20410722.8084
  22658181.296   -12198903.897 8  -9483616.36246  22658182.856    22658188.8584
  22471112.731    -7771724.255 8  -6043243.69146  22471116.274    22471122.3794
  24171378.791    -1292082.044 7   -987844.23544  24171375.885    24171381.9474
  20388097.161   -21874708.962 9 -17023875.38248  20388098.762    20388102.5664
  23474642.035    -5745579.286 8  -4205844.51246  23474641.286    23474646.0514
  23029657.926    -4174369.663 8  -3228084.07546  23029658.812    23029664.9694
 00  6 30  2  2  0.0000000  0  8 29 05 06 24 25 30 09 04
  22528231.624    -2472805.014 8  -1909093.90446  22528230.535    22528234.6234
  20417438.981   -21414466.039 9 -16670836.11248  20417442.351    20417447.1774
  22640420.207   -12292232.312 8  -9556339.75246  22640423.768    22640428.6464
  22463294.345    -7812810.547 8  -6075258.97546  22463298.577    22463304.6184
  24152505.350    -1391104.397 6  -1065004.44844  24152532.861    24152541.0354
  20381043.327   -21911760.273 9 -17052746.53948  20381047.999    20381051.6514
  23494992.234    -5638610.978 8  -4122492.63046  23494996.218    23495001.2704
  23034016.865    -4151453.385 8  -3210227.27246  23034019.818    23034024.9604
 00  6 30  2  2 30.0000000  0  7 29 05 06 24 30 09 04
  22539358.518    -2414301.965 8  -1863507.15246  22539362.988    22539370.1244
  20424235.235   -21378759.770 9 -16643013.05848  20424236.778    20424241.7004
  22622709.335   -12385297.194 8  -9628857.79946  22622713.293    22622719.2154
  22455575.681    -7853368.285 8  -6106862.39946  22455580.121    22455586.4184
  20374071.895   -21948418.556 9 -17081311.41848  20374072.327    20374076.1164
  23515376.635    -5531473.520 8  -4039008.97846  23515383.281    23515389.2104
  23038485.933    -4127935.113 8  -3191901.41746  23038493.889    23038501.9634
 00  6 30  2  3  0.0000000  0  8 29 05 06 24 25 30 09 04
  22550580.800    -2355338.643 8  -1817561.74246  22550583.000    22550590.1774
  20431099.349   -21342683.913 9 -16614902.01848  20431101.822    20431107.2574
  22605051.378   -12478096.829 8  -9701169.13946  22605054.051    22605059.7954
  22447960.340    -7893395.778 9  -6138052.65147  22447964.321    22447970.7594
  24114934.432      -44713.12217
  20367169.646   -21984683.132 9 -17109569.53248  20367171.545    20367175.2414
  23535796.078    -5424168.640 8  -3955394.86246  23535801.816    23535808.9984
  23043083.545    -4103815.710 8  -3173107.12146  23043084.058    23043090.7064
 00  6 30  2  3 30.0000000  0  8 29 05 06 24 25 30 09 04
  22561892.263    -2295917.362 8  -1771259.48646  22561891.767    22561896.9104
  20438031.631   -21306239.181 9 -16586503.53948  20438036.649    20438041.9234
  22587440.564   -12570629.433 8  -9773272.42946  22587446.581    22587451.9574
  22440443.832    -7932891.356 8  -6168828.42346  22440447.428    22440453.9754
  24096159.566     -143264.042 7
  20360344.181   -22020553.499 9 -17137520.46448  20360345.239    20360349.7694
  23556250.353    -5316698.160 8  -3871651.69846  23556253.960    23556260.0334
  23047782.709    -4079095.875 8  -3153844.94446  23047789.849    23047794.4584
 00  6 30  2  4  0.0000000  0  8 29 05 06 24 25 30 09 04
  22573280.234    -2236040.279 8  -1724602.06346  22573284.255    22573291.8664
  20445041.372   -21269426.138 9 -16557818.06848  20445042.598    20445047.2654
  22569885.767   -12662893.456 8  -9845166.40646  22569888.325    22569893.9164
  22433030.621    -7971853.443 8  -6199188.47646  22433033.478    22433039.5214
  24077446.901     -241653.461 7   -174664.71455  24077457.954    24077466.5274
  20353590.874   -22056028.657 9 -17165163.43848  20353594.238    20353598.8384
  23576736.544    -5209063.875 8  -3787780.88746  23576736.164    23576742.1924
  23052604.428    -4053776.365 8  -3134115.49446  23052607.376    23052612.8724
 00  6 30  2  4 30.0000000  0  8 29 05 06 24 25 30 09 04
  22584766.003    -2175709.947 8  -1677591.44646  22584765.572    22584772.5964
  20452117.017   -21232245.302 9 -16528846.00148  20452117.511    20452122.4184
  22552376.888   -12754887.497 8  -9916850.04146  22552381.817    22552388.2504
  22425717.828    -8010280.374 8  -6229131.54447  22425721.278    22425727.1644
  24058768.120     -339879.231 7   -251204.22545  24058765.840    24058773.5064
  20346916.410   -22091108.055 9 -17192498.02448  20346919.186    20346923.0324
  23597245.071    -5101267.796 8  -3703783.99046  23597248.588    23597255.8804
  23057537.391    -4027858.153 8  -3113919.56746  23057538.664    23057545.0904
 00  6 30  2  5  0.0000000  0  8 29 05 06 24 25 30 09 04
  22596328.854    -2114928.598 8  -1630229.39746  22596332.594    22596337.7954
  20459258.368   -21194697.361 9 -16499587.87748  20459262.597    20459267.2874
  22534929.232   -12846609.777 8  -9988321.89446  22534928.083    22534934.0844
  22418506.307    -8048170.486 8  -6258656.32047  22418510.692    22418517.5684
  24040097.790     -437939.525 7   -327614.74945  24040106.599    24040113.8674
  20340317.260   -22125791.016 9 -17219523.70148  20340319.309    20340323.3524
  23617789.872    -4993311.535 8  -3619662.29446  23617791.889    23617798.3114
  23062582.536    -4001341.913 8  -3093257.59646  23062585.200    23062591.7784
 00  6 30  2  5 30.0000000  0  8 29 05 06 24 25 30 09 04
  22607982.025    -2053698.639 8  -1582517.75946  22607984.612    22607989.7274
  20466475.498   -21156782.809 9 -16470044.09148  20466478.108    20466482.8474
  22517523.615   -12938058.557 8 -10059580.63546  22517526.920    22517533.0354
  22411398.737    -8085522.054 8  -6287761.44747  22411403.194    22411409.0404
  24021471.050     -535831.897 7   -403894.40045  24021476.398    24021485.3404
  20333790.900   -22160077.073 9 -17246240.11348  20333794.681    20333798.8014
  23638365.862    -4885197.155 8  -3535417.38546  23638366.183    23638370.9454
  23067743.385    -3974228.669 8  -3072130.41246  23067744.617    23067750.9174
 00  6 30  2  6  0.0000000  0  8 29 05 06 24 25 30 09 04
  22619719.922    -1992022.503 8  -1534458.46746  22619720.651    22619727.0614
  20473760.732   -21118502.563 9 -16440215.33948  20473762.119    20473766.9304
  22500175.814   -13029232.304 8 -10130625.06446  22500176.626    22500184.1624
  22404398.727    -8122333.616 8  -6316445.76847  22404398.135    22404404.6774
  24002872.134     -633554.376 7   -480041.69845  24002881.256    24002888.0124
  20327342.534   -22193965.067 9 -17272646.34148  20327345.989    20327350.4634
  23658962.781    -4776926.327 8  -3451050.55346  23658968.591    23658975.3474
  23073012.325    -3946519.357 8  -3050538.81646  23073017.060    23073024.1824
 00  6 30  2  6 30.0000000  0  8 29 05 06 24 25 30 09 04
  22631541.098    -1929902.594 8  -1486053.38046  22631542.839    22631547.9814
  20481113.656   -21079857.025 9 -16410101.95448  20481116.178    20481121.1594
  22482878.050   -13120129.461 8 -10201453.96146  22482879.434    22482885.2264
  22397493.527    -8158603.692 8  -6344708.17647  22397496.739    22397501.9324
  23984321.327     -731104.888 7   -556054.98845  23984317.596    23984321.6994
  20320969.750   -22227454.582 9 -17298742.05948  20320972.768    20320977.1984
  23679601.693    -4668501.007 8  -3366563.35946  23679602.476    23679608.3304
  23078397.763    -3918214.859 8  -3028483.43246  23078404.164    23078409.8504
 00  6 30  2  7  0.0000000  0  8 29 05 06 24 25 30 09 04
  22643442.850    -1867341.148 8  -1437304.25546  22643447.131    22643453.1904
  20488536.653   -21040846.881 9 -16379704.44448  20488539.630    20488544.6004
  22465632.764   -13210748.436 8 -10272066.10146  22465634.851    22465639.9974
  22390692.526    -8194330.589 8  -6372547.32546  22390696.069    22390703.4914
  23965786.123     -828480.954 8   -631932.34145  23965786.850    23965794.0894
  20314673.402   -22260544.780 9 -17324526.62848  20314676.139    20314680.7304
  23700263.670    -4559923.191 8  -3281957.31446  23700264.294    23700270.4424
  23083899.192    -3889316.078 8  -3005964.93946  23083903.382    23083908.0354
 00  6 30  2  7 30.0000000  0  8 29 05 06 24 25 30 09 04
  22655432.210    -1804340.785 8  -1388213.10746  22655435.410    22655442.1164
  20496030.176   -21001472.863 9 -16349023.40648  20496032.438    20496036.6164
  22448443.487   -13301087.521 8 -10342460.13846  22448444.469    22448449.7324
  22384002.724    -8229512.862 9  -6399962.10047  22384003.238    22384008.9674
  23947288.847     -925680.384 8   -707672.06445  23947291.681    23947296.8904
  20308454.113   -22293235.141 9 -17349999.62848  20308455.329    20308459.7774
  23720951.334    -4451194.526 8  -3197233.73445  23720953.886    23720961.0604
  23089514.804    -3859823.842 8  -2982984.00746  23089514.737    23089521.8584
 00  6 30  2  8  0.0000000  0  8 29 05 06 24 25 30 09 04
  22667508.605    -1740903.756 8  -1338781.69446  22667507.343    22667512.6944
  20503592.815   -20961735.615 9 -16318059.33548  20503594.172    20503598.4294
  22431303.670   -13391145.082 8 -10412634.80046  22431307.115    22431312.7244
  22377408.398    -8264148.928 9  -6426951.24647  22377411.887    22377418.1934
  23928829.800    -1022701.198 8   -783272.61645  23928828.732    23928836.3824
  20302307.671   -22325524.825 9 -17375160.42448  20302311.166    20302315.1754
  23741667.290    -4342316.512 8  -3112393.81345  23741672.490    23741679.5684
  23095231.480    -3829739.462 8  -2959541.69546  23095239.746    23095246.9834
 00  6 30  2  8 30.0000000  0  8 29 05 06 24 25 30 09 04
  22679660.331    -1677032.831 8  -1289012.16046  22679661.127    22679667.0084
  20511220.996   -20921635.729 9 -16286812.67548  20511224.628    20511229.5714
  22414220.086   -13480919.467 8 -10482588.85546  22414223.173    22414228.9594
  22370918.529    -8298237.435 8  -6453513.72647  22370924.429    22370930.8494
  23910390.118    -1119541.165 8   -858732.21645  23910400.416    23910408.5614
  20296240.512   -22357413.148 9 -17400008.47348  20296242.758    20296247.3434
  23762412.743    -4233291.346 8  -3027439.19245  23762419.499    23762425.2654
  23101076.374    -3799063.596 8  -2935638.49946  23101077.458    23101084.5774
 00  6 30  2  9  0.0000000  0  8 29 05 06 24 25 30 09 04
  22691894.395    -1612730.178 8  -1238906.24946  22691898.766    22691904.1044
  20518924.182   -20881173.824 9 -16255283.94148  20518924.522    20518929.3244
  22397186.677   -13570409.401 8 -10552321.19346  22397192.460    22397199.8614
  22364536.831    -8331777.021 8  -6479648.48247  22364542.273    22364547.9934
  23892005.615    -1216198.112 8   -934049.23045  23892008.689    23892014.9054
  20290249.503   -22388899.668 9 -17424543.42448  20290251.429    20290255.8114
  23783193.490    -4124121.021 8  -2942371.43345  23783194.274    23783199.0424
  23107027.394    -3767797.587 8  -2911275.42446  23107027.414    23107033.3184
 00  6 30  2  9 30.0000000  0  8 29 05 06 24 25 30 09 04
  22704215.615    -1547998.467 8  -1188466.01346  22704215.284    22704222.1414
  20526691.373   -20840350.681 9 -16223473.71248  20526692.996    20526697.6484
  22380219.600   -13659613.252 8 -10621830.63246  22380218.405    22380225.6614
  22358260.342    -8364766.128 8  -6505354.28547  22358264.733    22358270.6344
  23873646.939    -1312670.064 7  -1009222.08145  23873650.054    23873655.9574
  20284332.830   -22419983.685 9 -17448764.72748  20284336.208    20284340.8894
  23803995.473    -4014807.240 8  -2857191.93845  23803996.275    23804002.3904
  23113084.972    -3735942.437 8  -2886453.28846  23113088.883    23113095.2604
 00  6 30  2 10  0.0000000  0  8 29 05 06 24 25 30 09 04
  22716613.278    -1482840.153 8  -1137693.31546  22716615.461    22716620.8724
  20534527.022   -20799166.908 9 -16191382.48048  20534529.789    20534534.9604
  22363297.586   -13748529.389 8 -10691115.89046  22363298.466    22363304.3964
  22352089.127    -8397203.244 9  -6530629.96947  22352092.876    22352098.3814
  23855323.108    -1408954.595 7  -1084248.84245  23855326.841    23855333.5624
  20278495.004   -22450664.272 9 -17472671.67948  20278497.851    20278501.8724
  23824822.527    -3905351.689 8  -2771902.00845  23824824.724    23824831.8674
  23119259.001    -3703499.104 8  -2861172.83246  23119262.842    23119269.3444
 00  6 30  2 10 30.0000000  0  8 29 05 06 24 25 30 09 04
  22729089.639    -1417257.620 8  -1086590.08446  22729094.937    22729099.8984
  20542434.378   -20757623.026 9 -16159010.64748  20542435.572    20542440.3074
  22346428.812   -13837156.282 8 -10760175.76446  22346432.610    22346438.1734
  22346018.225    -8429087.033 8  -6555474.48847  22346024.266    22346031.3374
  23837024.822    -1505049.435 7  -1159127.83445  23837041.099    23837046.6264
  20272733.489   -22480940.863 9 -17496263.83048  20272736.077    20272740.6244
  23845676.134    -3795756.259 8  -2686503.00345  23845680.594    23845686.0224
  23125549.200    -3670468.874 8  -2835435.04746  23125549.044    23125555.5014
 00  6 30  2 11  0.0000000  0  8 29 05 06 24 25 30 09 04
  22741648.700    -1351253.603 8  -1035158.43746  22741654.887    22741661.4534
  20550408.144   -20715719.832 9 -16126358.82448  20550409.597    20550414.3444
  22329619.014   -13925492.185 8 -10829008.89446  22329623.578    22329629.2584
  22340061.564    -8460416.155 8  -6579886.80847  22340063.177    22340068.7724
  23818785.038    -1600952.616 7  -1233857.50444  23818789.323    23818796.5674
  20267048.822   -22510812.947 9 -17519540.78248  20267051.597    20267056.0234
  23866558.844    -3686022.908 8  -2600996.53645  23866561.909    23866568.0294
  23131935.173    -3636852.889 8  -2809240.86046  23131945.080    23131951.5944
 00  6 30  2 11 30.0000000  0  8 29 05 06 24 25 30 09 04
  22754292.141    -1284830.444 8   -983400.16746  22754295.256    22754300.3994
  20558448.397   -20673457.862 9 -16093427.43748  20558451.479    20558456.6074
  22312866.229   -14013535.692 8 -10897614.17046  22312869.075    22312874.4384
  22334204.560    -8491189.444 8  -6603866.02647  22334206.955    22334213.5714
  23800547.542                                    23800572.137    23800581.8874
  20261441.866   -22540279.674 9 -17542501.85648  20261444.289    20261448.7024
  23887464.144    -3576153.413 8  -2515383.99045  23887468.991    23887475.0014
  23138450.947    -3602652.229 8  -2782591.03846  23138453.709    23138459.8054
 00  6 30  2 12  0.0000000  0  7 29 05 06 24 30 09 04
  22767013.037    -1217990.874 8   -931317.41946  22767014.041    22767020.1614
  20566561.550   -20630837.946 9 -16060217.13048  20566562.390    20566567.2634
  22296170.630   -14101285.048 8 -10965990.24946  22296171.278    22296177.3214
  22328456.944    -8521405.427 8  -6627410.95547  22328457.296    22328463.5404
  20255912.016   -22569340.334 9 -17565146.53448  20255914.450    20255918.8664
  23908404.205    -3466149.717 7  -2429666.85745  23908402.515    23908406.8694
  23145075.103    -3567867.996 8  -2755486.51646  23145072.660    23145078.7384
 00  6 30  2 12 30.0000000  0  7 29 05 06 24 30 09 04
  22779809.973    -1150737.382 8   -878912.14646  22779812.359    22779818.2034
  20574737.093   -20587860.709 9 -16026728.40248  20574740.548    20574745.3274
  22279525.871   -14188738.926 8 -11034136.08346  22279530.041    22279534.4334
  22322810.888    -8551062.801 9  -6650520.61347  22322813.388    22322819.3984
  20250456.946   -22597994.835 9 -17587474.71248  20250461.520    20250466.1714
  23929356.803    -3356013.649 7  -2343846.59545  23929360.663    23929367.0734
  23151800.039    -3532501.323 8  -2727928.16146  23151802.930    23151808.6644
 00  6 30  2 13  0.0000000  0  7 29 05 06 24 30 09 04
  22792683.886    -1083072.610 8   -826186.40446  22792688.836    22792694.1954
  20582985.416   -20544527.005 9 -15992961.89448  20582986.308    20582991.2734
  22262939.953   -14275895.768 8 -11102050.48046  22262943.870    22262949.2594
  22317271.278    -8580160.167 8  -6673193.93247  22317276.148    22317282.8224
  20245084.518   -22626242.084 9 -17609485.55148  20245086.519    20245090.6484
  23950336.802    -3245747.012 7  -2257924.63545  23950343.290    23950350.3764
  23158647.152    -3496553.759 8  -2699917.14146  23158644.551    23158650.8614
 00  6 30  2 13 30.0000000  0  7 29 05 06 24 30 09 04
  22805638.016    -1014999.106 8   -773142.12246  22805641.899    22805648.8804
  20591297.662   -20500837.363 9 -15958918.03648  20591300.321    20591305.6964
  22246416.026   -14362754.008 8 -11169732.18046  22246415.237    22246420.2554
  22311842.680    -8608696.330 9  -6695429.90847  22311846.727    22311852.1244
  20239784.544   -22654081.606 9 -17631178.68348  20239788.616    20239792.8544
  23971332.957    -3135351.578 7  -2171902.29145  23971350.747    23971357.2024
  23165591.520    -3460026.453 8  -2671454.37546  23165594.458    23165600.7694
 00  6 30  2 14  0.0000000  0  7 29 05 06 24 30 09 04
  22818668.778     -946519.121 8   -719781.15046  22818673.666    22818679.8064
  20599676.588   -20456792.717 9 -15924597.54648  20599681.569    20599686.7534
  22229939.622   -14449312.114 8 -11237180.00446  22229943.408    22229949.0094
  22306519.432    -8636670.021 9  -6717227.61147  22306523.179    22306530.0694
  20234567.973   -22681512.528 9 -17652553.42848  20234568.841    20234572.8014
  23992380.549    -3024829.096 7  -2085780.96145  23992382.824    23992388.9944
  23172653.804    -3422920.481 8  -2642540.71746  23172655.628    23172662.3004
 00  6 30  2 14 30.0000000  0  7 29 05 06 24 30 09 04
  22831780.509     -877635.748 8   -666105.87046  22831781.526    22831787.1454
  20608127.680   -20412393.710 9 -15890000.93948  20608130.439    20608135.5234
  22213523.916   -14535568.609 8 -11304392.79646  22213529.725    22213536.3424
  22301303.826    -8664080.273 9  -6738586.27747  22301307.532    22301314.0474
  20229423.915   -22708534.587 9 -17673609.57748  20229426.678    20229430.7874
  24013433.196    -2914181.629 7  -1999562.20445  24013438.210    24013445.7604
  23179818.523    -3385237.195 8  -2613177.19846  23179826.705    23179833.8154
 00  6 30  2 15  0.0000000  0  7 29 05 06 24 30 09 04
  22844966.142     -808351.336 8   -612118.07446  22844966.734    22844972.1114
  20616642.177   -20367640.817 9 -15855128.57248  20616646.461    20616651.5344
  22197174.233   -14621521.970 8 -11371369.39646  22197172.739    22197179.7134
  22296193.520    -8690925.674 8  -6759504.81247  22296198.380    22296204.9074
  20224360.523   -22735146.955 9 -17694346.48348  20224362.645    20224366.8894
  24034523.479    -2803411.225 7  -1913247.66845  24034517.025    24034523.7394
  23187105.375    -3346977.910 8  -2583364.82946  23187106.631    23187113.5784
 00  6 30  2 15 30.0000000  0  7 29 05 06 24 30 09 04
  22858223.864     -738668.710 8   -557819.97346  22858225.949    22858232.8534
  20625230.576   -20322534.816 9 -15819981.05848  20625230.489    20625235.0154
  22180872.599   -14707170.648 8 -11438108.57146  22180874.280    22180880.5544
  22291194.818    -8717205.185 9  -6779982.35847  22291198.300    22291204.4454
  20219372.897   -22761349.089 9 -17714763.73248  20219376.381    20219380.4324
  24055623.511    -2692519.590 7  -1826838.73745  24055619.553    24055625.4064
  23194493.493    -3308143.997 8  -2553104.70046  23194498.004    23194504.9624
 00  6 30  2 16  0.0000000  0  7 29 05 06 24 30 09 04
  22871560.868     -668590.225 8   -503213.39446  22871562.193    22871567.8124
  20633878.707   -20277076.646 9 -15784559.13248  20633880.669    20633885.3224
  22164632.352   -14792513.100 8 -11504609.12846  22164633.385    22164640.1304
  22286300.125    -8742917.434 8  -6800017.88847  22286304.403    22286311.5144
  20214465.245   -22787140.249 9 -17734860.74148  20214468.577    20214472.6324
  24076745.697    -2581508.324 8  -1740336.56045  24076744.757    24076749.9324
  23201993.115    -3268736.744 8  -2522397.83946  23201996.321    23202002.6284
 00  6 30  2 16 30.0000000  0  7 29 05 06 24 30 09 04
  22884964.210     -598118.691 8   -448300.55146  22884971.659    22884978.8434
  20642597.115   -20231266.984 9 -15748863.31148  20642598.012    20642602.7114
  22148452.574   -14877547.891 8 -11570869.96846  22148452.775    22148459.3474
  22281516.697    -8768061.614 8  -6819610.78747  22281519.868    22281526.9534
  20209635.307   -22812520.170 9 -17754637.29548  20209639.013    20209642.8984
  24097881.367    -2470379.431 7  -1653742.67145  24097890.845    24097898.2404
  23209596.156    -3228757.530 8  -2491245.27846  23209602.873    23209610.1324
 00  6 30  2 17  0.0000000  0  7 29 05 06 24 30 09 04
  22898456.164     -527256.912 8   -393083.62946  22898457.468    22898463.7424
  20651380.922   -20185106.264 9 -15712893.93248  20651381.919    20651386.7854
  22132329.099   -14962273.655 8 -11636890.00646  22132330.390    22132336.0154
  22276841.160    -8792636.316 8  -6838759.92947  22276844.094    22276850.6964
  20204885.629   -22837488.028 9 -17774092.76948  20204887.691    20204891.4684
  24119061.683    -2359134.933 8  -1567058.75145  24119060.673    24119066.8464
  23217319.361    -3188207.797 8  -2459648.15846  23217320.528    23217327.5174
 00  6 30  2 17 30.0000000  0  8 29 05 06 24 25 30 09 04
  22912012.742     -456007.183 8   -337564.40446  22912015.510    22912021.1744
  20660230.449   -20138595.140 9 -15676651.52048  20660232.458    20660237.5824
  22116263.308   -15046688.870 8 -11702668.04647  22116266.631    22116272.2164
  22272274.094    -8816640.638 8  -6857464.61647  22272275.493    22272281.9524
  23585056.798      -34958.34017
  20200213.789   -22862043.520 9 -17793226.92748  20200215.309    20200218.8634
  24140254.049    -2247776.734 8  -1480286.18845  24140251.839    24140258.3004
  23225144.887    -3147089.033 8  -2427607.62046  23225144.849    23225153.0114
 00  6 30  2 18  0.0000000  0  8 29 05 06 24 25 30 09 04
  22925640.928     -384372.547 8   -281745.26546  22925647.729    22925652.7844
  20669145.136   -20091734.501 9 -15640136.75448  20669150.105    20669154.6834
  22100256.610   -15130792.202 8 -11768203.05946  22100261.472    22100267.7824
  22267810.865    -8840073.406 8  -6875723.92347  22267816.250    22267823.8674
  23567361.441     -127941.978 7
  20195619.176   -22886185.669 9 -17812038.98748  20195620.954    20195624.4064
  24161454.573    -2136306.578 7  -1393426.37745  24161463.500    24161470.4344
  23233074.674    -3105402.502 8  -2395124.70946  23233078.059    23233084.9124
 00  6 30  2 18 30.0000000  0  8 29 05 06 24 25 30 09 04
  22939350.105     -312355.549 8   -225628.19346  22939352.334    22939357.0544
  20678132.156   -20044525.036 9 -15603350.17548  20678133.582    20678138.8104
  22084316.011   -15214581.909 8 -11833493.70346  22084317.914    22084321.9634
  22263465.067    -8862933.806 9  -6893537.24447  22263467.453    22263473.3524
  23549706.674     -220700.234 7   -150247.33954  23549711.020    23549719.6654
  20191103.011   -22909914.122 9 -17830528.69448  20191105.695    20191108.8714
  24182700.947    -2024726.331 7  -1306480.82745  24182697.852    24182704.9404
  23241114.975    -3063149.945 8  -2362200.71746  23241118.865    23241124.3514
 00  6 30  2 19  0.0000000  0  8 29 05 06 24 25 30 09 04
  22953128.441     -239958.902 8   -169215.27746  22953127.537    22953134.5114
  20687181.868   -19996967.434 9 -15566292.32448  20687183.522    20687188.5314
  22068432.675   -15298056.472 9 -11898538.79746  22068433.623    22068437.3424
  22259220.736    -8885220.617 8  -6910903.61547  22259225.591    22259231.5354
  23532091.812     -313230.735 7   -222348.97344  23532102.926    23532108.0184
  20186667.367   -22933228.003 9 -17848695.35548  20186668.982    20186672.4094
  24203950.399    -1913037.613 7  -1219450.70245  24203951.554    24203957.6224
  23249263.422    -3020332.643 8  -2328836.64946  23249267.155    23249272.9784
 00  6 30  2 19 30.0000000  0  8 29 05 06 24 25 30 09 04
  22966974.174     -167185.355 8   -112508.64846  22966975.957    22966982.6494
  20696296.504   -19949062.426 9 -15528963.77148  20696299.568    20696304.2924
  22052604.062   -15381214.574 8 -11963337.27747  22052608.412    22052613.1234
  22255089.736    -8906933.023 9  -6927822.37647  22255093.982    22255100.7494
  23514532.508     -405531.608 7   -294271.69744  23514538.308    23514540.2234
  20182310.121   -22956127.203 9 -17866538.89448  20182311.487    20182315.2154
  24225224.330    -1801242.253 7  -1132337.52045  24225225.269    24225230.7614
  23257519.053    -2976952.088 8  -2295033.71346  23257519.791    23257528.5414
 00  6 30  2 20  0.0000000  0  8 29 05 06 24 25 30 09 04
  22980893.022      -94037.545 8    -55510.43346  22980896.638    22980901.7104
  20705478.495   -19900810.734 9 -15491365.07248  20705482.066    20705486.6414
  22036841.686   -15464054.876 8 -12027888.11446  22036844.050    22036848.7334
  22251070.803    -8928069.903 8  -6944292.71347  22251071.869    22251077.5444
  23497017.547     -497600.375 7   -366013.48644  23497019.731    23497023.7214
  20178030.130   -22978610.880 9 -17884058.64148  20178032.825    20178036.9394
  24246518.298    -1689342.539 7  -1045143.00045  24246517.965    24246524.8864
  23265883.202    -2933009.763 8  -2260793.03346  23265883.753    23265890.2614
 00  6 30  2 20 30.0000000  0  8 29 05 06 24 25 30 09 04
  22994881.420      -20518.300 8      1777.23346  22994887.290    22994893.6664
  20714728.273   -19852213.165 9 -15453496.85648  20714729.493    20714734.6114
  22021139.749   -15546576.022 8 -12092190.26046  22021140.644    22021145.8394
  22247156.406    -8948630.443 8  -6960313.91647  22247159.499    22247165.6544
  23479544.193     -589434.567 7   -437572.48344  23479543.325    23479549.1504
  20173832.680   -23000678.516 9 -17901254.20548  20173833.839    20173837.7464
  24267826.530    -1577340.232 7   -957868.54944  24267832.454    24267838.3714
  23274344.158    -2888507.260 8  -2226115.81946  23274352.011    23274359.3324
 00  6 30  2 21  0.0000000  0  8 29 05 06 24 25 30 09 04
  23008941.896       53369.630 8     59352.18946  23008946.028    23008952.3734
  20724041.259   -19803270.512 9 -15415359.74848  20724042.722    20724047.9014
  22005495.080   -15628776.500 8 -12156242.56646  22005497.798    22005503.0724
  22243351.104    -8968613.607 8  -6975885.22847  22243356.055    22243363.0344
  23462107.138     -681032.167 6   -508947.25244  23462109.082    23462113.9964
  20169712.032   -23022329.573 9 -17918125.16348  20169713.805    20169717.4654
  24289161.893    -1465237.202 7   -870515.68445  24289167.089    24289168.7574
  23282926.338    -2843446.183 8  -2191003.41746  23282926.246    23282933.4554
 00  6 30  2 21 30.0000000  0  8 29 05 06 24 25 30 09 04
  23023080.552      127623.610 8    117212.36846  23023076.798    23023082.6414
  20733419.084   -19753983.548 9 -15376954.34148  20733422.225    20733426.8774
  21989918.194   -15710654.843 9 -12220043.82947  21989918.579    21989921.8294
  22239656.284    -8988018.530 8  -6991005.98147  22239663.977    22239671.1374
  23444724.925     -772390.848 7   -580135.75044  23444726.550    23444734.0424
  20165671.608   -23043563.455 9 -17934671.04848  20165673.050    20165677.3144
  24310501.156    -1353035.077 7   -783085.53944  24310517.199    24310522.6204
  23291607.865    -2797828.048 8  -2155456.85246  23291607.820    23291613.3754
 00  6 30  2 22  0.0000000  0  8 29 05 06 24 25 30 09 04
  23037271.385      202240.723 8    175355.51046  23037276.989    23037281.2874
  20742863.091   -19704352.846 9 -15338281.09448  20742865.853    20742871.4074
  21974396.532   -15792209.614 9 -12283592.98447  21974398.585    21974403.6114
  22236079.355    -9006844.549 9  -7005675.61247  22236081.902    22236088.1564
  23427383.483     -863508.011 7   -651136.01245  23427389.527    23427396.4454
  20161709.295   -23064379.744 9 -17950891.53848  20161711.768    20161715.8544
  24331891.375    -1240735.986 7   -695579.86544  24331886.895    24331891.8564
  23300391.986    -2751654.430 8  -2119477.50746  23300394.498    23300401.2644
 00  6 30  2 22 30.0000000  0  8 29 05 06 24 25 30 09 04
  23051540.755      277218.328 8    233779.55446  23051543.988    23051550.0104
  20752374.194   -19654379.303 9 -15299340.69048  20752376.278    20752380.8944
  21958935.225   -15873439.612 8 -12346889.05247  21958940.345    21958946.3124
  22232605.340    -9025090.543 8  -7019893.29347  22232609.502    22232614.9334
  23410096.105     -954381.664 7   -721946.58545  23410096.076    23410101.6714
  20157828.334   -23084777.981 9 -17966786.27148  20157830.088    20157834.2604
  24353250.797    -1128341.863 7   -608000.09044  24353274.872    24353280.3454
  23309285.548    -2704927.004 8  -2083066.60046  23309285.902    23309293.2094
 00  6 30  2 23  0.0000000  0  8 29 05 06 24 25 30 09 04
  23065878.357      352553.632 8    292482.35645  23065879.769    23065883.6514
  20761947.986   -19604063.494 9 -15260133.59348  20761950.849    20761955.7104
  21943541.052   -15954343.336 8 -12409930.85747  21943544.527    21943551.4234
  22229245.747    -9042755.797 9  -7033658.44147  22229247.681    22229254.4684
  23392852.782    -1045009.394 7   -792565.53745  23392849.836    23392857.5104
  20154025.329   -23104757.667 9 -17982354.86448  20154028.173    20154032.4694
  24374675.588    -1015854.265 7   -520347.51944  24374683.382    24374686.4994
  23318277.017    -2657647.434 8  -2046225.47846  23318283.822    23318290.4824
 00  6 30  2 23 30.0000000  0  8 29 05 06 24 25 30 09 04
  23080283.921      428243.848 8    351461.71845  23080282.366    23080288.0674
  20771587.780   -19553406.323 9 -15220660.50648  20771590.430    20771595.9364
  21928210.814   -16034919.321 9 -12472717.28647  21928213.367    21928217.9264
  22225994.813    -9059839.523 9  -7046970.47047  22225997.220    22226003.9094
  23375650.603    -1135388.804 7   -862990.96045  23375653.680    23375659.2194
  20150304.839   -23124317.931 9 -17997596.62848  20150305.876    20150309.8594
  24396100.822     -903275.184 7   -432623.60744  24396103.596    24396111.5764
  23327379.223    -2609817.323 8  -2008955.32746  23327385.240    23327391.3944
 00  6 30  2 24  0.0000000  0  7 29 05 06 24 25 30 04
  23094747.720      504286.157 8    410715.40946  23094753.147    23094759.2834
  20781293.527   -19502408.387 9 -15180921.88448  20781295.138    20781300.3774
  21912943.819   -16115166.224 9 -12535247.30347  21912942.470    21912946.4774
  22222852.663    -9076341.001 8  -7059828.77347  22222856.382    22222862.9344
  23358500.442    -1225517.642 7   -933221.11845  23358500.633    23358507.2254
  20146660.300   -23143458.492 9 -18012511.35648  20146663.271    20146667.7584
  23336589.222    -2561438.433 8  -1971257.60046  23336591.265    23336597.6394
 00  6 30  2 24 30.0000000  0  7 29 05 06 24 25 30 04
  23109287.540      580677.711 8    470241.21046  23109291.170    23109295.7554
  20791063.066   -19451070.433 9 -15140918.30548  20791064.743    20791069.8894
  21897729.840   -16195082.622 8 -12597519.76947  21897733.788    21897739.4904
  22219826.273    -9092259.380 9  -7072232.71647  22219828.317    22219833.8574
  23341388.381    -1315393.732 7  -1003254.33045  23341396.206    23341403.9464
  20143098.956   -23162178.959 9 -18027098.73448  20143101.035    20143105.2144
  23345897.210    -2512512.382 8  -1933133.47446  23345901.482    23345908.3534
 00  6 30  2 25  0.0000000  0  7 29 05 06 24 25 30 04
  23123889.523      657415.860 8    530037.12546  23123893.103    23123899.4354
  20800895.724   -19399393.391 9 -15100650.51648  20800898.637    20800903.7234
  21882584.109   -16274667.300 8 -12659533.77347  21882588.848    21882594.8334
  22216904.804    -9107594.002 8  -7084181.80447  22216909.465    22216915.9534
  23324347.242    -1405014.546 8  -1073088.66245  23324344.342    23324350.1534
  20139616.307   -23180478.423 9 -18041358.06448  20139619.022    20139623.0724
  23355315.918    -2463040.805 8  -1894584.27146  23355317.476    23355323.1274
 00  6 30  2 25 30.0000000  0  7 29 05 06 24 25 30 04
  23138560.392      734497.665 8    590100.83046  23138560.890    23138568.1774
  20810794.759   -19347377.887 9 -15060118.98348  20810797.074    20810801.6244
  21867504.210   -16353918.774 8 -12721288.10247  21867508.579    21867514.1024
  22214097.298    -9122344.147 8  -7095675.43147  22214102.825    22214109.0214
  23307337.127    -1494377.975 7  -1142722.41145  23307339.195    23307344.7194
  20136214.641   -23198356.813 9 -18055289.28248  20136216.982    20136220.9744
  23364830.597    -2413025.501 8  -1855611.39646  23364832.679    23364840.0644
 00  6 30  2 26  0.0000000  0  7 29 05 06 24 25 30 04
  23153289.556      811920.356 8    650430.15845  23153294.475    23153300.7764
  20820755.800   -19295024.734 9 -15019324.34148  20820759.106    20820764.1384
  21852490.720   -16432835.589 9 -12782781.69547  21852492.180    21852496.3054
  22211402.883    -9136509.072 8  -7106713.08047  22211407.102    22211414.4934
  23290368.801    -1583481.942 7  -1212154.00245  23290380.586    23290388.1524
  20132892.182   -23215813.497 9 -18068891.90248  20132894.839    20132899.1724
  23374450.760    -2362468.363 8  -1816216.30846  23374454.192    23374461.3414
 00  6 30  2 26 30.0000000  0  7 29 05 06 24 25 30 04
  23168089.495      889681.136 8    711022.91645  23168091.544    23168096.6184
  20830784.979   -19242334.637 9 -14978267.15848  20830786.375    20830790.9294
  21837535.605   -16511416.484 9 -12844013.54147  21837538.354    21837542.5684
  22208820.424    -9150088.391 8  -7117294.37747  22208823.445    22208829.8184
  23273471.477    -1672323.657 8  -1281381.22145  23273475.821    23273482.4194
  20129650.359   -23232848.083 9 -18082165.60648  20129653.088    20129657.9714
  23384168.825    -2311370.987 8  -1776400.26546  23384177.500    23384185.8034
 00  6 30  2 27  0.0000000  0  7 29 05 06 24 25 30 04
  23182951.656      967776.986 8    771876.74745  23182952.900    23182959.4574
  20840874.506   -19189308.468 9 -14936948.08248  20840876.622    20840881.5924
  21822643.163   -16589660.219 8 -12904982.64047  21822647.701    21822653.5404
  22206345.053    -9163081.158 8  -7127418.61547  22206350.665    22206357.3734
  23256620.278    -1760901.095 8  -1350402.54245  23256620.130    23256626.1114
  20126490.719   -23249459.672 9 -18095109.70148  20126492.096    20126496.4784
  23394004.833    -2259735.309 8  -1736164.74646  23394004.557    23394011.4604
 00  6 30  2 27 30.0000000  0  7 29 05 06 24 25 30 04
  23197874.007     1046205.096 8    832989.49246  23197877.072    23197883.8654
  20851029.285   -19135946.999 9 -14895367.75047  20851030.628    20851035.6894
  21807820.638   -16667565.288 9 -12965687.85447  21807823.460    21807828.3424
  22203987.775    -9175486.915 8  -7137085.46847  22203990.940    22203995.5254
  23239806.443    -1849212.037 8  -1419216.17145  23239814.978    23239821.3354
  20123409.972   -23265648.174 9 -18107724.12748  20123411.529    20123416.1124
  23403927.723    -2207562.876 8  -1695511.02246  23403932.454    23403937.7584
 00  6 30  2 28  0.0000000  0  7 29 05 06 24 25 30 04
  23212864.331     1124962.738 8    894359.04146  23212865.173    23212870.3164
  20861246.741   -19082250.933 9 -14853526.69548  20861249.235    20861253.8774
  21793062.634   -16745130.465 9 -13026128.21247  21793063.913    21793067.6134
  22201736.815    -9187305.083 8  -7146294.44047  22201740.808    22201747.8194
  23223057.542    -1937254.144 8  -1487820.35045  23223060.854    23223068.1384
  20120409.219   -23281413.153 9 -18120008.53748  20120411.838    20120416.0774
  23413953.624    -2154855.734 8  -1654440.59046  23413961.771    23413968.7954
 00  6 30  2 28 30.0000000  0  7 29 05 06 24 25 30 04
  23227908.375     1204047.022 8    955983.10046  23227914.028    23227919.8034
  20871527.052   -19028221.065 9 -14811425.53147  20871529.725    20871535.1494
  21778363.895   -16822354.479 9 -13086302.79247  21778368.187    21778373.3104
  22199601.438    -9198535.083 8  -7155045.11947  22199603.984    22199611.2174
  23206356.809    -2025024.799 8  -1556212.98145  23206359.263    23206364.9884
  20117489.194   -23296754.158 9 -18131962.57948  20117492.235    20117496.5024
  23424085.025    -2101615.728 8  -1612954.95246  23424092.958    23424101.1374
 00  6 30  2 29  0.0000000  0  7 29 05 06 24 25 30 04
  23243024.910     1283455.015 8   1017859.38346  23243025.273    23243031.5904
  20881872.584   -18973858.326 9 -14769064.98147  20881875.606    20881880.2544
  21763735.917   -16899236.174 9 -13146210.57847  21763738.279    21763744.5194
  22197576.457    -9209176.375 8  -7163337.04347  22197578.843    22197586.0654
  23189707.806    -2112521.885 8  -1624392.48545  23189708.589    23189714.5574
  20114650.825   -23311670.460 9 -18143585.67748  20114653.337    20114658.1574
  23434322.939    -2047844.809 8  -1571055.60046  23434325.706    23434332.9034
 00  6 30  2 29 30.0000000  0  7 29 05 06 24 25 30 04
  23258194.308     1363183.894 8   1079985.72146  23258196.831    23258202.7584
  20892281.890   -18919163.305 9 -14726445.52247  20892283.266    20892288.2854
  21749169.500   -16975774.117 8 -13205850.51047  21749172.473    21749178.5854
  22195662.042    -9219228.453 8  -7171169.84547  22195666.176    22195672.6604
  23173110.499    -2199743.155 8  -1692357.04045  23173110.173    23173116.8124
  20111894.416   -23326161.912 9 -18154877.72048  20111896.205    20111900.7654
  23444655.748    -1993544.398 8  -1528743.69246  23444659.052    23444666.7244
 00  6 30  2 30  0.0000000  0  7 29 05 06 24 25 30 04
  23273426.687     1443230.701 8   1142359.79345  23273429.456    23273435.7614
  20902749.116   -18864136.826 9 -14683567.78247  20902754.075    20902758.9924
  21734670.467   -17051966.990 9 -13265221.55347  21734673.620    21734678.7924
  22193859.397    -9228690.793 8  -7178543.12247  22193864.750    22193872.3074
  23156564.163    -2286685.821 8  -1760104.49645  23156566.515    23156572.2254
  20109217.015   -23340227.808 9 -18165838.17048  20109219.767    20109223.8034
  23455087.514    -1938716.870 8  -1486021.02246  23455091.736    23455099.1604
 00  6 30  2 30 30.0000000  0  7 29 05 06 24 25 30 04
  23288719.053     1523592.663 8   1204979.42845  23288721.591    23288728.2324
  20913288.205   -18808779.788 9 -14640432.44647  20913289.233    20913293.6934
  21720241.245   -17127813.393 9 -13324322.64047  21720242.270    21720245.3164
  22192176.482    -9237562.918 8  -7185456.47747  22192177.576    22192184.1974
  23140080.802    -2373348.030 8  -1827633.43446  23140075.141    23140081.0814
  20106621.741   -23353867.571 9 -18176466.56748  20106624.266    20106628.3344
  23465624.429    -1883363.930 8  -1442888.93746  23465624.896    23465632.2784
 00  6 30  2 31  0.0000000  0  7 29 05 06 24 25 30 04
  23304071.440     1604266.707 8   1267842.25845  23304072.852    23304079.6044
  20923881.760   -18753092.778 9 -14597040.00847  20923886.281    20923890.4534
  21705874.356   -17203312.190 9 -13383152.87547  21705873.848    21705878.5284
  22190597.287    -9245844.457 8  -7191909.64547  22190601.751    22190608.3774
  23123633.495    -2459727.207 8  -1894941.79246  23123637.642    23123643.0844
  20104106.555   -23367081.254 9 -18186762.94848  20104109.589    20104113.6784
  23476253.306    -1827487.354 8  -1399348.83746  23476259.827    23476265.7184
 00  6 30  2 31 30.0000000  0  7 29 05 06 24 25 30 04
  23319486.430     1685250.214 8   1330946.23545  23319483.798    23319489.2844
  20934543.827   -18697076.566 9 -14553391.04147  20934544.934    20934550.0484
  21691569.890   -17278462.172 9 -13441711.28347  21691573.143    21691578.7594
  22189131.395    -9253534.922 8  -7197902.25347  22189137.310    22189144.4604
  23107248.408    -2545821.186 8  -1962027.97346  23107254.676    23107259.2374
  20101671.923   -23379868.382 9 -18196726.95148  20101676.049    20101680.4564
  23486988.240    -1771089.427 8  -1355402.49546  23486990.617    23486998.1154
 00  6 30  2 32  0.0000000  0  7 29 05 06 24 25 30 04
  23334956.028     1766539.922 8   1394288.76545  23334953.234    23334958.9804
  20945265.901   -18640732.163 9 -14509486.34147  20945267.439    20945272.5924
  21677337.834   -17353262.043 9 -13499996.86347  21677339.904    21677345.5594
  22187783.877    -9260634.063 9  -7203434.06347  22187787.879    22187793.7854
  23090927.079    -2631627.521 8  -2028889.97146  23090926.429    23090932.1204
  20099320.993   -23392228.186 9 -18206357.97948  20099324.276    20099328.5244
  23497819.263    -1714171.876 8  -1311051.26546  23497822.310    23497829.3604
 00  6 30  2 32 30.0000000  0  7 29 05 06 24 25 30 04
  23350478.782     1848133.181 8   1457867.85845  23350479.730    23350485.5794
  20956049.101   -18584060.313 9 -14465326.50347  20956051.659    20956057.3024
  21663169.990   -17427710.629 9 -13558008.72147  21663172.502    21663177.9004
  22186544.708    -9267141.433 8  -7208504.76447  22186548.554    22186556.6594
  23074649.309    -2717143.908 8  -2095526.05546  23074652.664    23074658.4134
  20097050.857   -23404160.664 9 -18215656.02148  20097053.560    20097057.8514
  23508749.819    -1656736.819 8  -1266296.73746  23508751.740    23508758.9964
 00  6 30  2 33  0.0000000  0  7 29 05 06 24 25 30 04
  23366060.129     1930026.939 8   1521681.15745  23366063.039    23366069.4614
  20966896.596   -18527061.705 9 -14420912.03947  20966898.522    20966903.2864
  21649069.677   -17501806.567 9 -13615745.81847  21649073.055    21649077.5574
  22185420.217    -9273056.688 8  -7213114.07647  22185423.277    22185430.7024
  23058435.311    -2802368.079 8  -2161934.45446  23058434.533    23058441.0384
  20094862.786   -23415665.041 9 -18224620.47548  20094864.669    20094868.5434
  23519779.889    -1598786.012 8  -1221140.35246  23519778.897    23519786.9734
 00  6 30  2 33 30.0000000  0  7 29 05 06 24 25 30 04
  23381699.885     2012218.390 8   1585726.34745  23381704.632    23381710.7474
  20977805.674   -18469737.229 9 -14376243.65347  20977807.142    20977811.6444
  21635036.940   -17575548.448 9 -13673207.02047  21635039.826    21635044.9854
  22184409.357    -9278379.512 8  -7217261.76447  22184410.507    22184416.3804
  23042268.248    -2887297.649 8  -2228113.25846  23042271.931    23042278.3464
  20092754.357   -23426741.003 9 -18233251.10448  20092756.748    20092761.0404
  23530897.979    -1540321.649 8  -1175583.82346  23530903.895    23530911.5374
 00  6 30  2 34  0.0000000  0  7 29 05 06 24 25 30 04
  23397396.804     2094704.535 8   1650001.19145  23397400.497    23397408.6224
  20988774.060   -18412087.821 9 -14331322.06547  20988776.753    20988782.7394
  21621074.793   -17648935.178 8 -13730391.46747  21621074.168    21621079.3104
  22183506.667    -9283109.714 8  -7220947.66947  22183510.888    22183516.9374
  23026165.700    -2971930.529 8  -2294060.89646  23026168.287    23026174.1294
  20090728.642   -23437388.168 9 -18241547.60848  20090730.979    20090735.0304
  23542128.389    -1481345.731 8  -1129628.65046  23542127.628    23542135.1994
 00  6 30  2 34 30.0000000  0  7 29 05 06 24 25 30 04
  23413149.229     2177482.419 8   1714503.37745  23413152.432    23413159.0204
  20999807.585   -18354114.142 9 -14286147.80747  20999809.689    20999814.0424
  21607175.192   -17721965.668 9 -13787298.31947  21607177.154    21607183.2214
  22182721.699    -9287246.807 8  -7224171.38447  22182723.004    22182729.3974
  23010114.729    -3056264.518 8  -2359775.62746  23010119.209    23010125.2934
  20088782.752   -23447606.166 9 -18249509.69348  20088785.938    20088790.3534
  23553439.369    -1421860.347 8  -1083276.47946  23553448.106    23553454.1234
 00  6 30  2 35  0.0000000  0  7 29 05 06 24 25 30 04
  23428959.748     2260549.228 8   1779230.68845  23428959.611    23428966.4144
  21010898.467   -18295817.065 9 -14240721.54747  21010902.241    21010907.2684
  21593349.300   -17794638.685 9 -13843926.61447  21593348.535    21593354.3514
  22182045.088    -9290790.689 8  -7226932.88647  22182049.228    22182056.0304
  22994123.619    -3140296.761 8  -2425255.22646  22994127.970    22994133.8574
  20086920.455   -23457394.742 9 -18257137.17148  20086923.475    20086927.5134
  23564863.343    -1361867.450 8  -1036528.86846  23564863.808    23564871.3904
 00  6 30  2 35 30.0000000  0  7 29 05 06 24 25 30 04
  23444820.537     2343901.881 8   1844180.73545  23444822.180    23444828.9274
  21022056.411   -18237197.389 9 -14195043.91347  21022057.357    21022062.2724
  21579587.143   -17866953.027 9 -13900275.40247  21579588.037    21579593.1044
  22181484.012    -9293741.180 8  -7229232.00947  22181486.781    22181495.0884
  22978197.767    -3224025.133 8  -2490498.04246  22978196.413    22978200.7034
  20085139.689   -23466753.261 9 -18264429.53148  20085142.761    20085147.1404
  23576369.347    -1301369.153 8   -989387.40946  23576375.575    23576383.6354
 00  6 30  2 36  0.0000000  0  7 29 05 06 24 25 30 04
  23460736.958     2427537.469 8   1909351.24245  23460737.339    23460744.0554
  21033273.930   -18178255.957 9 -14149115.56547  21033274.306    21033278.3814
  21565889.085   -17938907.453 9 -13956343.76647  21565894.269    21565900.2334
  22181035.526    -9296097.954 8  -7231068.48947  22181039.201    22181044.4824
  22962318.113    -3307447.339 8  -2555502.31946  22962321.654    22962326.4214
  20083441.532   -23475681.546 9 -18271386.64448  20083444.015    20083448.2914
  23587975.940    -1240367.525 8   -941853.78546  23587984.771    23587991.2114
 00  6 30  2 36 30.0000000  0  7 29 05 06 24 25 30 04
  23476703.224     2511453.012 8   1974739.91045  23476705.475    23476713.0834
  21044545.830   -18118993.709 9 -14102937.22547  21044550.753    21044555.6644
  21552263.729   -18010500.810 8 -14012130.76047  21552269.685    21552275.1554
  22180698.501    -9297860.998 8  -7232442.30647  22180703.566    22180710.1034
  22946500.732    -3390561.159 8  -2620266.25746  22946505.030    22946510.5654
  20081825.051   -23484179.225 9 -18278008.22348  20081826.941    20081830.8184
  23599693.612    -1178864.568 8   -893929.48645  23599687.626    23599695.7464
 00  6 30  2 37  0.0000000  0  7 29 05 06 24 25 30 04
  23492723.386     2595645.595 8   2040344.46145  23492727.754    23492733.8034
  21055889.234   -18059411.468 9 -14056509.53247  21055889.772    21055894.5314
  21538715.948   -18081732.051 9 -14067635.59147  21538716.418    21538721.2214
  22180477.191    -9299030.072 8  -7233353.30547  22180480.566    22180486.8694
  22930744.685    -3473363.984 8  -2684787.87446  22930748.549    22930754.2384
  20080289.249   -23492245.996 9 -18284294.03448  20080291.677    20080295.8054
  23611482.900    -1116862.539 8   -845616.29745  23611486.628    23611493.6314
 00  6 30  2 37 30.0000000  0  7 29 05 06 24 25 30 04
  23508796.871     2680112.294 8   2106162.60545  23508801.750    23508806.6354
  21067285.130   -17999509.900 9 -14009833.01847  21067288.163    21067292.8324
  21525229.086   -18152599.817 9 -14122857.21647  21525231.251    21525236.0194
  22180369.080    -9299604.980 8  -7233801.31347  22180372.403    22180377.9494
  22915049.648    -3555853.847 8  -2749065.62446  22915050.850    22915056.8374
  20078836.839   -23499881.370 9 -18290243.68548  20078838.865    20078843.0404
  23623376.270    -1054363.450 8   -796915.81145  23623379.328    23623387.2394
 00  6 30  2 38  0.0000000  0  7 29 05 06 24 25 30 04
  23524925.077     2764849.946 8   2172191.85445  23524926.631    23524932.0574
  21078745.569   -17939289.562 9 -13962908.11947  21078747.911    21078752.1054
  21511810.174   -18223103.100 9 -14177794.82647  21511814.126    21511819.6404
  22180371.185    -9299585.815 8  -7233786.40447  22180374.812    22180382.1764
  22899408.027    -3638028.063 8  -2813097.43046  22899413.521    22899419.2874
  20077465.694   -23507085.151 9 -18295857.03848  20077467.457    20077472.4724
  23635364.295     -991369.548 8   -747829.76345  23635367.679    23635375.6184
 00  6 30  2 38 30.0000000  0  7 29 05 06 24 25 30 04
  23541100.609     2849855.763 8   2238430.09045  23541101.501    23541109.8294
  21090264.210   -17878751.611 9 -13915735.72747  21090267.178    21090273.0144
  21498466.598   -18293240.652 9 -14232447.44347  21498467.436    21498472.8614
  22180486.689    -9298972.390 8  -7233308.47647  22180491.895    22180498.6674
  22883836.374    -3719884.494 8  -2876881.62946  22883836.547    22883842.3384
  20076175.442   -23513857.007 9 -18301133.82148  20076178.907    20076183.0044
  23647449.471     -927882.858 8   -698359.69145  23647448.206    23647455.6704
 00  6 30  2 39  0.0000000  0  7 29 05 06 24 25 30 04
  23557328.081     2935126.779 8   2304874.98545  23557328.976    23557335.0034
  21101842.816   -17817896.696 9 -13868316.35247  21101847.677    21101853.9364
  21485186.523   -18363011.251 9 -14286814.12247  21485190.123    21485195.4304
  22180720.090    -9297764.590 8  -7232367.36347  22180722.101    22180727.9604
  22868320.110    -3801420.919 8  -2940416.45646  22868320.575    22868325.9244
  20074969.857   -23520196.589 9 -18306073.77548  20074972.950    20074977.0094
  23659619.656     -863905.817 8   -648507.53445  23659623.308    23659630.8634
 00  6 30  2 39 30.0000000  0  7 29 05 06 24 25 30 04
  23573602.437     3020660.021 8   2371524.14445  23573605.846    23573611.8934
  21113486.677   -17756725.795 9 -13820650.76147  21113488.267    21113494.0984
  21471979.981   -18432413.826 9 -14340894.04847  21471983.662    21471988.1224
  22181064.074    -9295962.415 8  -7230963.10847  22181065.338    22181072.1714
  22852868.071    -3882634.791 8  -3003699.93646  22852866.621    22852872.4544
  20073846.403   -23526103.577 9 -18310676.64248  20073848.817    20073853.0354
  23671885.511     -799440.380 8   -598274.84345  23671890.061    23671898.2404
 00  6 30  2 40  0.0000000  0  7 29 05 06 24 25 30 04
  23589929.936     3106452.316 7   2438375.22345  23589930.091    23589937.1774
  21125183.658   -17695239.706 9 -13772739.57347  21125188.106    21125194.2724
  21458843.962   -18501447.357 9 -14394686.42547  21458847.119    21458851.5214
  22181519.116    -9293566.143 8  -7229095.94047  22181519.901    22181528.2404
  22837470.025    -3963523.998 8  -3066730.44446  22837472.584    22837479.1524
  20072805.802   -23531577.503 9 -18314942.05248  20072807.033    20072811.2904
  23684240.550     -734488.750 8   -547663.28445  23684249.583    23684258.0444
 00  6 30  2 40 30.0000000  0  7 29 05 06 24 25 30 04
  23606300.961     3192500.646 8   2505425.78945  23606306.391    23606311.7744
  21136945.293   -17633439.309 9 -13724583.46847  21136948.532    21136954.1544
  21445779.844   -18570110.878 9 -14448190.45247  21445780.318    21445785.8074
  22182085.190    -9290575.530 8  -7226765.61947  22182089.616    22182096.9184
  22822141.253    -4044086.071 8  -3129506.05046  22822143.364    22822148.1524
  20071845.997   -23536618.059 9 -18318869.76948  20071848.062    20071851.9594
  23696703.028     -669053.199 8   -496674.63545  23696702.430    23696710.5404
 00  6 30  2 41  0.0000000  0  7 29 05 06 24 25 30 04
  23622723.595     3278802.353 8   2572673.80645  23622727.196    23622734.5594
  21148765.280   -17571325.591 9 -13676183.20747  21148768.600    21148774.6004
  21432782.533   -18638403.093 9 -14501405.15947  21432785.363    21432790.4584
  22182770.365    -9286990.664 8  -7223972.26347  22182772.206    22182779.1434
  22806872.425    -4124318.467 8  -3192024.80046  22806874.956    22806880.5174
  20070969.942   -23541225.225 9 -18322459.78148  20070971.201    20070975.5534
  23709246.160     -603136.093 8   -445310.75445  23709246.381    23709254.4924
 00  6 30  2 41 30.0000000  0  7 29 05 06 24 25 30 04
  23639194.061     3365354.232 8   2640116.76845  23639198.438    23639205.1864
  21160647.228   -17508899.376 9 -13627539.45147  21160648.455    21160653.6454
  21419857.225   -18706322.916 9 -14554329.68847  21419859.953    21419865.7244
  22183558.605    -9282811.672 8  -7220715.96346  22183567.138    22183574.3644
  22791667.763    -4204219.185 8  -3254285.04546  22791671.203    22791676.9264
  20070174.015   -23545398.383 9 -18325711.61148  20070177.040    20070181.3184
  23721879.952     -536739.277 8   -393573.08845  23721881.540    23721888.5054
 00  6 30  2 42  0.0000000  0  7 29 05 06 24 25 30 04
  23655708.551     3452153.316 8   2707752.33145  23655716.316    23655721.4524
  21172583.702   -17446161.471 9 -13578652.80647  21172586.682    21172592.7034
  21407005.852   -18773869.260 9 -14606963.18147  21407006.492    21407012.2804
  22184474.600    -9278038.562 8  -7216996.70647  22184475.670    22184482.9974
  22776529.420    -4283786.110 8  -3316285.23246  22776529.691    22776536.1724
  20069463.168   -23549137.455 9 -18328625.19548  20069465.643    20069469.9784
  23734601.818     -469865.327 8   -341463.61945  23734608.261    23734615.6594
 00  6 30  2 42 30.0000000  0  7 29 05 06 24 25 30 04
  23672278.226     3539196.572 8   2775578.13745  23672280.291    23672286.0024
  21184581.316   -17383112.742 9 -13529523.98147  21184585.056    21184590.4674
  21394222.359   -18841040.943 9 -14659304.72747  21394224.816    21394229.3694
  22185491.622    -9272671.480 8  -7212814.61646  22185496.777    22185503.5184
  22761443.908    -4363016.702 8  -3378023.29646  22761451.712    22761458.4334
  20068833.846   -23552441.981 9 -18331200.17248  20068836.710    20068840.9764
  23747420.295     -402516.284 8   -288983.94445  23747423.000    23747431.5804
 00  6 30  2 43  0.0000000  0  7 29 05 06 24 25 30 04
  23688887.906     3626481.115 8   2843591.94845  23688889.784    23688896.4094
  21196641.683   -17319753.891 9 -13480153.50047  21196641.861    21196647.5394
  21381511.022   -18907837.148 9 -14711353.69747  21381513.746    21381517.7664
  22186628.724    -9266710.777 8  -7208169.94646  22186631.356    22186638.0724
  22746439.225    -4441908.276 8  -3439497.24946  22746441.007    22746445.5174
  20068289.116   -23555311.845 9 -18333436.44448  20068290.879    20068295.2314
  23760332.574     -334694.477 8   -236135.88645  23760329.386    23760335.7284
 00  6 30  2 43 30.0000000  0  7 29 05 06 24 25 30 04
  23705535.015     3714003.831 8   2911791.41745  23705545.085    23705551.6934
  21208754.129   -17256085.812 9 -13430542.05847  21208757.293    21208762.4204
  21368871.481   -18974256.721 9 -14763109.18447  21368873.914    21368878.9694
  22187874.120    -9260156.351 8  -7203062.65146  22187878.556    22187885.3054
  22731492.409    -4520458.752 8  -3500705.38246  22731491.734    22731498.8604
  20067825.392   -23557746.542 9 -18335333.63048  20067827.610    20067831.6454
  23773324.293     -266402.249 8   -182921.28945  23773325.183    23773333.2194
 00  6 30  2 44  0.0000000  0  7 29 05 06 24 25 30 04
  23722238.963     3801761.845 7   2980174.17345  23722242.416    23722251.8914
  21220930.349   -17192109.560 9 -13380690.47747  21220931.768    21220936.9114
  21356302.522   -19040298.446 9 -14814570.26347  21356306.193    21356311.9304
  22189234.301    -9253008.409 8  -7197492.91246  22189239.351    22189246.4844
  22716607.219    -4598665.839 8  -3561645.93846  22716610.074    22716616.2284
  20067446.096   -23559746.072 9 -18336891.71748  20067447.188    20067450.9914
  23786413.602     -197641.908 8   -129341.91345  23786410.680    23786417.9294
 00  6 30  2 44 30.0000000  0  7 29 05 06 24 25 30 04
  23738985.392     3889751.922 8   3048737.79145  23738987.603    23738995.3744
  21233159.686   -17127825.593 9 -13330599.12847  21233164.415    21233170.2324
  21343808.715   -19105961.361 9 -14865736.13647  21343810.894    21343816.8494
  22190710.425    -9245267.327 8  -7191460.94047  22190712.328    22190719.3624
  22701790.232    -4676527.160 8  -3622317.07246  22701792.703    22701799.4074
  20067146.014   -23561310.079 9 -18338110.44048  20067148.911    20067153.6664
  23799583.903     -128415.784 8    -75399.61645  23799583.448    23799590.9744
 00  6 30  2 45  0.0000000  0  7 29 05 06 24 25 30 04
  23755773.981     3977971.175 8   3117479.95445  23755776.406    23755782.4584
  21245452.857   -17063235.001 9 -13280268.85547  21245455.300    21245460.7234
  21331382.107   -19171244.713 9 -14916606.23947  21331387.395    21331393.6794
  22192293.456    -9236933.205 8  -7184966.87746  22192297.542    22192305.0694
  22687040.539    -4754040.622 8  -3682717.15446  22687042.303    22687048.3084
  20066931.068   -23562438.558 9 -18338989.80148  20066934.450    20066939.1184
  23812846.162      -58726.200 8    -21096.15045  23812845.300    23812853.5454
 00  6 30  2 45 30.0000000  0  7 29 05 06 24 25 30 04
  23772604.289     4066416.643 8   3186398.40745  23772606.447    23772614.1204
  21257803.289   -16998338.764 9 -13229700.39947  21257804.935    21257809.6634
  21319035.354   -19236147.286 9 -14967179.66147  21319038.221    21319043.5724
  22193990.348    -9228006.340 8  -7178010.92046  22193995.862    22194003.4374
  22672354.498    -4831203.833 8  -3742844.31746  22672358.672    22672365.0114
  20066800.424   -23563131.001 9 -18339529.38148  20066802.304    20066807.1494
  23826191.608       11424.500 8     33566.63745  23826193.964    23826202.7074
 00  6 30  2 46  0.0000000  0  7 29 05 06 24 25 30 04
  23789476.340     4155085.196 7   3255490.67245  23789479.513    23789487.6434
  21270209.841   -16933137.576 9 -13178894.32047  21270211.955    21270217.5614
  21306759.759   -19300668.059 9 -15017455.56947  21306760.892    21306765.5814
  22195807.788    -9218487.069 8  -7170593.38146  22195809.077    22195815.1594
  22657741.822    -4908014.520 8  -3802696.77246  22657743.199    22657748.9624
  20066751.024   -23563387.028 9 -18339728.90748  20066754.170    20066758.2324
  23839633.816       82034.193 8     88587.09245  23839631.546    23839636.9994
 00  6 30  2 46 30.0000000  0  7 29 05 06 24 25 30 04
  23806397.428     4243973.927 8   3324754.51645  23806394.153    23806401.4104
  21282676.839   -16867632.381 9 -13127851.36247  21282677.806    21282683.2914
  21294553.403   -19364806.137 9 -15067433.27547  21294555.040    21294559.8194
  22197730.294    -9208375.700 8  -7162714.44346  22197733.275    22197739.0124
  22643183.111    -4984470.190 8  -3862272.58146  22643192.799    22643199.5734
  20066787.185   -23563206.745 9 -18339588.44648  20066788.505    20066792.4154
  23853155.756      153100.187 8    143963.08145  23853154.292    23853160.6224
 00  6 30  2 47  0.0000000  0  7 29 05 06 24 25 30 04
  23823351.461     4333079.843 8   3394187.63245  23823351.747    23823359.0384
  21295198.163   -16801823.955 9 -13076572.11847  21295200.446    21295206.1654
  21282419.688   -19428560.464 9 -15117111.95147  21282421.938    21282428.3234
  22199766.054    -9197672.588 8  -7154374.42346  22199769.498    22199776.1444
  22628709.714    -5060568.579 8  -3921569.98346  22628712.492    22628718.0974
  20066902.429   -23562589.860 9 -18339107.78148  20066906.236    20066910.0074
  23866762.736      224620.247 8    199692.86845  23866762.761    23866772.2184
 00  6 30  2 47 30.0000000  0  7 29 05 06 24 25 30 04
  23840348.469     4422399.700 8   3463787.41345  23840348.003    23840355.0614
  21307777.406   -16735713.327 9 -13025057.39547  21307781.144    21307786.2504
  21270362.141   -19491929.968 9 -15166490.76347  21270364.221    21270369.4034
  22201916.076    -9186378.029 8  -7145573.50546  22201918.346    22201925.7124
  22614297.246    -5136307.474 8  -3980587.27446  22614299.342    22614305.0014
  20067105.475   -23561536.165 9 -18338286.73448  20067106.598    20067110.7044
  23880463.977      296592.007 8    255774.62145  23880460.981    23880468.3214
 00  6 30  2 48  0.0000000  0  7 29 05 06 24 25 30 04
  23857388.870     4511930.731 8   3533551.79145  23857385.211    23857391.6764
  21320415.517   -16669301.438 9 -12973307.92347  21320418.981    21320424.1884
  21258375.533   -19554913.712 9 -15215568.98747  21258378.970    21258384.2334
  22204175.190    -9174492.328 8  -7136311.98146  22204180.168    22204187.8484
  22599952.152    -5211684.820 8  -4039322.85046  22599955.454    22599961.7214
  20067388.191   -23560045.334 9 -18337125.06748  20067390.136    20067394.4394
  23894242.516      369013.262 8    312206.65045  23894241.707    23894249.7794
 00  6 30  2 48 30.0000000  0  7 29 05 06 24 25 30 04
  23874461.191     4601669.770 8   3603478.20145  23874463.754    23874467.1844
  21333112.820   -16602589.266 9 -12921324.46647  21333114.646    21333120.0334
  21246465.496   -19617510.744 9 -15264345.88347  21246467.156    21246471.9134
  22206550.569    -9162016.090 8  -7126590.28646  22206554.739    22206562.2054
  22585676.781    -5286697.960 8  -4097774.60946  22585681.035    22585687.3184
  20067755.995   -23558117.108 9 -18335622.57448  20067757.626    20067761.5054
  23908103.031      441881.151 8    368986.74445  23908108.385    23908115.6864
 00  6 30  2 49  0.0000000  0  7 29 05 06 24 25 30 04
  23891578.015     4691613.866 8   3673564.40545  23891578.519    23891586.4064
  21345865.845   -16535577.531 9 -12869107.57747  21345866.278    21345871.8044
  21234625.749   -19679720.165 9 -15312820.75547  21234628.673    21234633.8064
  22209036.855    -9148949.526 8  -7116408.61346  22209041.163    22209048.5154
  22571472.145    -5361344.397 8  -4155940.66946  22571476.194    22571481.8414
  20068203.948   -23555751.512 9 -18333779.26748  20068207.032    20068211.5124
  23922064.424      515193.633 8    426113.21945  23922058.135    23922067.6794
 00  6 30  2 49 30.0000000  0  7 29 05 06 24 25 30 04
  23908727.638     4781759.975 8   3743807.99445  23908732.501    23908738.3654
  21358673.055   -16468266.955 9 -12816657.83547  21358674.832    21358680.6664
  21222862.014   -19741541.128 9 -15360992.92547  21222864.155    21222869.6954
  22211637.797    -9135293.338 8  -7105767.47546  22211640.270    22211646.5194
  22557339.948    -5435622.326 8  -4213819.53846  22557342.218    22557347.3364
  20068738.276   -23552948.150 9 -18331594.84748  20068740.872    20068745.1734
  23936091.741      588948.215 8    483584.19945  23936092.301    23936102.6134
 00  6 30  2 50  0.0000000  0  7 29 05 06 24 25 30 04
  23925920.784     4872104.953 8   3814206.62845  23925925.185    23925930.9494
  21371534.983   -16400658.558 9 -12763976.02147  21371540.156    21371545.5214
  21211170.411   -19802972.470 9 -15408861.46747  21211173.980    21211179.3154
  22214346.794    -9121047.771 8  -7094667.08346  22214351.508    22214357.3334
  22543277.494    -5509529.098 8  -4271409.18646  22543278.296    22543283.4454
  20069355.218   -23549707.080 9 -18329069.35248  20069357.508    20069361.6134
  23950210.990      663142.377 8    541397.69545  23950212.948    23950221.1994
 00  6 30  2 50 30.0000000  0  7 29 05 06 24 25 30 04
  23943152.468     4962645.944 8   3884757.96445  23943154.296    23943162.8344
  21384460.093   -16332753.178 9 -12711062.79047  21384462.296    21384467.7574
  21199558.079   -19864013.194 9 -15456425.64447  21199559.206    21199564.0004
  22217169.233    -9106213.441 8  -7083107.91946  22217173.077    22217180.3794
  22529283.497    -5583062.972 8  -4328708.28546  22529285.602    22529291.0274
  20070056.024   -23546028.111 9 -18326202.64848  20070057.594    20070061.9134
  23964418.167      737773.909 8    599552.01245  23964415.368    23964423.0954
 00  6 30  2 51  0.0000000  0  7 29 05 06 24 25 30 04
  23960417.932     5053379.900 8   3955459.67645  23960420.496    23960428.0884
  21397439.553   -16264551.523 9 -12657918.69647  21397440.697    21397446.4454
  21188017.103   -19924662.477 9 -15503684.83047  21188018.371    21188022.8864
  22220104.813    -9090790.829 8  -7071090.36346  22220108.374    22220115.4564
  22515362.491    -5656221.206 8  -4385714.65246  22515363.970    22515369.0484
  20070839.777   -23541910.965 9 -18322994.49748  20070841.095    20070845.6474
  23978697.114      812840.123 8    658045.07245  23978699.229    23978707.6534
 00  6 30  2 51 30.0000000  0  7 29 05 06 24 25 30 04
  23977719.968     5144303.783 8   4026309.33845  23977722.381    23977730.1254
  21410473.594   -16196054.747 9 -12604544.63047  21410475.095    21410481.0104
  21176547.660   -19984919.444 9 -15550638.29447  21176551.385    21176556.6484
  22223150.121    -9074780.522 8  -7058614.83946  22223155.142    22223161.7204
  22501510.794    -5729002.071 8  -4442426.98646  22501514.152    22501519.5554
  20071704.669   -23537355.405 9 -18319444.73148  20071707.785    20071712.1724
  23993068.534      888338.597 8    716874.92645  23993065.914    23993073.8354
 00  6 30  2 52  0.0000000  0  7 29 05 06 24 25 30 04
  23995062.248     5235414.348 8   4097304.49045  23995060.573    23995067.2684
  21423564.403   -16127263.720 9 -12550941.28347  21423565.505    21423570.9214
  21165158.419   -20044783.247 9 -15597285.39647  21165159.627    21165164.9244
  22226312.349    -9058183.081 8  -7045681.81746  22226314.212    22226320.3624
  22487738.320    -5801403.134 8  -4498843.34346  22487736.325    22487742.3344
  20072654.781   -23532361.172 9 -18315553.13548  20072658.039    20072662.8064
  24007515.025      964267.049 8    776039.81445  24007514.946    24007523.7174
 00  6 30  2 52 30.0000000  0  7 29 05 06 24 25 30 04
  24012431.448     5326708.833 7   4168442.96345  24012433.411    24012442.3364
  21436710.856   -16058179.482 9 -12497109.46547  21436712.424    21436717.1674
  21153840.347   -20104253.146 9 -15643625.57847  21153842.914    21153847.3584
  22229584.523    -9040999.171 8  -7032291.80946  22229583.870    22229590.4594
  22474030.459    -5873421.803 8  -4554961.74746  22474031.687    22474036.9514
  20073690.766   -23526928.291 9 -18311319.74448  20073692.205    20073696.8784
  24022035.303     1040622.851 8    835537.70845  24022045.126    24022053.6124
 00  6 30  2 53  0.0000000  0  7 29 05 06 24 25 30 04
  24029838.035     5418184.008 7   4239722.23245  24029840.648    24029847.5564
  21449911.020   -15988802.917 9 -12443049.84947  21449914.230    21449919.9064
  21142599.977   -20163328.060 9 -15689657.97747  21142600.865    21142605.8244
  22232962.697    -9023229.271 8  -7018445.18446  22232965.456    22232973.0274
  22460397.131    -5945055.747 8  -4610780.37646  22460400.013    22460405.5534
  20074807.097   -23521056.756 9 -18306744.54048  20074809.500    20074814.1654
  24036651.950     1117403.465 8    895366.63545  24036656.103    24036664.7154
 00  6 30  2 53 30.0000000  0  7 29 05 06 24 25 30 04
  24047282.448     5509836.922 7   4311140.00045  24047281.296    24047287.7964
  21463171.531   -15919134.789 9 -12388763.03747  21463171.813    21463177.3804
  21131431.846   -20222007.154 9 -15735381.93847  21131435.167    21131440.3914
  22236457.062    -9004874.075 8  -7004142.48146  22236458.419    22236464.5634
  22446838.166    -6016302.572 9  -4666297.35747  22446842.358    22446848.0594
  20076008.258   -23514746.457 9 -18301827.44748  20076010.611    20076014.8184
  24051339.679     1194606.453 7    955524.66745  24051347.641    24051354.9484
 00  6 30  2 54  0.0000000  0  7 29 05 06 24 25 30 04
  24064747.423     5601664.583 7   4382693.89345  24064756.586    24064763.0114
  21476483.635   -15849176.006 9 -12334249.77647  21476484.252    21476489.4924
  21120342.669   -20280289.449 9 -15780796.71347  21120344.415    21120349.8444
  22240058.342    -8985934.240 8  -6989384.19846  22240062.597    22240069.4604
  22433355.187    -6087160.514 8  -4721511.30647  22433358.292    22433363.4304
  20077292.899   -23507997.354 9 -18296568.43248  20077294.638    20077299.2314
  24066112.357     1272229.428 8   1016009.98045  24066119.261    24066125.7624
 00  6 30  2 54 30.0000000  0  7 29 05 06 24 25 30 04
  24082262.783     5693663.914 8   4454381.57745  24082263.428    24082269.6704
  21489850.479   -15778927.477 9 -12279510.71347  21489852.126    21489857.0194
  21109323.473   -20338174.242 9 -15825901.75147  21109328.679    21109334.1464
  22243773.942    -8966410.400 8  -6974170.86146  22243777.953    22243784.8814
  22419946.507    -6157627.307 9  -4776420.46647  22419948.903    22419954.1184
  20078659.333   -23500809.153 9 -18290967.24548  20078662.335    20078666.9144
  24080959.191     1350269.781 8   1076820.56645  24080971.158    24080977.5314
 00  6 30  2 55  0.0000000  0  7 29 05 06 24 25 30 04
  24099805.002     5785831.817 7   4526200.64645  24099802.761    24099808.0994
  21503271.960   -15708390.158 9 -12224546.60247  21503274.550    21503280.1714
  21098387.356   -20395660.680 9 -15870696.38847  21098389.616    21098395.1794
  22247603.189    -8946303.342 8  -6958503.05446  22247603.300    22247609.9494
  22406613.415    -6227700.465 9  -4831022.90547  22406615.239    22406619.9154
  20080111.691   -23493181.760 9 -18285023.85048  20080113.632    20080118.1654
  24095893.602     1428724.808 7   1137954.24345  24095898.243    24095908.2994
 00  6 30  2 55 30.0000000  0  7 29 05 06 24 25 30 04
  24117365.440     5878165.484 7   4598148.89045  24117373.114    24117381.2494
  21516750.664   -15637564.775 9 -12169358.06547  21516752.258    21516758.5594
  21087523.725   -20452748.076 9 -15915180.05947  21087525.949    21087531.7724
  22251538.885    -8925613.801 8  -6942381.36646  22251541.507    22251548.2074
  22393352.407    -6297377.890 9  -4885316.97447  22393355.807    22393360.1184
  20081645.751   -23485115.098 9 -18278738.16348  20081648.793    20081653.8064
  24110898.151     1507592.367 7   1199409.32245  24110905.606    24110916.0464
 00  6 30  2 56  0.0000000  0  7 29 05 06 24 25 30 04
  24134976.062     5970661.770 8   4670223.83445  24134976.019    24134982.3574
  21530280.611   -15566452.550 9 -12113945.99047  21530284.382    21530290.9704
  21076737.571   -20509435.410 9 -15959352.00847  21076739.314    21076744.2194
  22255584.449    -8904342.556 8  -6925806.42846  22255588.525    22255596.5804
  22380167.385    -6366657.331 8  -4939300.91147  22380171.483    22380177.1734
  20083265.055   -23476608.912 9 -18272109.98248  20083267.811    20083272.1204
  24125975.127     1586869.704 7   1261183.75245  24125992.933    24126001.0974
 00  6 30  2 56 30.0000000  0  7 29 05 06 24 25 30 04
  24152610.558     6063317.644 7   4742423.08145  24152606.649    24152613.6544
  21543868.019   -15495053.975 9 -12058310.79147  21543871.747    21543877.4914
  21066024.662   -20565721.788 9 -16003211.52747  21066028.545    21066033.2074
  22259745.242    -8882490.156 8  -6908778.61946  22259747.547    22259754.6304
  22367060.528    -6435536.584 8  -4992973.01247  22367064.205    22367070.0384
  20084969.395   -23467663.214 9 -18265139.33048  20084970.231    20084974.4744
  24141150.016     1666554.180 7   1323275.42745  24141157.460    24141165.4064
 00  6 30  2 57  0.0000000  0  7 29 05 06 24 25 30 04
  24170265.341     6156129.942 7   4814744.20745  24170267.620    24170273.0944
  21557511.072   -15423370.274 9 -12002453.42247  21557512.839    21557517.5514
  21055391.158   -20621606.543 9 -16046758.09347  21055393.870    21055399.2334
  22264017.231    -8860057.583 8  -6891298.75246  22264016.745    22264022.8904
  22354033.105    -6504013.281 8  -5046331.44746  22354033.610    22354038.9624
  20086753.043   -23458278.016 9 -18257826.21048  20086755.971    20086760.4714
  24156392.512     1746643.330 7   1385682.41145  24156397.905    24156406.8234
 00  6 30  2 57 30.0000000  0  7 29 05 06 24 25 30 04
  24187954.070     6249095.789 7   4887185.06445  24187958.970    24187966.4314
  21571208.735   -15351402.244 9 -11946374.48847  21571208.184    21571212.9404
  21044833.869   -20677088.964 9 -16089991.14347  21044835.778    21044841.5634
  22268389.020    -8837045.716 8  -6873367.44246  22268395.234    22268401.9604
  22341077.543    -6572085.263 8  -5099374.51247  22341079.577    22341085.6474
  20088622.430   -23448453.239 9 -18250170.55448  20088625.393    20088629.7394
  24171702.319     1827134.748 7   1448402.86245  24171713.632    24171721.8824
 00  6 30  2 58  0.0000000  0  7 29 05 06 24 25 30 04
  24205679.283     6342212.040 7   4959743.04445  24205677.500    24205686.8204
  21584954.037   -15279150.905 9 -11890074.82647  21584956.699    21584962.6854
  21034350.997   -20732168.236 9 -16132910.04147  21034354.076    21034359.8634
  22272880.469    -8813455.398 8  -6854985.40646  22272884.635    22272890.9834
  22328201.614    -6639750.546 9  -5152100.68547  22328203.738    22328209.1014
  20090577.540   -23438188.979 9 -18242172.45348  20090578.737    20090583.6324
  24187096.697     1908025.675 8   1511434.57745  24187108.237    24187116.8874
 00  6 30  2 58 30.0000000  0  7 29 05 06 24 25 30 04
  24223424.886     6435475.828 7   5032416.04445  24223425.837    24223432.4244
  21598760.295   -15206617.154 9 -11833555.08047  21598759.830    21598765.3494
  21023948.065   -20786843.514 9 -16175514.15347  21023950.032    21023954.8984
  22277476.028    -8789287.438 8  -6836153.29746  22277482.402    22277490.5124
  22315403.804    -6707006.798 9  -5204508.12447  22315405.717    22315410.2474
  20092613.859   -23427485.040 9 -18233831.74548  20092615.680    20092620.4404
  24202574.104     1989313.535 7   1574775.61145  24202578.224    24202584.9574
 00  6 30  2 59  0.0000000  0  7 29 05 06 24 25 30 04
  24241198.894     6528884.015 7   5105201.53745  24241201.228    24241207.9344
  21612615.507   -15133801.720 9 -11776815.84947  21612616.348    21612621.6584
  21013619.920   -20841114.128 9 -16217802.95347  21013622.724    21013627.6404
  22282185.854    -8764542.573 8  -6816871.61546  22282191.207    22282198.7594
  22302684.414    -6773851.731 9  -5256595.07147  22302685.878    22302690.2514
  20094733.404   -23416341.332 9 -18225148.35248  20094736.373    20094740.7574
  24218113.861     2070995.833 7   1638424.06845  24218118.616    24218127.4174
 00  6 30  2 59 30.0000000  0  7 29 05 06 24 25 30 04
  24259004.717     6622433.549 7   5178097.22445  24259004.181    24259010.0344
  21626526.192   -15060705.812 9 -11719858.05947  21626525.621    21626531.5114
  21003369.303   -20894979.229 9 -16259775.75647  21003372.181    21003377.8574
  22287009.200    -8739222.015 8  -6797141.34446  22287011.004    22287017.2244
  22290039.579    -6840283.349 9  -5308359.94747  22290043.721    22290048.0834
  20096939.436   -23404757.917 9 -18216122.33448  20096940.742    20096944.8994
  24233733.111     2153070.124 8   1702377.89145  24233738.441    24233746.4174
 00  6 30  3  0  0.0000000  0  7 29 05 06 24 25 30 04
  24276827.814     6716121.585 7   5251100.75945  24276832.128    24276836.8674
  21640482.495   -14987330.406 9 -11662682.50747  21640488.145    21640494.6214
  20993197.788   -20948438.153 9 -16301432.05347  20993199.980    20993205.2224
  22291937.117    -8713326.325 8  -6776962.92446  22291938.092    22291944.6994
  22277478.900    -6906299.397 9  -5359800.99347  22277480.890    22277486.4594
  20099225.972   -23392734.613 9 -18206753.54948  20099228.626    20099233.1224
  24249429.572     2235533.518 7   1766634.94245  24249430.276    24249440.0084
 00  6 30  3  0 30.0000000  0  7 29 05 06 24 25 30 04
  24294680.193     6809944.895 7   5324209.70745  24294684.869    24294690.4944
  21654500.488   -14913676.345 9 -11605289.78947  21654504.071    21654511.1294
  20983102.015   -21001490.157 9 -16342771.28447  20983104.884    20983109.2234
  22296973.418    -8686856.730 8  -6756337.29846  22296975.724    22296981.8734
  22264994.562    -6971897.527 9  -5410916.40747  22264998.332    22265003.2084
  20101598.212   -23380271.519 9 -18197042.06748  20101599.858    20101604.7434
  24265195.036     2318383.548 8   1831193.28445  24265196.258    24265204.4754
 00  6 30  3  1  0.0000000  0  7 29 05 06 24 25 30 04
  24312564.265     6903900.682 7   5397421.88445  24312564.880    24312572.7854
  21668570.933   -14839744.552 9 -11547680.67347  21668573.576    21668579.5244
  20973083.552   -21054134.595 9 -16383792.92747  20973086.234    20973091.2334
  22302116.972    -8659814.138 8  -6735265.15746  22302121.483    22302129.1804
  22252593.486    -7037075.712 9  -5461704.58247  22252594.900    22252600.4024
  20104053.247   -23367368.702 9 -18186987.93848  20104055.053    20104060.2624
  24281032.729     2401617.618 8   1896050.84045  24281036.253    24281045.1134
 00  6 30  3  1 30.0000000  0  7 29 05 06 24 25 30 04
  24330464.982     6997985.640 7   5470734.77445  24330468.596    24330478.5134
  21682691.468   -14765536.047 9 -11489855.94247  21682695.154    21682700.9624
  20963145.092   -21106370.540 9 -16424496.26447  20963146.438    20963151.6194
  22307372.952    -8632199.323 8  -6713747.17246  22307376.915    22307384.4524
  22240269.709    -7101832.093 9  -5512164.08547  22240272.455    22240277.2964
  20106591.005   -23354025.975 9 -18176591.03248  20106594.445    20106598.9604
  24296945.994     2485233.166 8   1961205.66345  24296948.068    24296956.3204
 00  6 30  3  2  0.0000000  0  7 29 05 06 24 25 30 04
  24348398.170     7092196.871 7   5544146.00345  24348395.036    24348401.6114
  21696866.751   -14691051.741 9 -11431816.28147  21696868.900    21696874.6224
  20953282.906   -21158197.318 9 -16464880.77547  20953284.160    20953289.9874
  22312735.970    -8604013.596 8  -6691784.30346  22312740.628    22312747.3184
  22228029.822    -7166163.948 9  -5562292.77647  22228030.483    22228035.7834
  20109213.788   -23340243.277 9 -18165851.29048  20109217.310    20109221.9714
  24312929.203     2569227.396 8   2026655.58745  24312931.663    24312939.6734
 00  6 30  3  2 30.0000000  0  7 29 05 06 24 25 30 04
  24366339.302     7186531.422 7   5617653.34345  24366347.384    24366353.5544
  21711091.412   -14616292.412 9 -11373562.33647  21711094.684    21711100.1654
  20943497.608   -21209614.309 9 -16504945.96047  20943499.353    20943505.2114
  22318207.713    -8575257.912 8  -6669377.31746  22318212.239    22318219.7994
  22215867.021    -7230069.192 9  -5612089.05047  22215869.014    22215874.6964
  20111921.312   -23326020.808 9 -18154768.86848  20111923.448    20111928.4574
  24328980.512     2653597.783 7   2092398.63745  24328985.446    24328996.0024
 00  6 30  3  3  0.0000000  0  7 29 05 06 24 25 30 04
  24384320.648     7280986.332 7   5691254.43944  24384321.053    24384328.0424
  21725370.668   -14541259.123 8 -11315094.90447  21725372.995    21725378.8294
  20933791.799   -21260620.887 9 -16544691.34147  20933793.803    20933798.2404
  22323789.108    -8545933.327 8  -6646527.02646  22323792.559    22323799.4264
  22203786.614    -7293546.179 9  -5661551.60947  22203790.306    22203795.8714
  20114710.563   -23311358.602 9 -18143343.78848  20114713.444    20114718.7544
  24345112.271     2738341.839 7   2158432.85145  24345112.803    24345121.9104
 00  6 30  3  3 30.0000000  0  7 29 05 06 24 25 30 04
  24402319.499     7375558.357 7   5764946.74044  24402317.804    24402323.4604
  21739700.734   -14465952.945 8 -11256414.84647  21739702.921    21739709.5604
  20924162.200   -21311216.313 9 -16584116.36947  20924165.685    20924170.3354
  22329480.505    -8516040.881 8  -6623234.25346  22329480.921    22329487.6234
  22191791.699    -7356592.509 9  -5710678.60147  22191793.354    22191797.4874
  20117587.151   -23296256.850 9 -18131576.21448  20117588.294    20117592.4224
  24361305.973     2823456.865 7   2224756.10645  24361309.964    24361318.7884
 00  6 30  3  4  0.0000000  0  7 29 05 06 24 25 30 04
  24420330.735     7470244.672 7   5838728.20944  24420336.380    24420343.8774
  21754085.487   -14390374.634 9 -11197522.72747  21754085.720    21754091.8034
  20914613.891   -21361399.883 9 -16623220.44347  20914616.022    20914621.6824
  22335271.552    -8485581.669 8  -6599499.83946  22335277.591    22335284.2724
  22179875.124    -7419205.980 9  -5759468.32247  22179878.210    22179883.2694
  20120542.434   -23280715.247 9 -18119465.90248  20120545.230    20120549.7804
  24377570.656     2908940.144 7   2291366.34644  24377575.908    24377586.3774
 00  6 30  3  4 30.0000000  0  6 05 06 24 25 30 04
  21768516.082   -14314525.115 9 -11138419.27747  21768519.499    21768525.7854
  20905141.994   -21411171.119 9 -16662003.23147  20905144.564    20905149.7684
  22341177.381    -8454556.783 8  -6575324.65246  22341180.745    22341189.1024
  22168044.323    -7481384.450 9  -5807919.07647  22168046.375    22168051.0294
  20123581.506   -23264733.957 9 -18107012.96248  20123586.221    20123591.3924
  24393918.194     2994789.010 7   2358261.39844  24393913.966    24393922.3214
 00  6 30  3  5  0.0000000  0  6 05 06 24 25 30 04
  21783004.233   -14238405.491 9 -11079105.36047  21783004.889    21783010.3144
  20895748.428   -21460529.378 9 -16700464.21147  20895751.717    20895757.5884
  22347190.478    -8422967.468 8  -6550709.64746  22347191.850    22347199.9194
  22156294.596    -7543125.923 9  -5856029.31147  22156297.103    22156301.9954
  20126710.796   -23248313.155 9 -18094217.55248  20126711.620    20126715.8914
  24410314.813     3081001.092 7   2425439.49645  24410318.167    24410327.5484
 00  6 30  3  5 30.0000000  0  6 05 06 24 25 30 04
  21797538.606   -14162016.732 9 -11019581.73947  21797540.919    21797547.9854
  20886435.886   -21509473.832 9 -16738602.75747  20886438.419    20886443.6114
  22353306.669    -8390814.701 8  -6525655.58746  22353310.156    22353317.4524
  22144627.481    -7604428.307 9  -5903797.40447  22144631.518    22144636.4274
  20129917.396   -23231452.624 9 -18081079.50348  20129919.715    20129924.1994
  24426794.298     3167573.354 7   2492898.27745  24426794.692    24426800.5414
 00  6 30  3  6  0.0000000  0  6 05 06 24 25 30 04
  21812127.447   -14085359.827 9 -10959849.16047  21812128.798    21812135.2554
  20877201.474   -21558003.907 9 -16776418.39847  20877203.663    20877208.6844
  22359531.330    -8358099.821 8  -6500163.52546  22359535.708    22359543.5904
  22133047.600    -7665289.368 9  -5951221.59447  22133050.089    22133055.4544
  20133208.636   -23214152.444 9 -18067598.86348  20133211.510    20133216.4854
  24443341.083     3254503.374 7   2560635.83445  24443335.529    24443345.5694
 00  6 30  3  6 30.0000000  0  6 05 06 24 25 30 04
  21826764.973   -14008435.641 9 -10899908.31847  21826767.354    21826773.5394
  20868045.810   -21606119.006 9 -16813910.69147  20868047.646    20868051.9864
  22365868.110    -8324824.020 8  -6474234.38846  22365868.041    22365875.1374
  22121550.350    -7725707.298 9  -5998300.48247  22121552.779    22121558.6794
  20136584.248   -23196412.917 9 -18053775.88148  20136587.331    20136592.2714
  24459946.566     3341788.396 7   2628649.94845  24459944.631    24459954.0324
 00  6 30  3  7  0.0000000  0  6 05 06 24 25 30 04
  21841451.010   -13931245.239 8 -10839760.05347  21841455.969    21841461.1814
  20858965.640   -21653818.624 9 -16851079.23647  20858969.851    20858974.9824
  22372299.849    -8290988.488 8  -6447869.08846  22372306.631    22372314.1064
  22110137.961    -7785679.770 9  -6045032.26047  22110140.881    22110145.9814
  20140045.243   -23178234.043 9 -18039610.55248  20140047.072    20140051.1654
  24476616.479     3429425.687 7   2696938.61345  24476621.078    24476632.3344
 00  6 30  3  7 30.0000000  0  6 05 06 24 25 30 04
  21856192.785   -13853789.374 9 -10779404.90547  21856195.107    21856200.8644
  20849969.302   -21701102.161 9 -16887923.54647  20849972.168    20849977.3684
  22378852.305    -8256594.330 8  -6421068.50546  22378852.231    22378858.8844
  22098810.965    -7845204.976 9  -6091415.53247  22098813.193    22098818.2374
  20143587.448   -23159615.766 9 -18025102.81848  20143590.182    20143594.5594
  24493359.284     3517412.697 7   2765499.77445  24493368.452    24493374.4374
 00  6 30  3  8  0.0000000  0  6 05 06 24 25 30 04
  21870984.718   -13776069.123 9 -10718843.74147  21870984.594    21870990.1544
  20841050.367   -21747968.932 9 -16924443.11747  20841053.973    20841058.9984
  22385497.510    -8221643.081 8  -6393833.81046  22385502.559    22385510.4884
  22087566.730    -7904280.710 9  -6137448.56447  22087571.204    22087576.7694
  20147214.249   -23140558.468 9 -18010252.99848  20147216.898    20147221.2394
  24510170.670     3605746.712 7   2834331.33945  24510177.699    24510183.7654
 00  6 30  3  8 30.0000000  0  6 05 06 24 25 30 04
  21885821.501   -13698085.347 8 -10658077.23747  21885824.380    21885829.6404
  20832211.977   -21794418.403 9 -16960637.51047  20832214.453    20832219.9864
  22392255.863    -8186135.778 8  -6366165.85746  22392259.320    22392267.6654
  22076413.697    -7962904.730 9  -6183129.59647  22076416.278    22076421.5464
  20150925.951   -23121062.111 9 -17995061.05448  20150927.057    20150931.0304
  24527048.759     3694424.855 7   2903431.09245  24527050.277    24527059.9434
 00  6 30  3  9  0.0000000  0  6 05 06 24 25 30 04
  21900711.042   -13619839.035 8 -10597106.16447  21900714.636    21900720.0644
  20823453.049   -21840450.058 9 -16996506.33047  20823455.573    20823460.6534
  22399119.960    -8150073.819 8  -6338065.67946  22399122.360    22399129.0104
  22065344.333    -8021075.466 9  -6228457.43147  22065346.201    22065351.0454
  20154718.125   -23101126.674 9 -17979526.97048  20154720.350    20154724.6454
  24543992.103     3783444.902 7   2972797.21445  24543990.875    24543999.7664
 00  6 30  3  9 30.0000000  0  6 05 06 24 25 30 04
  21915647.964   -13541331.222 8 -10535931.33847  21915654.014    21915660.7164
  20814772.297   -21886063.474 9 -17032049.25847  20814775.983    20814780.7354
  22406086.739    -8113458.463 8  -6309534.28946  22406089.679    22406096.7984
  22054360.810    -8078790.546 9  -6273430.20847  22054363.079    22054368.6314
  20158595.509   -23080752.668 9 -17963651.15248  20158597.032    20158601.6194
  24560994.251     3872803.843 7   3042427.38144  24560994.997    24561005.3884
 00  6 30  3 10  0.0000000  0  6 05 06 24 25 30 04
  21930641.064   -13462563.027 8 -10474553.63147  21930642.686    21930650.3744
  20806174.397   -21931258.017 9 -17067265.78247  20806175.902    20806180.4774
  22413158.094    -8076291.027 8  -6280572.70246  22413162.425    22413170.1354
  22043462.856    -8136047.987 9  -6318046.38347  22043467.223    22043472.4994
  20162555.535   -23059939.909 9 -17947433.43148  20162557.967    20162562.1964
  24578070.281     3962498.866 7   3112319.46444  24578061.534    24578068.8314
 00  6 30  3 10 30.0000000  0  6 05 06 24 25 30 04
  21945681.177   -13383535.484 9 -10412973.81547  21945682.365    21945688.7474
  20797653.353   -21976033.119 9 -17102155.48247  20797655.427    20797659.8204
  22420335.925    -8038572.985 8  -6251182.07746  22420339.417    22420347.9674
  22032657.991    -8192845.990 9  -6362304.54547  22032659.460    22032665.0214
  20166599.716   -23038688.490 9 -17930873.91548  20166601.706    20166606.3884
  24595188.729     4052527.621 7   3182471.59044  24595196.184    24595204.2114
 00  6 30  3 11  0.0000000  0  6 05 06 24 25 30 04
  21960767.617   -13304249.409 8 -10351192.54647  21960769.280    21960776.0114
  20789210.604   -22020388.267 9 -17136717.93647  20789213.884    20789219.2494
  22427622.936    -8000305.657 8  -6221363.44546  22427622.422    22427630.0414
  22021935.349    -8249182.336 9  -6406202.98047  22021938.839    22021943.7564
  20170727.091   -23016998.526 9 -17913972.66648  20170729.188    20170733.9074
  24612385.108     4142887.223 7   3252881.61244  24612389.380    24612399.7594
 00  6 30  3 11 30.0000000  0  6 05 06 24 25 30 04
  21975904.626   -13224705.825 8 -10289210.62647  21975905.840    21975911.9524
  20780849.330   -22064322.985 9 -17170952.78847  20780853.454    20780858.3334
  22435005.559    -7961490.465 8  -6191117.90546  22435007.940    22435017.0254
  22011306.634    -8305054.895 9  -6449740.02647  22011306.422    22011311.7574
  20174937.081   -22994870.452 9 -17896730.03048  20174940.132    20174944.6524
  24629648.796     4233575.031 7   3323547.28344  24629649.149    24629655.2244
 00  6 30  3 12  0.0000000  0  6 05 06 24 25 30 04
  21991089.681   -13144905.724 8 -10227028.79647  21991091.729    21991098.0494
  20772572.683   -22107836.711 9 -17204859.59247  20772573.447    20772578.4384
  22442494.989    -7922128.796 8  -6160446.53246  22442499.023    22442507.1204
  22000762.288    -8360461.741 9  -6492914.17247  22000763.224    22000768.2524
  20179232.021   -22972304.428 9 -17879146.14548  20179234.644    20179238.6104
  24646969.009     4324588.275 7   3394466.50544  24646964.032    24646975.1344
 00  6 30  3 12 30.0000000  0  5 05 06 24 25 30
  22006323.001   -13064849.981 8 -10164647.78147  22006325.662    22006331.3344
  20764369.850   -22150928.878 9 -17238437.90447  20764373.165    20764378.3044
  22450090.111    -7882222.034 8  -6129350.40246  22450093.212    22450100.9264
  21990306.134    -8415400.871 9  -6535723.87047  21990308.985    21990313.8264
  20183609.901   -22949300.447 9 -17861220.98648  20183611.899    20183616.3504
 00  6 30  3 13  0.0000000  0  5 05 06 24 25 30
  22021608.120   -12984539.706 8 -10102068.43347  22021608.134    22021613.8324
  20756250.956   -22193599.052 9 -17271687.39547  20756253.414    20756258.2344
  22457788.044    -7841771.668 8  -6097830.69746  22457790.273    22457797.9694
  21979940.183    -8469870.714 9  -6578167.88947  21979943.093    21979948.1294
  20188069.406   -22925858.562 9 -17842954.60248  20188072.861    20188077.3394
 00  6 30  3 13 30.0000000  0  5 05 06 24 25 30
  22036940.200   -12903975.764 8 -10039291.41947  22036939.126    22036945.2294
  20748211.862   -22235846.794 9 -17304607.71747  20748214.241    20748218.9854
  22465585.743    -7800779.099 8  -6065888.48746  22465591.372    22465599.3584
  21969664.153    -8523869.210 9  -6620244.62247  21969667.842    21969672.7854
  20192612.496   -22901978.992 9 -17824347.16148  20192616.444    20192621.3984
 00  6 30  3 14  0.0000000  0  5 05 06 24 25 30
  22052315.100   -12823159.124 8  -9976317.49547  22052317.964    22052324.5844
  20740253.612   -22277671.720 9 -17337198.56847  20740254.717    20740260.7254
  22473491.689    -7759245.805 8  -6033524.92646  22473494.135    22473502.4704
  21959479.897    -8577394.734 9  -6661952.81547  21959482.179    21959486.6364
  20197241.917   -22877662.057 9 -17805398.93048  20197244.487    20197248.4004
 00  6 30  3 14 30.0000000  0  5 05 06 24 25 30
  22067741.258   -12742090.898 8  -9913147.52547  22067745.043    22067751.6524
  20732372.795   -22319073.398 9 -17369459.61147  20732376.034    20732381.7864
  22481496.571    -7717173.484 8  -6000741.37746  22481500.467    22481508.8484
  21949384.396    -8630444.886 9  -6703290.57947  21949386.615    21949391.9124
  20201950.846   -22852908.111 9 -17786110.16148  20201954.420    20201959.3614
 00  6 30  3 15  0.0000000  0  5 05 06 24 25 30
  22083218.083   -12660772.139 8  -9849782.33747  22083219.224    22083226.7624
  20724575.476   -22360051.225 9 -17401390.38247  20724578.288    20724583.9014
  22489607.292    -7674563.417 8  -5967538.79546  22489608.631    22489616.7384
  21939380.086    -8683017.442 9  -6744256.18947  21939382.765    21939387.0974
  20206744.992   -22827717.110 9 -17766480.83748  20206748.237    20206752.7964
 00  6 30  3 15 30.0000000  0  5 05 06 24 25 30
  22098739.447   -12579203.632 8  -9786222.55847  22098741.842    22098748.1624
  20716859.432   -22400604.773 9 -17432990.55247  20716861.798    20716866.1004
  22497813.749    -7631417.454 8  -5933918.60746  22497819.714    22497827.8974
  21929466.985    -8735110.893 9  -6784848.47947  21929469.226    21929474.2314
  20211623.041   -22802089.383 9 -17746511.19948  20211625.413    20211629.5954
 00  6 30  3 16  0.0000000  0  5 05 06 24 25 30
  22114315.618   -12497386.651 8  -9722469.15247  22114311.119    22114317.6914
  20709223.161   -22440733.638 9 -17464259.81747  20709225.637    20709229.7374
  22506127.508    -7587736.889 8  -5899881.86346  22506131.926    22506139.2754
  21919644.130    -8786723.270 9  -6825065.90047  21919647.806    21919653.1874
  20216582.426   -22776025.053 9 -17726201.35248  20216584.989    20216589.2264
 00  6 30  3 16 30.0000000  0  5 05 06 24 25 30
  22129925.422   -12415322.019 8  -9658522.78147  22129927.596    22129934.4634
  20701667.947   -22480437.614 9 -17495197.98147  20701670.381    20701674.6784
  22514543.586    -7543523.281 8  -5865429.76246  22514545.578    22514552.6774
  21909915.126    -8837852.874 9  -6864907.13347  21909918.061    21909924.1574
  20221627.262   -22749524.487 9 -17705551.58848  20221628.151    20221632.2544
 00  6 30  3 17  0.0000000  0  5 05 06 24 25 30
  22145590.570   -12333010.748 8  -9594384.19347  22145590.381    22145596.9044
  20694193.719   -22519716.009 9 -17525804.53648  20694196.251    20694200.8224
  22523055.328    -7498778.362 8  -5830563.62846  22523059.910    22523068.2644
  21900278.016    -8888497.711 9  -6904370.61147  21900280.507    21900286.7834
  20226751.453   -22722587.766 9 -17684561.95948  20226753.909    20226758.5084
 00  6 30  3 17 30.0000000  0  5 05 06 24 25 30
  22161297.598   -12250453.970 8  -9530054.32447  22161301.545    22161306.6474
  20686800.213   -22558568.718 9 -17556079.38548  20686802.369    20686807.4204
  22531673.405    -7453503.754 8  -5795284.77046  22531676.312    22531683.3514
  21890732.656    -8938655.991 9  -6943454.97947  21890735.973    21890741.2714
  20231961.376   -22695215.212 9 -17663232.71648  20231962.917    20231967.3744
 00  6 30  3 18  0.0000000  0  5 05 06 24 25 30
  22177053.585   -12167652.679 8  -9465533.92046  22177057.436    22177063.4404
  20679487.080   -22596995.472 9 -17586022.31448  20679489.635    20679495.2594
  22540386.316    -7407701.050 8  -5759594.41946  22540391.991    22540399.4464
  21881282.545    -8988325.833 9  -6982158.75347  21881284.580    21881289.2574
  20237251.948   -22667407.296 9 -17641564.23848  20237254.649    20237258.7744
 00  6 30  3 18 30.0000000  0  5 05 06 24 25 30
  22192859.666   -12084607.884 9  -9400823.76546  22192860.897    22192867.4544
  20672254.970   -22634995.713 9 -17615632.89648  20672258.451    20672264.1824
  22549202.462    -7361371.754 8  -5723493.72046  22549207.765    22549215.9034
  21871925.110    -9037505.762 9  -7020480.75247  21871926.057    21871930.2904
  20242626.282   -22639163.999 9 -17619556.49948  20242628.744    20242633.8144
 00  6 30  3 19  0.0000000  0  5 05 06 24 25 30
  22208708.353   -12001320.647 9  -9335924.70147  22208710.248    22208716.8014
  20665108.113   -22672569.109 9 -17644910.87648  20665108.707    20665113.8974
  22558120.255    -7314517.723 8  -5686984.10846  22558123.954    22558131.6564
  21862657.725    -9086193.708 9  -7058419.38747  21862660.174    21862665.5694
  20248082.362   -22610485.546 9 -17597209.67748  20248086.343    20248090.9654
 00  6 30  3 19 30.0000000  0  5 05 06 24 25 30
  22224606.823   -11917791.866 8  -9270837.43647  22224604.251    22224612.3624
  20658037.548   -22709715.249 9 -17673855.92248  20658039.784    20658045.6164
  22567136.793    -7267140.336 8  -5650066.73546  22567140.281    22567147.4834
  21853485.992    -9134387.363 9  -7095972.87847  21853489.432    21853494.1614
  20253622.900   -22581372.492 9 -17574524.20248  20253626.417    20253631.1164
 00  6 30  3 20  0.0000000  0  5 05 06 24 25 30
  22240539.959   -11834022.478 8  -9205562.68046  22240545.403    22240552.6754
  20651049.862   -22746433.848 9 -17702467.81748  20651052.457    20651057.8074
  22576250.475    -7219241.635 8  -5612743.13746  22576253.813    22576262.3284
  21844412.536    -9182085.435 9  -7133140.19247  21844413.044    21844417.7934
  20259246.754   -22551825.120 9 -17551500.30648  20259248.906    20259253.5564
 00  6 30  3 20 30.0000000  0  5 05 06 24 25 30
  22256528.385   -11750013.588 8  -9140101.32646  22256532.196    22256538.9164
  20644145.664   -22782724.578 9 -17730746.31948  20644146.896    20644151.7724
  22585469.557    -7170823.231 8  -5575014.54446  22585469.337    22585475.9644
  21835428.883    -9229286.132 9  -7169919.95547  21835430.968    21835435.7644
  20264952.871   -22521843.524 9 -17528138.04148  20264954.728    20264959.1104
 00  6 30  3 21  0.0000000  0  5 05 06 24 25 30
  22272558.547   -11665766.324 8  -9074454.19847  22272563.896    22272570.2464
  20637319.609   -22818587.119 9 -17758691.16648  20637322.264    20637326.9724
  22594774.395    -7121886.741 8  -5536882.27346  22594780.729    22594788.0924
  21826540.100    -9275987.352 9  -7206310.52147  21826543.408    21826549.2974
  20270740.203   -22491428.004 9 -17504437.67048  20270742.516    20270747.0634
 00  6 30  3 21 30.0000000  0  5 05 06 24 25 30
  22288638.212   -11581281.594 8  -9008622.02146  22288640.757    22288646.1964
  20630577.530   -22854021.214 9 -17786302.15248  20630579.389    20630584.3614
  22604190.799    -7072433.902 8  -5498347.65146  22604191.368    22604199.1544
  21817748.657    -9322187.628 9  -7242310.73047  21817751.794    21817757.2494
  20276611.189   -22460579.016 9 -17480399.52348  20276612.592    20276616.9924
 00  6 30  3 22  0.0000000  0  5 05 06 24 25 30
  22304759.289   -11496560.416 8  -8942605.60046  22304763.200    22304768.6594
  20623916.425   -22889026.438 9 -17813578.96648  20623918.397    20623923.3834
  22613698.158    -7022466.647 8  -5459412.19846  22613699.777    22613708.7694
  21809051.253    -9367885.311 9  -7277919.30347  21809056.130    21809061.6464
  20282563.303   -22429296.814 9 -17456023.80648  20282565.534    20282570.1384
 00  6 30  3 22 30.0000000  0  5 05 06 24 25 30
  22320925.628   -11411603.920 8  -8876405.80946  22320929.600    22320936.1704
  20617335.429   -22923602.556 9 -17840521.40048  20617338.233    20617343.7114
  22623305.404    -6971986.529 8  -5420077.10146  22623305.987    22623313.6334
  21800452.452    -9413078.632 9  -7313134.87247  21800456.412    21800461.4374
  20288598.601   -22397581.716 9 -17431310.76248  20288601.079    20288605.4674
 00  6 30  3 23  0.0000000  0  5 05 06 24 25 30
  22337139.183   -11326412.763 8  -8810023.18846  22337140.777    22337148.0114
  20610836.631   -22957749.216 9 -17867129.19248  20610840.253    20610845.9374
  22633008.099    -6920995.337 8  -5380343.78246  22633008.809    22633016.5094
  21791950.273    -9457765.691 9  -7347955.95447  21791952.927    21791958.1394
  20294716.084   -22365434.106 9 -17406260.71048  20294718.044    20294722.7714
 00  6 30  3 23 30.0000000  0  5 05 06 24 25 30
  22353397.795   -11240988.149 8  -8743458.64346  22353396.642    22353403.0184
  20604422.239   -22991466.300 9 -17893402.25048  20604424.787    20604429.7524
  22642808.122    -6869495.126 8  -5340213.79646  22642809.107    22642817.2104
  21783542.221    -9501944.922 9  -7382381.32047  21783545.166    21783551.1444
  20300915.387   -22332854.288 9 -17380873.86148  20300918.094    20300922.3244
 00  6 30  3 24  0.0000000  0  5 05 06 24 25 30
  22369692.420   -11155331.256 8  -8676713.10746  22369696.613    22369702.9444
  20598087.688   -23024753.538 9 -17919340.37448  20598089.891    20598095.0264
  22652701.905    -6817487.537 8  -5299688.46446  22652706.382    22652714.0734
  21775232.587    -9545614.736 9  -7416409.74247  21775235.777    21775241.1334
  20307196.432   -22299842.894 9 -17355150.73448  20307199.568    20307204.2674
 00  6 30  3 24 30.0000000  0  5 05 06 24 25 30
  22386037.268   -11069443.200 8  -8609787.46646  22386040.164    22386047.5094
  20591834.234   -23057610.660 9 -17944943.32848  20591837.368    20591842.6024
  22662694.174    -6764974.525 8  -5258769.30346  22662698.724    22662707.3774
  21767020.168    -9588773.265 9  -7450039.75947  21767022.697    21767028.0324
  20313561.297   -22266399.943 9 -17329091.31948  20313563.851    20313568.4094
 00  6 30  3 25  0.0000000  0  5 05 06 24 25 30
  22402426.861   -10983325.011 8  -8542682.46846  22402428.129    22402436.4404
  20585663.566   -23090037.375 9 -17970210.90248  20585667.186    20585672.2314
  22672787.505    -6711957.869 8  -5217457.70246  22672787.616    22672796.0924
  21758906.190    -9631418.958 9  -7483270.16947  21758907.745    21758913.3624
  20320008.827   -22232525.976 9 -17302696.04948  20320010.158    20320014.3494
 00  6 30  3 25 30.0000000  0  5 05 06 24 25 30
  22418859.402   -10896977.612 8  -8475398.88546  22418860.587    22418866.9314
  20579575.859   -23122033.573 9 -17995143.01248  20579578.460    20579583.5894
  22682966.831    -6658439.417 8  -5175755.05646  22682972.374    22682979.4444
  21750884.154    -9673550.349 8  -7516099.80947  21750889.141    21750895.2924
  20326534.425   -22198221.470 9 -17275965.29848  20326537.650    20326542.1534
 00  6 30  3 26  0.0000000  0  5 05 06 24 25 30
  22435325.515   -10810401.846 8  -8407937.34246  22435334.110    22435341.4344
  20573567.982   -23153598.929 9 -18019739.40048  20573571.270    20573576.7454
  22693248.732    -6604420.952 8  -5133662.80646  22693251.927    22693258.7724
  21742971.127    -9715165.470 9  -7548527.17547  21742971.218    21742975.8524
  20333145.480   -22163486.400 9 -17248899.03048  20333147.456    20333152.3294
 00  6 30  3 26 30.0000000  0  5 05 06 24 25 30
  22451852.135   -10723598.880 8  -8340298.79146  22451852.099    22451859.8204
  20567643.029   -23184733.361 9 -18044000.00948  20567646.715    20567651.9964
  22703622.220    -6549904.549 8  -5091182.58146  22703625.725    22703633.7404
  21735148.297    -9756262.569 9  -7580550.88047  21735150.809    21735156.1834
  20339837.806   -22128321.560 9 -17221497.88548  20339839.808    20339843.9864
 00  6 30  3 27  0.0000000  0  6 05 06 24 17 25 30
  22468409.768   -10636570.022 8  -8272484.20546  22468413.866    22468420.4964
  20561801.612   -23215436.714 9 -18067924.70548  20561804.071    20561809.0534
  22714091.874    -6494891.991 8  -5048315.70746  22714093.110    22714102.0974
  24863977.774      -95255.67117
  21727429.916    -9796840.355 9  -7612169.91047  21727429.621    21727434.9104
  20346610.155   -22092727.123 9 -17193761.99248  20346613.000    20346617.2214
 00  6 30  3 27 30.0000000  0  6 05 06 24 17 25 30
  22485017.844   -10549316.148 8  -8204494.28446  22485017.602    22485025.2184
  20556043.118   -23245708.655 9 -18091513.24048  20556043.714    20556049.0354
  22724654.057    -6439385.040 8  -5005063.62246  22724656.882    22724664.6784
  24842379.257     -208726.962 7   -148243.96054  24842380.935    24842387.1714
  21719804.442    -9836897.361 9  -7643383.15747  21719806.619    21719811.7724
  20353466.335   -22056703.625 9 -17165691.76048  20353468.043    20353472.5064
 00  6 30  3 28  0.0000000  0  6 05 06 24 17 25 30
  22501658.228   -10461838.212 8  -8136329.74546  22501664.030    22501671.8724
  20550362.316   -23275549.041 9 -18114765.50648  20550365.665    20550370.5724
  22735309.037    -6383385.815 8  -4961427.94546  22735313.214    22735321.5394
  24820792.743     -322176.378 7   -236646.07144  24820791.465    24820797.9134
  21712279.157    -9876432.212 9  -7674189.52647  21712282.413    21712288.4334
  20360402.636   -22020251.221 9 -17137287.31248  20360404.952    20360408.8264
 00  6 30  3 28 30.0000000  0  6 05 06 24 17 25 30
  22518350.778   -10374137.368 8  -8067991.54346  22518353.462    22518360.3924
  20544765.548   -23304957.705 9 -18137681.35648  20544769.413    20544774.1014
  22746061.148    -6326896.331 8  -4917410.24446  22746062.903    22746071.1624
  24799201.767     -435601.008 7   -325028.87844  24799207.492    24799217.2144
  21704858.114    -9915443.080 9  -7704587.60047  21704859.438    21704864.6704
  20367421.542   -21983370.479 9 -17108549.10348  20367423.181    20367427.0404
 00  6 30  3 29  0.0000000  0  6 05 06 24 17 25 30
  22535083.350   -10286214.761 8  -7999480.49446  22535084.833    22535091.7354
  20539252.442   -23333934.606 9 -18160260.77548  20539255.236    20539259.8554
  22756900.782    -6269918.638 8  -4873012.10446  22756904.402    22756914.4184
  24777624.566     -548998.527 7   -413390.57844  24777628.495    24777638.1454
  21697531.377    -9953928.324 9  -7734576.11147  21697536.279    21697541.2174
  20374518.762   -21946062.173 9 -17079477.73248  20374521.733    20374527.0224
 00  6 30  3 29 30.0000000  0  6 05 06 24 17 25 30
  22551853.591   -10198071.398 8  -7930797.49046  22551858.091    22551864.9224
  20533819.675   -23362479.460 9 -18182503.52748  20533823.257    20533827.9514
  22767834.353    -6212454.338 8  -4828234.82146  22767840.574    22767847.8604
  24756044.120     -662366.365 7   -501729.15844  24756056.066    24756066.9844
  21690311.424    -9991886.572 9  -7764153.95647  21690313.108    21690317.9804
  20381701.149   -21908326.365 9 -17050073.23348  20381703.894    20381707.5214
 00  6 30  3 30  0.0000000  0  6 05 06 24 17 25 30
  22568672.544   -10109708.217 8  -7861943.14946  22568672.688    22568679.8234
  20528471.515   -23390592.106 9 -18204409.50648  20528473.719    20528478.4804
  22778866.538    -6154505.621 8  -4783080.05846  22778867.967    22778875.9974
  24734481.304     -775702.075 7   -590042.70444  24734489.841    24734496.4684
  21683190.298   -10029316.156 9  -7793319.83947  21683190.829    21683195.3004
  20388962.550   -21870163.582 9 -17020336.03448  20388965.140    20388970.2624
 00  6 30  3 30 30.0000000  0  6 05 06 24 17 25 30
  22585523.703   -10021126.383 8  -7792918.47446  22585529.427    22585536.7974
  20523203.673   -23418272.637 9 -18225978.76248  20523206.146    20523211.1264
  22789983.174    -6096074.530 8  -4737549.42046  22789987.149    22789995.9634
  24712925.466     -889003.186 7   -678329.24344  24712927.920    24712936.5814
  21676164.039   -10066215.776 9  -7822072.79747  21676168.155    21676173.7564
  20396306.294   -21831574.501 9 -16990266.65048  20396308.086    20396313.5014
 00  6 30  3 31  0.0000000  0  6 05 06 24 17 25 30
  22602428.372    -9932326.924 8  -7723724.21146  22602427.540    22602435.5354
  20518019.353   -23445520.696 9 -18247211.03048  20518021.148    20518025.7674
  22801193.527    -6037163.008 8  -4691644.41446  22801197.243    22801205.7764
  24691369.104    -1002267.092 7   -766586.85345  24691374.820    24691381.6784
  21669245.892   -10102583.984 9  -7850411.64347  21669247.525    21669253.0974
  20403730.100   -21792559.350 9 -16959865.27248  20403733.008    20403737.5884
 00  6 30  3 31 30.0000000  0  6 05 06 24 17 25 30
  22619362.296    -9843311.002 8  -7654361.25446  22619366.240    22619373.7644
  20512915.540   -23472336.200 9 -18268106.24448  20512918.362    20512923.0504
  22812492.964    -5977773.077 8  -4645366.63946  22812499.008    22812506.6514
  24669832.969    -1115491.025 7   -854813.27245  24669828.704    24669836.0944
  21662426.588   -10138419.380 9  -7878335.33647  21662428.494    21662434.2084
  20411236.508   -21753118.578 9 -16929132.24548  20411238.252    20411243.1694
 00  6 30  3 32  0.0000000  0  6 05 06 24 17 25 30
  22636345.329    -9754079.416 8  -7584830.25946  22636347.425    22636354.1164
  20507895.610   -23498719.126 9 -18288664.38748  20507897.581    20507902.4104
  22823886.708    -5917906.843 8  -4598717.73246  22823891.003    22823899.8904
  24648281.758    -1228672.561 7   -943006.66945  24648291.214    24648297.5214
  21655707.554   -10173720.154 9  -7905842.42547  21655710.315    21655716.1744
  20418824.239   -21713252.678 9 -16898067.94648  20418824.757    20418829.4164
 00  6 30  3 32 30.0000000  0  6 05 06 24 17 25 30
  22653367.564    -9664633.368 8  -7515132.12946  22653368.633    22653375.1424
  20502956.572   -23524669.488 9 -18308885.45548  20502959.426    20502964.3784
  22835365.938    -5857566.222 8  -4551699.13346  22835374.365    22835382.0604
  24626759.017    -1341809.092 7  -1031165.06645  24626761.543    24626771.0084
  21649092.388   -10208484.911 9  -7932931.84347  21649095.058    21649099.9954
  20426491.718   -21672962.177 9 -16866672.78048  20426492.150    20426496.7154
 00  6 30  3 33  0.0000000  0  6 05 06 24 17 25 30
  22670428.683    -9574973.965 8  -7445267.75546  22670430.411    22670437.9764
  20498103.316   -23550187.066 9 -18328769.29648  20498104.062    20498108.8624
  22846948.125    -5796753.519 8  -4504312.69746  22846946.524    22846954.5754
  24605240.357    -1454898.190 7  -1119286.43445  24605241.871    24605251.4184
  21642578.284   -10242712.734 9  -7959602.87847  21642582.200    21642587.5824
  20434239.249   -21632247.714 9 -16834947.26348  20434239.917    20434243.8474
 00  6 30  3 33 30.0000000  0  6 05 06 24 17 25 30
  22687527.954    -9485102.370 8  -7375238.06046  22687532.028    22687538.5894
  20493326.834   -23575271.745 9 -18348315.80848  20493330.239    20493335.3554
  22858602.930    -5735470.489 8  -4456559.77346  22858608.433    22858616.6774
  24583731.831    -1567937.184 8  -1207368.75945  24583731.750    24583740.0104
  21636168.957   -10276401.962 9  -7985854.19847  21636171.525    21636177.1694
  20442064.816   -21591109.777 9 -16802891.75548  20442067.700    20442072.5954
 00  6 30  3 34  0.0000000  0  6 05 06 24 17 25 30
  22704671.763    -9395019.653 8  -7305043.86546  22704674.345    22704681.7704
  20488636.164   -23599923.496 9 -18367524.98848  20488638.980    20488644.3714
  22870356.602    -5673719.491 8  -4408442.20446  22870359.612    22870367.3414
  24562226.421    -1680923.440 8  -1295410.05945  24562230.216    24562238.0884
  21629863.281   -10309551.145 9  -8011684.72947  21629863.462    21629868.6984
  20449972.991   -21549548.782 9 -16770506.60748  20449976.252    20449981.4124
 00  6 30  3 34 30.0000000  0  6 05 06 24 17 25 30
  22721854.094    -9304726.856 8  -7234685.96346  22721856.452    22721863.8454
  20484026.757   -23624142.122 9 -18386396.66548  20484030.104    20484035.9094
  22882196.953    -5611502.481 8  -4359961.51246  22882198.543    22882207.4964
  24540737.466    -1793854.532 8  -1383408.31645  24540739.950    24540749.1304
  21623655.612   -10342159.005 9  -8037093.43947  21623658.036    21623663.3654
  20457962.781   -21507565.119 9 -16737792.10248  20457966.098    20457970.5864
 00  6 30  3 35  0.0000000  0  6 05 06 24 17 25 30
  22739077.338    -9214225.050 8  -7164165.17346  22739078.299    22739085.5154
  20479502.376   -23647927.726 9 -18404930.91648  20479504.881    20479509.6714
  22894120.983    -5548821.641 8  -4311119.39546  22894126.254    22894134.1354
  24519261.690    -1906727.857 8  -1471361.56645  24519261.183    24519268.7564
  21617553.320   -10374224.072 9  -8062079.21147  21617556.359    21617561.6944
  20466031.402   -21465159.469 9 -16704748.77948  20466035.105    20466040.1114
 00  6 30  3 35 30.0000000  0  6 05 06 24 17 25 30
  22756336.325    -9123515.218 8  -7093482.30346  22756339.768    22756347.5804
  20475058.522   -23671280.262 9 -18423127.72148  20475061.203    20475065.4914
  22906140.916    -5485679.038 8  -4261917.44546  22906142.587    22906150.4394
  24497790.919    -2019540.959 8  -1559267.85945  24497794.035    24497801.8544
  21611555.779   -10405745.249 9  -8086641.17547  21611558.117    21611563.5074
  20474181.791   -21422332.622 9 -16671377.25548  20474185.062    20474189.9294
 00  6 30  3 36  0.0000000  0  6 05 06 24 17 25 30
  22773633.942    -9032598.393 8  -7022638.16346  22773641.404    22773648.9254
  20470697.389   -23694199.771 9 -18440987.08948  20470699.718    20470704.4274
  22918242.102    -5422076.762 8  -4212357.33846  22918245.676    22918253.8444
  24476336.455    -2132291.317 8  -1647125.30445  24476339.150    24476346.7414
  21605661.221   -10436721.438 9  -8110778.46147  21605663.915    21605668.3224
  20482412.266   -21379084.880 9 -16637677.74948  20482415.085    20482419.5814
 00  6 30  3 36 30.0000000  0  6 05 06 24 17 25 30
  22790975.911    -8941475.966 8  -6951633.80246  22790981.688    22790988.9104
  20466417.531   -23716686.359 9 -18458509.12348  20466420.403    20466425.2804
  22930427.973    -5358017.081 8  -4162440.78046  22930435.615    22930444.6034
  24454890.490    -2244976.175 8  -1734931.68145  24454895.431    24454902.5174
  21599870.147   -10467151.052 9  -8134489.85347  21599873.167    21599878.0814
  20490722.032   -21335416.874 9 -16603650.76648  20490724.816    20490729.4894
 00  6 30  3 37  0.0000000  0  6 05 06 24 17 25 30
  22808359.220    -8850148.886 8  -6880469.96146  22808359.910    22808367.6804
  20462220.825   -23738740.100 9 -18475693.87448  20462223.992    20462228.7764
  22942706.540    -5293501.972 8  -4112169.36246  22942713.339    22942720.7024
  24433466.441    -2357593.033 8  -1822685.07545  24433464.847    24433472.1674
  21594184.810   -10497032.944 9  -8157774.45347  21594186.225    21594192.1524
  20499113.960   -21291328.990 9 -16569296.61748  20499114.648    20499119.2724
 00  6 30  3 37 30.0000000  0  6 05 06 24 17 25 30
  22825775.449    -8758618.128 8  -6809147.43846  22825778.029    22825786.1344
  20458108.218   -23760360.975 9 -18492541.32848  20458109.676    20458114.4794
  22955076.102    -5228533.778 8  -4061544.87946  22955076.104    22955084.5454
  24412045.610    -2470139.191 8  -1910383.36245  24412048.776    24412055.4784
  21588602.639   -10526365.385 9  -8180630.89647  21588604.726    21588610.2444
  20507579.860   -21246821.803 9 -16534615.73848  20507583.644    20507588.1604
 00  6 30  3 38  0.0000000  0  6 05 06 24 17 25 30
  22843235.080    -8666884.723 8  -6737666.99646  22843235.065    22843242.8534
  20454075.146   -23781548.863 9 -18509051.38348  20454077.360    20454082.3254
  22967518.766    -5163114.555 8  -4010568.97146  22967524.050    22967532.8504
  24390645.697    -2582612.208 7  -1998024.65045  24390645.820    24390652.0694
  21583124.116   -10555147.645 9  -8203058.61847  21583127.059    21583133.3224
  20516129.730   -21201896.047 9 -16499608.69348  20516132.750    20516138.0484
 00  6 30  3 38 30.0000000  0  6 05 06 24 17 25 30
  22860723.926    -8574949.752 8  -6666029.50846  22860729.186    22860737.4914
  20450125.812   -23802303.683 9 -18525223.99048  20450127.578    20450132.8224
  22980056.322    -5097246.521 8  -3959243.30646  22980059.229    22980067.2254
  24369250.234    -2695009.589 7  -2085607.00745  24369255.946    24369263.6224
  21577752.879   -10583378.310 9  -8225056.54547  21577755.520    21577761.2354
  20524758.936   -21156552.163 9 -16464275.82948  20524761.838    20524766.8414
 00  6 30  3 39  0.0000000  0  6 05 06 24 17 25 30
  22878260.304    -8482814.554 8  -6594235.98746  22878262.467    22878269.6554
  20446258.844   -23822625.646 9 -18541059.30148  20446260.205    20446266.0204
  22992673.667    -5030932.027 8  -3907569.76346  22992679.181    22992687.0654
  24347876.286    -2807328.494 7  -2173128.22845  24347882.954    24347889.7424
  21572486.394   -10611056.297 9  -8246623.80447  21572488.352    21572494.2944
  20533467.791   -21110790.966 9 -16428617.78348  20533469.382    20533474.4444
 00  6 30  3 39 30.0000000  0  6 05 06 24 17 25 30
  22895826.679    -8390480.247 8  -6522287.27446  22895832.851    22895839.9064
  20442472.972   -23842514.684 9 -18556557.26748  20442475.645    20442481.0544
  23005380.104    -4964173.061 8  -3855549.87946  23005382.824    23005390.8134
  24326511.698    -2919566.581 7  -2260586.49245  24326523.387    24326531.4694
  21567323.255   -10638180.595 9  -8267759.61547  21567326.749    21567332.4454
  20542251.171   -21064613.030 9 -16392635.01948  20542256.314    20542262.1244
 00  6 30  3 40  0.0000000  0  6 05 06 24 17 25 30
  22913438.830    -8297947.713 8  -6450184.15846  22913441.141    22913448.7824
  20438770.982   -23861970.940 9 -18571718.00348  20438773.266    20438778.5904
  23018168.217    -4896971.830 8  -3803185.38046  23018170.541    23018179.3594
  24305181.224    -3031721.192 8  -2347979.67645  24305182.193    24305190.4184
  21562269.592   -10664749.909 9  -8288462.98047  21562271.125    21562276.2484
  20551121.366   -21018018.940 9 -16356327.96948  20551123.380    20551128.5364
 00  6 30  3 40 30.0000000  0  6 05 06 24 17 25 30
  22931080.073    -8205217.897 8  -6377927.29446  22931087.024    22931095.0004
  20435151.368   -23880994.497 9 -18586541.57548  20435153.151    20435158.4394
  23031034.139    -4829330.730 8  -3750478.13046  23031042.053    23031050.2094
  24283853.372    -3143789.711 8  -2435305.76645  24283856.718    24283864.3634
  21557318.253   -10690763.277 9  -8308733.14547  21557320.398    21557326.4304
  20560065.972   -20971009.103 9 -16319696.96448  20560069.000    20560074.2644
 00  6 30  3 41  0.0000000  0  6 05 06 24 17 25 30
  22948771.141    -8112292.153 8  -6305517.78346  22948770.579    22948778.1984
  20431613.103   -23899585.299 9 -18601027.93148  20431615.619    20431621.0284
  23043996.022    -4761251.871 8  -3697429.73846  23043996.246    23044005.7334
  24262546.955    -3255769.521 8  -2522562.75845  24262547.513    24262554.9094
  21552474.562   -10716219.450 9  -8328569.11947  21552476.463    21552481.9954
  20569088.962   -20923584.383 9 -16282742.67048  20569093.715    20569099.4524
 00  6 30  3 41 30.0000000  0  6 05 06 24 17 25 30
  22966481.822    -8019171.364 8  -6232956.28146  22966490.290    22966498.7434
  20428157.414   -23917743.650 9 -18615177.31748  20428160.311    20428165.7254
  23057028.061    -4692737.458 8  -3644041.98846  23057034.253    23057043.7154
  24241250.307    -3367658.072 8  -2609748.65545  24241255.947    24241263.9134
  21547736.516   -10741116.923 9  -8347969.75447  21547738.913    21547743.3134
  20578196.180   -20875745.341 9 -16245465.53648  20578197.495    20578202.5554
 00  6 30  3 42  0.0000000  0  6 05 06 24 17 25 30
  22984245.121    -7925856.978 8  -6160243.91446  22984248.722    22984256.2604
  20424784.767   -23935469.682 9 -18628989.82848  20424787.015    20424792.2304
  23070156.750    -4623789.757 8  -3590316.58946  23070155.478    23070164.0134
  24219983.740    -3479452.725 8  -2696861.36245  24219983.046    24219990.9824
  21543104.250   -10765454.900 9  -8366934.42647  21543107.627    21543112.6204
  20587377.248   -20827492.578 9 -16207866.02048  20587379.918    20587384.8764
 00  6 30  3 42 30.0000000  0  6 05 06 24 17 25 30
  23002036.727    -7832350.026 8  -6087381.48946  23002042.646    23002050.6214
  20421494.992   -23952763.273 9 -18642465.37948  20421496.554    20421501.4614
  23083352.428    -4554411.162 8  -3536255.45046  23083357.501    23083365.9774
  24198724.344    -3591150.862 8  -2783898.81645  24198726.468    24198734.7054
  21538579.603   -10789232.773 9  -8385462.64047  21538582.416    21538587.6754
  20596637.667   -20778826.706 9 -16169944.59948  20596640.245    20596645.7744
 00  6 30  3 43  0.0000000  0  6 05 06 24 17 25 30
  23019867.505    -7738651.468 8  -6014369.77046  23019872.138    23019881.0204
  20418286.130   -23969624.578 9 -18655604.07248  20418287.890    20418292.8804
  23096640.814    -4484603.917 8  -3481860.27846  23096642.364    23096650.4144
  24177487.332    -3702749.856 8  -2870859.07245  24177489.949    24177497.5874
  21534163.016   -10812449.341 9  -8403553.47747  21534165.041    21534169.7644
  20605976.035   -20729748.470 9 -16131701.85147  20605979.805    20605984.3264
 00  6 30  3 43 30.0000000  0  6 05 06 24 17 25 30
  23037736.385    -7644762.476 8  -5941209.65546  23037739.585    23037746.9664
  20415158.641   -23986053.714 9 -18668406.01248  20415161.470    20415166.6114
  23110007.940    -4414370.249 8  -3427132.82046  23110006.544    23110016.0674
  24156268.439    -3814247.288 8  -2957740.15545  24156273.020    24156280.0594
  21529852.706   -10835103.267 9  -8421205.89247  21529853.718    21529859.0334
  20615396.275   -20680258.661 9 -16093138.39848  20615397.880    20615402.4674
 00  6 30  3 44  0.0000000  0  6 05 06 24 17 25 30
  23055639.477    -7550684.111 8  -5867901.99446  23055640.825    23055650.0514
  20412113.911   -24002050.786 9 -18680871.28448  20412116.901    20412122.1844
  23123449.287    -4343712.408 8  -3372074.87846  23123453.192    23123461.7934
  24135075.470    -3925640.433 8  -3044540.01945  24135075.845    24135082.9374
  21525648.299   -10857193.751 9  -8438419.26447  21525650.235    21525654.5784
  20624891.920   -20630357.838 9 -16054254.68648  20624893.475    20624898.3364
 00  6 30  3 44 30.0000000  0  6 05 06 24 17 25 30
  23073579.025    -7456417.478 8  -5794447.65046  23073580.687    23073588.2494
  20409152.650   -24017615.907 9 -18692999.96448  20409154.846    20409160.3874
  23136974.940    -4272632.670 8  -3316688.18046  23136978.596    23136987.4084
  24113897.039    -4036926.860 8  -3131256.70945  24113898.775    24113905.6454
  21521551.720   -10878719.891 9  -8455192.90247  21521554.215    21521558.8724
  20634464.628   -20580046.749 9 -16015051.27948  20634467.490    20634472.1684
 00  6 30  3 45  0.0000000  0  6 05 06 24 17 25 30
  23091550.039    -7361963.734 8  -5720847.48846  23091554.549    23091562.5474
  20406271.728   -24032749.372 9 -18704792.29448  20406275.228    20406280.5264
  23150585.402    -4201133.527 8  -3260974.66046  23150585.233    23150592.5514
  24092736.828    -4148103.746 8  -3217888.03845  24092742.439    24092748.8564
  21517563.892   -10899680.068 9  -8471525.50347  21517565.263    21517570.3204
  20644115.606   -20529325.888 9 -15975528.56947  20644119.082    20644124.2244
 00  6 30  3 45 30.0000000  0  6 05 06 24 17 25 30
  23109564.557    -7267323.878 8  -5647102.28846  23109563.490    23109571.9064
  20403474.527   -24047451.315 9 -18716248.37048  20403477.365    20403483.2674
  23164265.875    -4129217.161 8  -3204936.00246  23164270.174    23164278.2174
  24071601.598    -4259168.597 8  -3304432.08945  24071607.088    24071614.3854
  21513680.362   -10920073.892 9  -8487416.81547  21513684.602    21513690.0404
  20653848.935   -20478196.223 9 -15935687.31447  20653848.583    20653853.8904
 00  6 30  3 46  0.0000000  0  6 05 06 24 17 25 30
  23127602.228    -7172499.185 8  -5573213.07846  23127608.369    23127616.5684
  20400758.637   -24061721.964 9 -18727368.37448  20400761.731    20400767.4264
  23178033.821    -4056886.055 8  -3148574.20446  23178034.113    23178042.7654
  24050496.669    -4370118.838 8  -3390886.80346  24050494.333    24050502.2594
  21509909.321   -10939900.694 9  -8502866.26947  21509911.964    21509915.9704
  20663653.971   -20426658.093 9 -15895527.79047  20663656.062    20663660.9284
 00  6 30  3 46 30.0000000  0  6 05 06 24 17 25 30
  23145686.860    -7077490.690 8  -5499180.62246  23145688.530    23145695.4654
  20398124.396   -24075561.416 9 -18738152.37948  20398128.280    20398133.7604
  23191873.229    -3984142.288 8  -3091890.85646  23191876.168    23191885.1784
  24029399.496    -4480951.950 8  -3477250.27145  24029402.751    24029409.8844
  21506242.875   -10959159.104 9  -8517872.83447  21506247.078    21506251.7134
  20673537.790   -20374712.528 9 -15855050.77047  20673540.554    20673546.5354
 00  6 30  3 47  0.0000000  0  6 05 06 24 17 25 30
  23163797.994    -6982299.738 8  -5425005.99946  23163802.008    23163810.4354
  20395576.185   -24088969.865 9 -18748600.55148  20395577.275    20395582.6134
  23205797.809    -3910988.225 8  -3034887.79246  23205797.846    23205805.9424
  24008333.795    -4591665.321 8  -3563520.45245  24008335.386    24008342.3584
  21502689.596   -10977848.764 9  -8532436.22347  21502690.770    21502695.3464
  20683501.178   -20322360.083 9 -15814256.70847  20683503.629    20683508.5224
 00  6 30  3 47 30.0000000  0  6 05 06 24 17 25 30
  23181947.853    -6886927.264 8  -5350689.92846  23181951.938    23181960.2964
  20393105.633   -24101947.462 9 -18758712.98048  20393107.743    20393113.2874
  23219790.698    -3837426.314 8  -2977566.92246  23219796.312    23219805.6544
  23987289.774    -4702256.184 8  -3649695.13345  23987289.900    23987297.3724
  21499237.400   -10995967.994 9  -8546555.11447  21499242.289    21499247.5274
  20693542.769   -20269601.733 9 -15773146.34847  20693543.733    20693548.1664
 00  6 30  3 48  0.0000000  0  6 05 06 24 17 25 30
  23200133.284    -6791374.311 8  -5276233.21546  23200134.573    23200143.1924
  20390717.559   -24114494.380 9 -18768489.81748  20390720.045    20390725.4874
  23233870.103    -3763458.769 8  -2919929.97946  23233872.078    23233880.9824
  23966265.534    -4812721.887 8  -3735772.32345  23966268.760    23966276.2724
  21495900.414   -11013516.623 9  -8560229.37247  21495903.168    21495907.9884
  20703657.419   -20216438.013 9 -15731720.12147  20703659.384    20703664.9164
 00  6 30  3 48 30.0000000  0  6 05 06 24 17 25 30
  23218352.006    -6695642.217 8  -5201636.97445  23218351.277    23218359.3654
  20388412.601   -24126610.821 9 -18777931.22548  20388414.603    20388419.6744
  23248025.495    -3689088.041 8  -2861978.88546  23248024.849    23248033.4234
  23945266.944    -4923059.748 8  -3821749.85445  23945272.771    23945279.9194
  21492670.257   -11030493.942 9  -8573458.46847  21492672.184    21492677.6184
  20713854.891   -20162869.760 9 -15689978.67647  20713854.288    20713858.6764
 00  6 30  3 49  0.0000000  0  6 05 06 24 17 25 30
  23236601.616    -6599731.972 8  -5126901.87646  23236603.287    23236610.4834
  20386187.781   -24138297.027 9 -18787037.38248  20386190.386    20386195.9284
  23262246.124    -3614316.497 8  -2803715.44246  23262253.148    23262261.2134
  23924299.008    -5033267.146 8  -3907625.76245  23924300.609    23924308.9124
  21489547.676   -11046899.284 9  -8586241.87347  21489551.012    21489555.2104
  20724123.597   -20108897.799 9 -15647922.66047  20724124.988    20724129.0074
 00  6 30  3 49 30.0000000  0  6 05 06 24 17 25 30
  23254884.588    -6503644.815 8  -5052028.94945  23254887.810    23254896.9124
  20384047.224   -24149553.204 9 -18795808.44848  20384048.774    20384053.9404
  23276557.799    -3539146.500 8  -2745141.49946  23276557.376    23276566.5614
  23903345.636    -5143341.605 8  -3993398.03146  23903354.103    23903362.3694
  21486535.883   -11062731.392 9  -8598578.59647  21486538.551    21486543.6094
  20734468.671   -20054522.799 9 -15605552.56747  20734472.143    20734476.4224
 00  6 30  3 50  0.0000000  0  6 05 06 24 17 25 30
  23273204.050    -6407381.851 8  -4977019.01245  23273205.965    23273215.1824
  20381985.126   -24160379.664 9 -18804244.67648  20381988.468    20381993.6064
  23290931.659    -3463580.459 8  -2686258.98446  23290936.969    23290946.6594
  23882435.209    -5253280.437 8  -4079064.65546  23882433.866    23882441.3224
  21483631.489   -11077989.555 9  -8610468.10047  21483634.467    21483640.0534
  20744896.167   -19999745.413 9 -15562868.93447  20744896.080    20744900.6974
 00  6 30  3 50 30.0000000  0  6 05 06 24 17 25 30
  23291547.242    -6310944.101 8  -4901872.86746  23291558.044    23291567.9404
  20380007.004   -24170776.700 9 -18812346.27948  20380010.139    20380015.5374
  23305391.849    -3387620.762 8  -2627069.71646  23305391.233    23305401.2574
  23861536.136    -5363081.037 8  -4164623.54746  23861539.908    23861547.7864
  21480838.944   -11092672.853 9  -8621909.64147  21480840.665    21480845.3824
  20755394.265   -19944566.575 9 -15519872.48947  20755395.697    20755400.7594
 00  6 30  3 51  0.0000000  0  6 05 06 24 17 25 30
  23309945.414    -6214332.900 8  -4826591.57345  23309942.866    23309951.4304
  20378110.979   -24180744.725 9 -18820113.59748  20378113.349    20378118.4864
  23319920.013    -3311269.657 8  -2567575.45646  23319921.841    23319929.4754
  23840664.436    -5472740.914 8  -4250072.79746  23840671.653    23840678.7724
  21478153.953   -11106780.787 9  -8632902.84447  21478155.771    21478161.0214
  20765969.821   -19888986.929 9 -15476563.72047  20765972.310    20765977.0964
 00  6 30  3 51 30.0000000  0  6 05 06 24 17 25 30
  23328354.230    -6117549.326 8  -4751175.99545  23328360.191    23328368.2744
  20376295.665   -24190283.659 9 -18827546.56248  20376298.006    20376303.3564
  23334518.346    -3234529.783 8  -2507778.24946  23334524.894    23334533.0044
  23819832.870    -5582257.250 8  -4335410.17446  23819831.524    23819839.5714
  21475579.094   -11120312.577 9  -8643447.11847  21475580.945    21475586.1864
  20776622.072   -19833007.468 9 -15432943.42247  20776624.744    20776629.5764
 00  6 30  3 52  0.0000000  0  6 05 06 24 17 25 30
  23346809.486    -6020594.365 8  -4675626.78145  23346810.347    23346818.2854
  20374562.460   -24199394.016 9 -18834645.56448  20374564.295    20374569.8514
  23349196.041    -3157403.382 8  -2447679.85846  23349201.163    23349209.4874
  23799014.647    -5691627.480 8  -4420633.71946  23799019.309    23799026.9464
  21473114.262   -11133267.912 9  -8653542.18747  21473115.961    21473120.7914
  20787351.975   -19776628.998 9 -15389012.18647  20787353.259    20787358.7764
 00  6 30  3 52 30.0000000  0  6 05 06 24 17 25 30
  23365296.167    -5923469.158 8  -4599944.99345  23365293.018    23365301.7294
  20372909.052   -24208076.064 9 -18841410.81548  20372912.267    20372917.7294
  23363942.495    -3079893.010 8  -2387282.25445  23363950.162    23363959.1584
  23778228.207    -5800848.959 8  -4505741.33546  23778234.531    23778242.5624
  21470758.807   -11145645.871 9  -8663187.37847  21470759.848    21470765.3384
  20798155.612   -19719852.012 9 -15344770.43747  20798157.220    20798162.6164
 00  6 30  3 53  0.0000000  0  6 05 06 24 17 25 30
  23383799.852    -5826174.901 8  -4524131.43345  23383808.285    23383816.6414
  20371339.869   -24216330.113 9 -18847842.56548  20371341.754    20371346.9044
  23378770.858    -3002000.803 8  -2326587.15545  23378772.686    23378781.7074
  23757473.993    -5909919.176 8  -4590731.07546  23757479.478    23757486.3654
  21468512.894   -11157445.728 9  -8672382.09247  21468514.517    21468520.1514
  20809036.058   -19662677.556 9 -15300218.96747  20809037.502    20809042.6754
 00  6 30  3 53 30.0000000  0  6 05 06 24 17 25 30
  23402351.990    -5728712.488 8  -4448186.94145  23402353.941    23402362.3124
  20369850.160   -24224156.310 9 -18853940.92048  20369852.366    20369858.0024
  23393662.529    -2923729.456 8  -2265596.58946  23393667.856    23393676.5944
  23736752.613    -6018835.378 8  -4675600.81146  23736753.659    23736760.5694
  21466377.076   -11168666.990 9  -8681125.93247  21466378.622    21466384.7674
  20819992.306   -19605106.341 9 -15255358.33647  20819992.929    20819998.4594
 00  6 30  3 54  0.0000000  0  6 05 06 24 17 25 30
  23420918.044    -5631083.355 8  -4372112.40045  23420931.825    23420940.7184
  20368441.576   -24231554.842 9 -18859706.03448  20368444.350    20368449.9454
  23408634.146    -2845081.336 8  -2204312.43046  23408633.785    23408643.1834
  23716055.011    -6127595.046 8  -4760348.60046  23716057.735    23716064.8304
  21464353.587   -11179309.111 9  -8689418.52147  21464354.223    21464359.4234
  20831022.446   -19547139.330 9 -15210189.29247  20831024.376    20831029.0954
 00  6 30  3 54 30.0000000  0  6 05 06 24 17 25 30
  23439544.400    -5533288.866 8  -4295909.07746  23439542.084    23439550.6674
  20367116.658   -24238526.185 9 -18865138.27548  20367118.095    20367123.1514
  23423668.155    -2766058.718 8  -2142736.46446  23423672.038    23423682.0244
  23695389.912    -6236195.622 8  -4844972.42346  23695390.558    23695398.6004
  21462434.839   -11189371.679 9  -8697259.49947  21462438.866    21462445.3544
  20842125.785   -19488777.023 9 -15164712.22447  20842129.508    20842134.9954
 00  6 30  3 55  0.0000000  0  6 05 06 24 17 25 30
  23458176.949    -5435330.007 8  -4219577.72446  23458183.274    23458191.5164
  20365870.092   -24245070.731 9 -18870237.95348  20365872.593    20365877.8774
  23438775.261    -2686664.100 8  -2080870.66346  23438781.031    23438788.4864
  23674756.940    -6344634.476 8  -4929470.17946  23674756.025    23674763.6144
  21460633.511   -11198853.988 9  -8704648.32947  21460635.617    21460640.6234
  20853309.149   -19430020.573 9 -15118928.03247  20853311.035    20853316.6044
 00  6 30  3 55 30.0000000  0  6 05 06 24 17 25 30
  23476854.676    -5337207.849 8  -4143119.07346  23476856.182    23476863.3994
  20364706.908   -24251188.736 9 -18875005.25548  20364708.245    20364713.6594
  23453959.941    -2606899.979 8  -2018716.90745  23453958.173    23453967.6984
  23654146.770    -6452908.798 8  -5013839.74146  23654151.563    23654160.4424
  21458938.177   -11207755.433 9  -8711584.55547  21458940.753    21458946.5804
  20864564.667   -19370870.815 9 -15072837.36247  20864566.972    20864572.4594
 00  6 30  3 56  0.0000000  0  6 05 06 24 17 25 30
  23495563.520    -5238923.425 8  -4066533.99946  23495558.807    23495567.7934
  20363620.968   -24256880.609 9 -18879440.50148  20363625.088    20363630.3744
  23469194.244    -2526768.908 8  -1956277.20545  23469207.332    23469216.1554
  23633579.085    -6561016.031 8  -5098079.11146  23633579.189    23633586.4584
  21457355.609   -11216075.606 9  -8718067.83647  21457358.689    21457362.7434
  20875894.622   -19311328.433 9 -15026440.75947  20875897.128    20875902.5544
 00  6 30  3 56 30.0000000  0  6 05 06 24 17 25 30
  23514287.259    -5140478.063 8  -3989823.52846  23514291.799    23514301.3314
  20362622.496   -24262146.611 9 -18883543.90248  20362623.715    20362628.3404
  23484529.319    -2446272.989 8  -1893553.21245  23484525.262    23484534.4894
  23613033.166    -6668953.486 8  -5182186.19146  23613039.764    23613047.4664
  21455882.833   -11223814.200 9  -8724097.93047  21455885.179    21455890.4614
  20887301.511   -19251394.742 9 -14979739.23947  20887302.789    20887307.5894
 00  6 30  3 57  0.0000000  0  6 05 06 24 17 25 30
  23533050.133    -5041873.077 8  -3912988.66945  23533055.778    23533064.7964
  20361699.766   -24266987.229 9 -18887315.83248  20361702.166    20361707.1884
  23499897.339    -2365415.009 8  -1830547.13045  23499910.708    23499921.9924
  23592526.684    -6776718.575 8  -5266158.94646  23592531.816    23592541.2894
  21454520.033   -11230970.477 9  -8729674.27047  21454522.970    21454529.0604
  20898777.900   -19191070.239 9 -14932733.18947  20898781.691    20898787.6544
 00  6 30  3 57 30.0000000  0  6 05 06 24 17 25 30
  23551847.061    -4943109.480 8  -3836030.19946  23551850.360    23551858.9314
  20360859.516   -24271402.676 9 -18890756.46648  20360861.600    20360866.8074
  23515362.711    -2284197.253 8  -1767260.66745  23515366.403    23515376.3394
  23572053.017    -6884308.594 8  -5349995.29446  23572058.457    23572067.1994
  21453270.416   -11237544.196 9  -8734796.68247  21453272.961    21453277.0234
  20910331.550   -19130355.880 9 -14885423.36047  20910334.951    20910341.1234
 00  6 30  3 58  0.0000000  0  6 05 06 24 17 25 30
  23570668.872    -4844188.407 8  -3758949.02645  23570673.216    23570683.9844
  20360099.462   -24275393.387 9 -18893866.13148  20360102.423    20360107.5174
  23530889.131    -2202622.279 8  -1703695.87646  23530890.927    23530900.7444
  23551617.852    -6991721.076 8  -5433693.30346  23551618.901    23551627.0524
  21452129.687   -11243534.831 9  -8739464.73647  21452132.050    21452137.0284
  20921961.646   -19069252.648 9 -14837810.51347  20921964.014    20921968.6944
 00  6 30  3 58 30.0000000  0  6 05 06 24 17 25 30
  23589527.144    -4745111.198 8  -3681746.18046  23589529.250    23589537.6164
  20359420.164   -24278959.628 9 -18896645.04548  20359423.712    20359428.9464
  23546473.322    -2120692.635 8  -1639854.71446  23546480.621    23546491.3994
  23531214.006    -7098953.270 8  -5517250.86146  23531213.690    23531221.0704
  21451099.967   -11248942.084 9  -8743678.20947  21451103.451    21451108.5784
  20933663.622   -19007761.251 9 -14789895.19147  20933664.830    20933669.3284
 00  6 30  3 59  0.0000000  0  6 05 06 24 17 25 30
  23608409.312    -4645878.868 8  -3604422.44845  23608411.723    23608419.8784
  20358824.569   -24282101.880 9 -18899093.57348  20358825.643    20358830.9564
  23562135.956    -2038410.610 8  -1575738.94646  23562139.188    23562148.8274
  23510840.176    -7206002.617 8  -5600665.89146  23510842.133    23510850.3634
  21450183.627   -11253765.229 9  -8747436.52147  21450186.376    21450190.5364
  20945435.285   -18945882.698 9 -14741678.18047  20945439.465    20945444.7994
 00  6 30  3 59 30.0000000  0  6 05 06 24 17 25 30
  23627324.400    -4546492.616 8  -3526978.80045  23627323.781    23627333.6784
  20358304.566   -24284820.549 9 -18901212.04148  20358308.044    20358313.6154
  23577863.763    -1955778.794 8  -1511350.62746  23577863.494    23577873.6424
  23490505.087    -7312866.686 8  -5683936.55546  23490507.230    23490515.0504
  21449375.649   -11258004.458 9  -8750739.83847  21449378.840    21449384.1984
  20957285.912   -18883617.712 9 -14693160.07647  20957287.741    20957293.7064
 00  6 30  4  0  0.0000000  0  6 05 06 24 17 25 30
  23646261.881    -4446953.553 8  -3449416.10746  23646265.798    23646275.8834
  20357867.857   -24287115.929 9 -18903000.67548  20357871.359    20357877.0514
  23593656.597    -1872799.567 8  -1446691.58645  23593654.403    23593663.4554
  23470209.832    -7419542.804 8  -5767060.81046  23470207.943    23470214.3204
  21448681.150   -11261659.538 9  -8753587.97047  21448683.887    21448689.1024
  20969207.238   -18820967.552 9 -14644341.83847  20969209.250    20969215.0084
 00  6 30  4  0 30.0000000  0  6 05 06 24 17 25 30
  23665241.100    -4347262.935 8  -3371735.30145  23665237.222    23665246.4374
  20357513.999   -24288988.462 9 -18904459.81048  20357515.420    20357520.5414
  23609509.421    -1789475.542 8  -1381763.90545  23609508.942    23609520.5484
  23449942.572    -7526028.390 8  -5850036.56446  23449943.778    23449951.2484
  21448096.015   -11264729.917 9  -8755980.49847  21448099.558    21448104.4524
  20981204.620   -18757932.940 9 -14595224.00447  20981205.143    20981210.0134
 00  6 30  4  1  0.0000000  0  6 05 06 24 17 25 30
  23684235.488    -4247421.973 8  -3293937.37845  23684236.086    23684245.1594
  20357236.653   -24290438.626 9 -18905589.83748  20357239.425    20357244.8424
  23625434.076    -1705809.046 8  -1316569.35245  23625432.161    23625440.8874
  23429712.994    -7632320.429 8  -5932861.47946  23429717.079    23429723.6864
  21447625.853   -11267215.328 9  -8757917.20747  21447626.704    21447630.9824
  20993273.417   -18694514.851 9 -14545807.39247  20993273.171    20993278.3704
 00  6 30  4  1 30.0000000  0  6 05 06 24 17 25 30
  23703257.409    -4147431.638 8  -3216023.00145  23703263.655    23703272.6734
  20357041.174   -24291466.801 9 -18906391.03948  20357043.368    20357049.2774
  23641411.598    -1621802.698 8  -1251109.96145  23641416.906    23641426.9594
  23409526.450    -7738416.491 8  -6015533.71046  23409528.078    23409533.9014
  21447262.156   -11269115.742 9  -8759398.05847  21447265.321    21447269.7694
  21005410.880   -18630714.388 9 -14496092.81747  21005414.378    21005419.8854
 00  6 30  4  2  0.0000000  0  6 05 06 24 17 25 30
  23722325.828    -4047293.061 8  -3137993.11045  23722319.460    23722328.6224
  20356926.509   -24292073.497 9 -18906863.81248  20356928.107    20356933.7924
  23657462.583    -1537458.860 8  -1185387.61145  23657468.073    23657476.8824
  23389370.829    -7844314.154 8  -6098051.35446  23389375.960    23389383.4564
  21447011.189   -11270430.406 9  -8760422.49547  21447014.882    21447020.1514
  21017623.908   -18566532.255 9 -14446080.82047  21017627.693    21017632.7514
 00  6 30  4  2 30.0000000  0  6 05 06 24 17 25 30
  23741400.297    -3947007.547 7  -3059848.78845  23741402.623    23741413.3994
  20356888.898   -24292259.135 9 -18907008.49548  20356892.894    20356898.4334
  23673582.884    -1452780.138 8  -1119404.25645  23673582.517    23673590.8604
  23369252.025    -7950010.790 8  -6180412.31946  23369262.282    23369270.3564
  21446872.688   -11271159.329 9  -8760990.50747  21446876.204    21446881.0624
  21029912.895   -18501969.523 9 -14395772.24547  21029914.108    21029919.1734
 00  6 30  4  3  0.0000000  0  6 05 06 24 17 25 30
  23760515.605    -3846576.397 8  -2981590.94545  23760515.063    23760523.5174
  20356935.305   -24292024.190 9 -18906825.44448  20356937.715    20356943.4354
  23689748.235    -1367769.160 8  -1053162.05045  23689758.728    23689768.2444
  23349184.003    -8055503.660 8  -6262614.53146  23349187.331    23349196.0214
  21446845.612   -11271302.500 9  -8761102.09547  21446848.504    21446853.5134
  21042270.051   -18437027.102 9 -14345167.84047  21042272.132    21042277.2804
 00  6 30  4  3 30.0000000  0  6 05 06 24 17 25 30
  23779642.745    -3746000.703 7  -2903220.50445  23779652.834    23779664.0934
  20357060.427   -24291368.973 9 -18906314.91648  20357062.641    20357068.0364
  23706002.671    -1282428.306 8   -986662.80845  23705997.882    23706007.8564
  23329147.312    -8160790.226 8  -6344655.97846  23329151.531    23329160.4224
  21446931.985   -11270859.236 9  -8760756.71947  21446933.645    21446938.3224
  21054700.014   -18371705.964 9 -14294268.32847  21054702.686    21054707.8894
 00  6 30  4  4  0.0000000  0  6 05 06 24 17 25 30
  23798819.330    -3645281.755 7  -2824738.41045  23798820.013    23798830.5364
  20357265.859   -24290294.052 9 -18905477.34048  20357267.230    20357272.7184
  23722292.937    -1196759.853 7   -919908.25245  23722300.206    23722310.4644
  23309154.549    -8265867.621 8  -6426534.46246  23309156.166    23309164.6134
  21447125.667   -11269830.101 9  -8759954.82247  21447128.416    21447133.5934
  21067201.837   -18306007.086 9 -14243074.45947  21067204.477    21067209.4084
 00  6 30  4  4 30.0000000  0  6 05 06 24 17 25 30
  23818016.254    -3544420.568 7  -2746145.48545  23818013.887    23818023.5064
  20357547.544   -24288799.992 9 -18904313.16348  20357551.300    20357557.0274
  23738665.104    -1110766.546 8   -852900.61345  23738665.829    23738675.3054
  23289200.061    -8370733.407 8  -6508248.08346  23289202.005    23289209.2164
  21447435.720   -11268214.854 9  -8758696.20347  21447436.415    21447441.8514
  21079776.879   -18239931.588 9 -14191587.12747  21079777.451    21079783.5134
 00  6 30  4  5  0.0000000  0  6 05 06 24 17 25 30
  23837237.321    -3443418.522 7  -2667442.75145  23837235.192    23837241.9714
  20357913.880   -24286887.315 9 -18902822.79948  20357915.265    20357920.9354
  23755081.827    -1024450.840 8   -785641.71345  23755091.250    23755100.6344
  23269284.246    -8475385.071 8  -6589794.80646  23269287.272    23269294.0904
  21447849.127   -11266013.273 9  -8756980.71647  21447854.941    21447860.4594
  21092418.094   -18173480.216 9 -14139806.92847  21092423.152    21092429.0134
 00  6 30  4  5 30.0000000  0  7 05 06 24 17 25 30 22
  23856478.898    -3342276.512 7  -2588630.96845  23856480.882    23856490.7064
  20358356.142   -24284556.398 9 -18901006.53448  20358358.659    20358364.5684
  23771570.297     -937815.247 7   -718133.56245  23771576.184    23771586.4624
  23249410.616    -8579819.804 8  -6671172.53246  23249414.170    23249421.5984
  21448385.835   -11263225.272 9  -8754808.27547  21448385.814    21448390.8794
  21105140.634   -18106654.228 9 -14087734.79847  21105140.913    21105145.2644
  23935996.374     -330088.02817   -200621.43554  23935999.483    23936006.8144
 00  6 30  4  6  0.0000000  0  7 05 06 24 17 25 30 22
  23875755.292    -3240995.888 7  -2509711.17845  23875754.721    23875763.6454
  20358879.460   -24281807.718 9 -18898864.72948  20358881.622    20358887.4984
  23788124.435     -850862.270 8   -650378.07945  23788123.488    23788133.3334
  23229579.547    -8684035.106 8  -6752379.24446  23229581.944    23229590.3384
  21449026.494   -11259850.922 9  -8752178.94147  21449027.696    21449033.4724
  21117926.666   -18039454.356 9 -14035371.33247  21117927.711    21117933.3254
  23916251.486     -433848.063 7   -281473.36245  23916253.749    23916266.7564
 00  6 30  4  6 30.0000000  0  7 05 06 24 17 25 30 22
  23895054.662    -3139577.807 7  -2430684.33445  23895053.082    23895063.6224
  20359480.014   -24278641.769 9 -18896397.78648  20359484.555    20359489.7484
  23804728.368     -763594.353 8   -582377.22845  23804729.138    23804739.0464
  23209791.593    -8788028.372 8  -6833412.94746  23209792.748    23209799.5514
  21449775.874   -11255890.229 9  -8749092.70247  21449781.100    21449786.9144
  21130782.949   -17971881.804 9 -13982717.48247  21130786.305    21130791.8484
  23896533.976     -537489.188 7   -362232.62945  23896532.307    23896542.4374
 00  6 30  4  7  0.0000000  0  7 05 06 24 17 25 30 22
  23914381.391    -3038023.447 7  -2351551.30845  23914379.454    23914388.3574
  20360162.915   -24275059.130 9 -18893606.14148  20360166.034    20360171.8594
  23821400.627     -676014.162 8   -514133.00545  23821396.238    23821405.3394
  23190045.955    -8891796.986 8  -6914271.58446  23190045.567    23190053.8434
  21450643.940   -11251343.036 9  -8745549.45247  21450646.904    21450652.2114
  21143715.743   -17903937.470 9 -13929773.91747  21143715.984    21143721.0714
  23876832.375     -641009.479 7   -442897.73745  23876833.868    23876841.8424
 00  6 30  4  7 30.0000000  0  8 05 06 24 17 25 30 22 10
  23933739.933    -2936334.299 7  -2272313.20045  23933731.986    23933740.5904
  20360924.896   -24271060.126 9 -18890490.06248  20360927.238    20360932.9114
  23838120.576     -588124.033 8   -445647.30445  23838121.336    23838131.0264
  23170339.261    -8995338.418 8  -6994953.19146  23170342.779    23170350.2814
  21451622.842   -11246209.465 9  -8741549.28747  21451624.079    21451628.9614
  21156713.549   -17835622.712 9 -13876541.70447  21156715.686    21156721.2554
  23857159.988     -744406.968 7   -523467.19445  23857157.553    23857166.6524
  24101897.430      -23470.75617
 00  6 30  4  8  0.0000000  0  8 05 06 24 17 25 30 22 10
  23953077.902    -2834511.394 7  -2192970.87444  23953104.087    23953115.8714
  20361763.457   -24266645.233 9 -18887049.91548  20361767.296    20361773.0054
  23854899.981     -499926.787 8   -376922.27445  23854905.288    23854914.5744
  23150681.669    -9098650.063 8  -7075455.71846  23150683.937    23150691.6524
  21452710.385   -11240489.142 9  -8737091.91047  21452712.396    21452718.0144
  21169783.123   -17766938.264 9 -13823021.43247  21169786.114    21169792.1474
  23837506.247     -847680.129 8   -603939.73445  23837506.091    23837514.2884
  24091592.648      -77615.484 7    -53899.30254                  24091604.4064
 00  6 30  4  8 30.0000000  0  8 05 06 24 17 25 30 22 10
  23972516.395    -2732555.541 6  -2113524.94044  23972505.046    23972519.6724
  20362683.508   -24261815.207 9 -18883286.29348  20362686.248    20362691.8434
  23871745.426     -411424.553 7   -307959.60145  23871744.650    23871756.6434
  23131064.536    -9201729.357 8  -7155777.21946  23131067.874    23131075.4164
  21453909.737   -11234182.726 9  -8732177.85647  21453912.305    21453917.8534
  21182924.859   -17697885.088 9 -13769213.85547  21182926.493    21182932.8684
  23817871.972     -950827.532 7   -684314.32145  23817877.241    23817886.2094
  24081375.613     -131295.820 7    -95727.98445  24081377.985    24081389.9554
 00  6 30  4  9  0.0000000  0  8 05 06 24 17 25 30 22 10
  23991933.146    -2630468.470 6  -2033976.76044  23991930.223    23991942.6864
  20363681.772   -24256570.495 9 -18879199.52848  20363684.572    20363690.0844
  23888634.588     -322620.158 7   -238761.43045  23888645.741    23888654.5534
  23111493.075    -9304573.473 8  -7235915.46846  23111497.630    23111505.4614
  21455220.827   -11227290.135 9  -8726807.03047  21455223.733    21455229.4724
  21196133.217   -17628464.097 9 -13715119.65147  21196136.738    21196142.9174
  23798271.786    -1053847.717 7   -764589.76545  23798273.952    23798280.5864
  24071254.560     -184509.015 7   -137192.73745  24071254.080    24071263.9894
 00  6 30  4  9 30.0000000  0  7 06 24 17 25 30 22 10
  20364758.529   -24250911.576 9 -18874790.00948  20364761.567    20364767.1624
  23905598.846     -233515.989 7   -169329.73145  23905600.956    23905610.2124
  23091971.034    -9407179.943 8  -7315868.55546  23091972.441    23091979.7594
  21456643.935   -11219811.249 9  -8720979.34247  21456646.855    21456653.0374
  21209413.959   -17558676.528 9 -13660739.82047  21209417.044    21209423.1654
  23778695.037    -1156738.498 8   -844764.36845  23778693.634    23778700.7924
  24061211.112     -237252.870 7   -178291.77545  24061216.270    24061225.1874
 00  6 30  4 10  0.0000000  0  7 06 24 17 25 30 22 10
  20365913.818   -24244839.098 9 -18870058.23248  20365917.088    20365922.7814
  23922601.652     -144114.514 7    -99666.35345  23922613.744    23922624.0024
  23072486.310    -9509546.117 8  -7395634.37246  23072492.689    23072500.2944
  21458178.953   -11211746.291 9  -8714694.99247  21458181.229    21458187.1744
  21222763.594   -17488523.674 9 -13606075.33947  21222766.527    21222772.6344
  23759134.319    -1259498.002 7   -924836.67145  23759137.479    23759147.0804
  24051268.653     -289525.058 7   -219023.22645  24051268.280    24051278.7134
 00  6 30  4 10 30.0000000  0  7 06 24 17 25 30 22 10
  20367148.775   -24238353.650 9 -18865004.66548  20367151.381    20367156.9734
  23939684.401      -54418.387 8    -29773.37945  23939681.931    23939692.9304
  23053059.637    -9611669.507 8  -7475211.02446  23053059.381    23053066.4724
  21459823.516   -11203095.549 9  -8707954.19047  21459827.567    21459833.1834
  21236185.309   -17418006.426 9 -13551126.90947  21236186.144    21236191.8434
  23739610.096    -1362124.721 7  -1004805.45345  23739609.894    23739618.0744
  24041405.639     -341322.899 7   -259385.10245  24041412.016    24041420.8004
 00  6 30  4 11  0.0000000  0  7 06 24 17 25 30 22 10
  20368459.149   -24231455.664 9 -18859629.64848  20368463.488    20368469.4354
  23956804.207       35569.893 8     40347.24945  23956806.944    23956816.4874
  23033670.892    -9713547.645 8  -7554596.55746  23033672.095    23033680.0514
  21461582.533   -11193859.444 9  -8700757.26047  21461585.427    21461591.1914
  21249669.969   -17347125.695 9 -13495895.24647  21249674.169    21249680.3644
  23720111.986    -1464617.328 7  -1084669.75445  23720105.865    23720113.9674
  24031644.480     -392644.044 7   -299375.48245  24031644.668    24031655.8694
 00  6 30  4 11 30.0000000  0  7 06 24 17 25 30 22 10
  20369853.005   -24224145.812 9 -18853933.69048  20369854.799    20369860.7874
  23973980.823      125847.822 8    110693.60445  23973986.329    23973996.6444
  23014330.202    -9815177.762 8  -7633788.84246  23014332.371    23014339.6114
  21463453.691   -11184038.119 9  -8693104.29847  21463454.743    21463460.4604
  21263230.796   -17275882.834 9 -13440381.40947  21263231.062    21263236.7984
  23700632.751    -1566973.974 8  -1164428.14545  23700628.852    23700636.4724
  24021971.008     -443485.940 7   -338992.47344  24021968.772    24021979.6174
 00  6 30  4 12  0.0000000  0  7 06 24 17 25 30 22 10
  20371321.104   -24216424.593 9 -18847917.18348  20371324.084    20371330.1724
  23991221.605      216412.821 8    181263.65345  23991220.970    23991231.1664
  22995034.787    -9916557.327 8  -7712785.87346  22995039.837    22995048.5214
  21465432.994   -11173631.497 9  -8684995.26047  21465435.338    21465441.1674
  21276855.563   -17204278.772 9 -13384586.10847  21276856.626    21276862.9114
  23681175.727    -1669192.660 8  -1244079.00345  23681176.844    23681184.4284
  24012375.601     -493846.732 7   -378234.65145  24012389.956    24012397.8504
 00  6 30  4 12 30.0000000  0  7 06 24 17 25 30 22 10
  20372868.519   -24208292.586 9 -18841580.59048  20372871.607    20372877.1764
  24008505.621      307262.601 7    252055.55345  24008508.824    24008517.9784
  22975793.005   -10017683.773 8  -7791585.67146  22975796.352    22975803.7304
  21467525.207   -11162639.926 9  -8676430.42847  21467527.412    21467532.0134
  21290549.989   -17132314.617 9 -13328510.23147  21290551.271    21290557.5524
  23661750.500    -1771271.474 8  -1323620.85845  23661751.136    23661759.0254
  24002891.130     -543723.908 7   -417099.93445  24002895.117    24002905.3024
 00  6 30  4 13  0.0000000  0  7 06 24 17 25 30 22 10
  20374496.447   -24199750.392 9 -18834924.36748  20374497.332    20374502.8794
  24025837.646      398394.494 7    323067.31645  24025849.264    24025860.4804
  22956602.455   -10118554.482 8  -7870186.22246  22956601.203    22956609.1714
  21469727.654   -11151064.058 9  -8667410.30047  21469730.118    21469734.4274
  21304313.023   -17059991.507 9 -13272154.63847  21304314.020    21304319.8534
  23642353.556    -1873208.989 8  -1403052.61745  23642352.530    23642361.1984
  23993492.146     -593115.130 7   -455586.52945  23993498.422    23993506.5644
 00  6 30  4 13 30.0000000  0  7 06 24 17 25 30 22 10
  20376198.808   -24190798.608 9 -18827948.98648  20376200.687    20376206.0484
  24043239.827      489805.887 7    394296.85445  24043245.288    24043255.0684
  22937453.174   -10219166.904 8  -7948585.47446  22937455.545    22937463.0304
  21472043.634   -11138903.909 9  -8657934.88147  21472044.561    21472048.8264
  21318140.366   -16987310.411 9 -13215520.10247  21318144.681    21318151.4414
  23622979.502    -1975003.673 8  -1482373.10945  23622982.723    23622990.6664
  23984189.514     -642018.049 8   -493692.64145  23984192.191    23984202.0424
 00  6 30  4 14  0.0000000  0  7 06 24 17 25 30 22 10
  20377978.861   -24181437.869 9 -18820654.93748  20377981.737    20377987.6724
  24060692.681      581494.306 8    465742.27145  24060694.592    24060703.7074
  22918353.790   -10319518.539 8  -8026781.54746  22918359.419    22918367.6044
  21474464.787   -11126159.451 9  -8648004.16647  21474468.654    21474474.2624
  21332042.809   -16914272.508 9 -13158607.53847  21332044.110    21332050.1734
  23603639.611    -2076653.748 8  -1561580.89345  23603638.206    23603647.5454
  23974977.949     -690430.511 7   -531416.54045  23974978.324    23974989.0254
 00  6 30  4 14 30.0000000  0  7 06 24 17 25 30 22 10
  20379837.647   -24171668.749 9 -18813042.67048  20379840.967    20379847.1154
  24078188.145      673457.172 8    537401.55945  24078194.034    24078202.4224
  22899310.696   -10419606.768 8  -8104772.37946  22899312.970    22899321.5764
  21477001.160   -11112831.357 9  -8637618.65847  21477004.745    21477010.2274
  21346006.985   -16840878.988 9 -13101417.85747  21346010.135    21346016.0824
  23584328.059    -2178157.059 8  -1640674.29845  23584323.930    23584330.9854
  23965859.771     -738350.071 7   -568756.42645  23965860.129    23965869.6624
 00  6 30  4 15  0.0000000  0  7 06 24 17 25 30 22 10
  20381776.484   -24161491.837 9 -18805112.64248  20381777.960    20381783.4964
  24095741.058      765692.167 8    609272.89445  24095745.542    24095755.3714
  22880316.719   -10519428.739 8  -8182555.71246  22880316.776    22880326.6414
  21479650.760   -11098920.198 9  -8626778.84147  21479652.596    21479658.0754
  21360040.332   -16767131.030 9 -13043951.99247  21360044.120    21360050.1654
  23565031.807    -2279511.689 8  -1719651.90545  23565036.425    23565044.0254
  23956839.605     -785774.571 8   -605710.53545  23956836.253    23956844.0744
 00  6 30  4 15 30.0000000  0  7 06 24 17 25 30 22 10
  20383789.550   -24150907.887 9 -18796865.44448  20383792.268    20383797.7884
  24113337.589      858196.501 8    681354.07645  24113347.510    24113358.4924
  22861364.785   -10618982.123 8  -8260129.76046  22861373.044    22861382.2834
  21482408.512   -11084426.014 9  -8615484.70447  21482410.248    21482416.6414
  21374145.727   -16693029.609 9 -12986210.70547  21374145.603    21374151.1954
  23545771.779    -2380716.278 8  -1798512.59345  23545779.100    23545784.8674
  23947906.135     -832701.862 8   -642277.16045  23947905.613    23947915.0534
 00  6 30  4 16  0.0000000  0  7 06 24 17 25 30 22 10
  20385880.290   -24139917.380 9 -18788301.45548  20385883.363    20385889.1884
  24130999.829      950967.789 7    753643.28745  24130999.708    24131012.8154
  22842478.207   -10718264.354 8  -8337492.54346  22842480.471    22842489.5284
  21485275.227   -11069349.427 9  -8603736.74147  21485279.293    21485285.2974
  21388313.001   -16618575.841 9 -12928194.85247  21388313.862    21388318.7184
  23526540.815    -2481769.333 7  -1877255.18045  23526548.266    23526556.2924
  23939064.186     -879129.495 8   -678454.41445  23939070.553    23939080.5104
 00  6 30  4 16 30.0000000  0  7 06 24 17 25 30 22 10
  20388051.620   -24128520.898 9 -18779421.11548  20388052.129    20388058.2404
  24148702.301     1044003.532 7    826138.55745  24148705.897    24148716.7594
  22823637.506   -10817272.794 8  -8414641.96846  22823640.280    22823648.5124
  21488256.776   -11053691.012 9  -8591535.42547  21488259.195    21488264.2184
  21402546.269   -16543770.957 9 -12869905.41847  21402547.802    21402554.4744
  23507349.585    -2582668.812 8  -1955878.12745  23507347.609    23507354.8544
  23930331.584     -925055.328 8   -714240.67245  23930330.824    23930341.1024
 00  6 30  4 17  0.0000000  0  7 06 24 17 25 30 22 10
  20390294.410   -24116719.212 9 -18770225.03248  20390298.024    20390303.6194
  24166459.499     1137301.181 7    898837.91145  24166460.753    24166469.8014
  22804851.013   -10916004.950 8  -8491576.09546  22804851.500    22804860.0674
  21491346.196   -11037451.000 9  -8578880.90447  21491348.872    21491355.7494
  21416849.781   -16468616.286 9 -12811343.40047  21416850.105    21416855.3844
  23488176.505    -2683412.682 7  -2034379.77845  23488177.480    23488184.4934
  23921684.183     -970477.458 8   -749634.42645  23921687.934    23921696.5884
 00  6 30  4 17 30.0000000  0  7 06 24 17 25 30 22 10
  20392618.724   -24104512.885 9 -18760713.64648  20392621.049    20392626.3654
  24184260.023     1230858.070 7    971739.23845  24184261.503    24184274.1864
  22786111.545   -11014458.248 8  -8568292.93546  22786116.114    22786125.5154
  21494547.538   -11020629.797 9  -8565773.51247  21494550.396    21494556.2054
  21431215.280   -16393112.782 9 -12752509.58947  21431216.733    21431223.5674
  23469028.081    -2783999.036 7  -2112758.68045  23469035.585    23469043.8734
  23913139.488    -1015393.488 7   -784633.90045  23913140.125    23913149.9114
 00  6 30  4 18  0.0000000  0  7 06 24 17 25 30 22 10
  20395017.062   -24091902.483 9 -18750887.39348  20395020.401    20395026.2084
  24202108.780     1324671.761 8   1044840.72045  24202116.445    24202126.1534
  22767433.463   -11112630.241 8  -8644790.59046  22767435.114    22767442.5184
  21497858.679   -11003228.305 9  -8552213.94147  21497862.131    21497867.7944
  21445649.764   -16317261.732 9 -12693404.96447  21445651.172    21445657.8994
  23449924.870    -2884426.387 7  -2191013.75745  23449925.052    23449931.4584
  23904688.856    -1059801.593 8   -819237.56345  23904688.810    23904698.1914
 00  6 30  4 18 30.0000000  0  7 06 24 17 25 30 22 10
  20397494.078   -24078888.692 9 -18740746.81948  20397497.224    20397502.5114
  24220012.037     1418739.833 7   1118140.42545  24220016.902    24220026.3504
  22748803.251   -11210518.265 8  -8721066.97446  22748807.959    22748815.1594
  21501282.871   -10985246.874 9  -8538202.46047  21501284.351    21501289.6394
  21460152.101   -16241064.205 9 -12634030.34247  21460151.846    21460157.6824
  23430835.594    -2984693.383 7  -2269143.86845  23430845.449    23430853.2044
  23896330.713    -1103699.312 8   -853443.55145  23896336.243    23896345.6634
 00  6 30  4 19  0.0000000  0  7 06 24 17 25 30 22 10
  20400047.179   -24065472.177 9 -18730292.42748  20400050.224    20400055.7654
  24237952.875     1513059.782 7   1191636.41645  24237963.598    24237975.7204
  22730230.836   -11308120.009 8  -8797120.28346  22730234.844    22730242.8204
  21504815.691   -10966685.961 9  -8523739.45147  21504816.109    21504821.5424
  21474714.607   -16164521.158 9 -12574386.50847  21474717.151    21474723.5944
  23411796.766    -3084797.746 7  -2347147.26945  23411796.569    23411802.6134
  23888088.606    -1147084.665 7   -887250.25545  23888079.907    23888088.6404
 00  6 30  4 19 30.0000000  0  7 06 24 17 25 30 22 10
  20402677.962   -24051653.549 9 -18719524.69948  20402679.845    20402685.4684
  24255964.303     1607629.056 7   1265326.60345  24255961.894    24255970.9004
  22711714.893   -11405433.010 8  -8872948.56246  22711715.578    22711724.9994
  21508453.171   -10947546.297 9  -8508825.46047  21508457.317    21508463.5344
  21489346.065   -16087633.988 9 -12514474.51047  21489348.234    21489354.4604
  23392779.447    -3184737.387 7  -2425022.28145  23392777.980    23392785.3224
  23879917.742    -1189955.456 7   -920656.06445  23879922.456    23879931.5284
 00  6 30  4 20  0.0000000  0  7 06 24 17 25 30 22 10
  20405382.953   -24037433.431 9 -18708444.13048  20405386.102    20405391.0304
  24273998.472     1702445.013 7   1339209.07245  24274003.306    24274015.2044
  22693253.711   -11502454.626 8  -8948549.79946  22693254.587    22693261.8164
  21512207.022   -10927828.484 9  -8493460.97047  21512210.234    21512215.8914
  21504045.423   -16010403.886 9 -12454295.31047  21504045.416    21504050.9994
  23373797.083    -3284510.493 7  -2502767.55845  23373791.662    23373799.0864
  23871859.854    -1232309.961 7   -953659.47645  23871861.794    23871873.1994
 00  6 30  4 20 30.0000000  0  7 06 24 17 25 30 22 10
  20408165.806   -24022812.687 9 -18697051.37548  20408167.978    20408173.3774
  24292100.741     1797505.194 7   1413281.85245  24292093.272    24292102.5634
  22674843.319   -11599182.198 8  -9023921.91446  22674847.436    22674854.7764
  21516069.264   -10907532.963 9  -8477646.31547  21516072.373    21516078.0074
  21518805.847   -15932832.205 9 -12393849.92147  21518806.786    21518812.4264
  23354840.884    -3384115.796 7  -2580381.99945  23354835.766    23354844.9664
  23863902.682    -1274146.031 8   -986258.96845  23863901.174    23863910.6654
 00  6 30  4 21  0.0000000  0  7 06 24 17 25 30 22 10
  20411024.113   -24007791.938 9 -18685346.93348  20411026.378    20411032.0134
  24310231.852     1892807.177 7   1487543.02345  24310230.999    24310240.3114
  22656495.037   -11695613.243 8  -9099062.98446  22656497.684    22656505.4554
  21520042.384   -10886660.777 9  -8461382.32847  21520044.664    21520049.2654
  21533631.001   -15854919.989 9 -12333139.17947  21533633.308    21533638.3314
  23335904.730    -3483551.491 7  -2657864.27745  23335912.837    23335922.1724
  23856031.450    -1315461.643 8  -1018452.92445  23856039.471    23856047.5234
 00  6 30  4 21 30.0000000  0  7 06 24 17 25 30 22 10
  20413956.307   -23992371.938 9 -18673331.38348  20413960.449    20413966.1524
  24328407.412     1988348.394 7   1561990.59245  24328409.945    24328421.2524
  22638199.414   -11791745.343 8  -9173971.07346  22638203.992    22638211.9544
  21524121.909   -10865212.274 9  -8444669.23447  21524125.834    21524131.7854
  21548519.034   -15776668.433 9 -12272164.04847  21548523.268    21548529.6764
  23317016.431    -3582815.387 7  -2735212.71545  23317025.157    23317032.7294
  23848267.901    -1356254.757 8  -1050239.76245  23848275.763    23848285.5884
